GFSSW_925_thetae_000.txt.gz
Theta_e
311 310 309 309 309 308 307 307 306 304 302 302 303 305 305 305 306 307 310 309 312 313 323 323 326 328 327 326 328 327 330 331 330 329 328 327 325 323 324 325 324 323 324 326 327
311 311 310 310 310 309 308 308 308 307 307 304 302 303 303 304 306 310 309 310 311 311 317 327 327 328 326 327 328 328 330 334 331 328 327 327 325 323 322 322 324 325 326 327 326
308 308 309 310 310 309 309 309 308 308 308 307 305 302 301 303 315 313 315 317 317 311 313 321 328 326 327 327 328 328 332 331 330 329 327 327 327 323 322 322 322 323 326 324 323
307 307 308 308 308 308 308 309 309 309 308 307 306 304 299 306 306 315 317 315 316 314 315 318 318 326 328 329 328 330 330 331 330 329 327 326 326 326 323 322 321 323 325 324 323
305 307 307 307 307 306 307 309 309 309 308 308 307 307 306 315 309 312 316 314 317 316 321 317 317 318 323 330 329 330 330 330 328 327 327 327 325 324 323 323 322 323 323 324 323
303 302 304 306 307 306 305 308 309 309 309 309 308 310 310 308 307 308 309 312 314 320 319 316 316 317 317 321 325 329 330 330 329 328 328 328 328 323 324 324 323 321 321 321 320
306 306 302 299 304 307 306 306 306 307 307 308 311 312 311 308 305 310 311 312 311 316 317 318 317 317 316 317 318 322 327 328 328 325 324 325 325 325 324 323 323 320 319 320 320
307 306 306 305 302 304 306 305 305 305 306 308 313 312 311 306 305 306 306 307 310 314 317 317 318 316 316 316 318 320 320 322 323 323 324 323 327 325 323 323 323 322 320 319 318
306 306 306 306 306 304 303 304 304 304 306 310 312 311 309 305 307 304 307 310 310 312 314 318 316 315 315 317 317 318 321 321 322 322 325 323 327 326 324 323 323 322 322 321 320
305 305 305 306 306 304 299 301 303 305 308 311 312 312 309 307 308 309 308 311 312 313 315 318 319 315 314 316 319 320 320 323 324 324 325 325 325 325 324 324 324 322 322 322 321
305 304 305 305 306 305 301 301 310 312 310 313 311 308 311 310 312 312 311 310 313 314 314 317 319 317 317 318 320 321 321 322 323 324 325 325 326 326 325 323 323 321 321 322 321
304 304 305 305 305 304 302 304 306 308 308 309 313 311 309 309 310 313 314 313 312 314 314 317 315 316 318 320 319 319 322 322 322 323 323 324 325 326 325 324 322 322 322 321 323
304 304 304 305 305 303 303 305 308 306 309 311 311 313 313 312 312 313 315 315 312 313 314 315 319 318 317 317 321 320 321 324 324 324 324 324 325 325 327 325 324 323 322 322 323
303 304 304 304 305 303 302 306 306 308 310 310 312 312 313 313 316 313 314 316 315 312 314 313 316 318 316 316 319 321 322 323 326 326 326 324 327 323 325 324 323 321 321 322 322
303 303 304 304 306 304 302 304 306 308 302 305 307 312 313 315 317 316 314 314 315 314 314 314 314 315 315 315 318 321 321 323 324 325 323 324 322 322 322 324 324 322 322 322 322
303 303 304 304 306 304 305 304 307 308 309 306 311 312 314 315 316 317 315 314 315 315 314 313 314 314 314 317 318 321 322 322 323 324 326 325 324 326 323 324 324 322 323 322 321
303 303 304 304 305 305 305 306 310 312 307 309 308 308 308 316 316 318 315 314 314 315 315 315 314 314 315 316 317 321 321 324 324 325 328 323 324 325 324 324 323 320 322 322 322
302 302 303 303 303 304 305 310 314 307 307 307 309 309 310 315 317 317 316 314 314 313 314 315 316 315 316 316 315 316 317 325 326 326 325 324 325 324 322 322 322 321 323 323 322
303 303 304 304 304 306 306 310 306 307 307 308 308 310 310 310 311 318 317 314 315 313 315 315 316 317 316 316 316 316 319 319 323 324 324 323 324 325 323 322 326 327 326 324 323
304 304 304 304 305 306 307 308 307 307 307 307 309 309 310 310 314 314 317 318 315 315 313 315 317 317 317 316 315 315 317 321 319 325 326 324 325 326 322 324 328 328 326 324 324
303 302 304 306 306 306 306 305 306 305 307 308 309 308 308 311 312 314 316 317 318 316 314 314 316 319 317 316 315 314 317 321 321 321 325 323 323 321 321 321 329 327 326 325 325
302 302 305 306 306 305 306 305 305 305 306 306 307 307 309 311 311 313 316 317 314 314 317 314 314 317 318 318 316 315 316 320 324 323 321 322 323 323 321 323 327 326 326 324 325
300 300 305 305 302 306 304 305 305 306 306 307 307 307 309 310 310 314 316 314 314 314 316 316 315 320 323 318 319 316 319 320 318 320 322 322 321 324 325 327 328 327 325 324 324
300 301 303 302 305 306 306 306 306 304 304 305 306 307 309 310 309 311 313 313 313 312 316 314 315 317 320 321 320 320 319 322 320 321 322 322 324 327 329 331 329 327 325 324 326
299 301 304 301 301 303 303 304 305 305 304 303 306 308 308 311 311 311 309 312 312 313 311 310 319 317 317 320 323 323 321 324 323 322 323 322 323 323 326 331 330 328 325 325 326
303 302 302 303 301 302 303 304 305 306 306 306 305 307 307 309 310 313 311 311 312 311 310 310 319 318 319 318 319 320 324 324 324 323 322 323 324 322 326 329 328 328 326 325 326
302 302 303 303 301 301 302 306 306 306 307 306 306 305 306 308 310 311 311 309 310 311 310 311 317 321 321 321 319 320 322 325 323 324 323 323 321 321 323 330 330 327 326 326 325

GFSSW_925_thetae_003.txt.gz
Theta_e
311 311 311 311 311 311 310 309 309 308 308 306 304 303 302 303 305 306 307 309 311 312 311 320 326 326 325 324 325 324 329 331 329 328 328 325 325 323 323 323 323 321 325 325 326
309 309 309 310 310 311 310 310 309 309 309 308 307 304 302 300 306 310 310 311 312 310 311 326 328 326 325 325 325 327 328 329 327 327 326 325 326 326 323 323 321 322 324 326 325
306 307 308 308 309 309 309 310 310 310 310 309 308 307 303 300 311 308 312 316 317 310 310 322 326 326 327 324 326 326 329 328 327 327 327 326 326 327 323 325 324 322 322 323 322
303 303 305 306 307 307 307 308 309 310 310 309 308 307 305 306 306 311 316 313 318 316 313 317 324 326 326 327 326 329 327 328 327 327 328 327 327 326 325 324 324 323 323 323 321
306 306 306 305 305 305 307 307 307 308 309 309 309 309 309 313 307 311 316 311 318 317 315 314 317 324 327 328 327 327 327 327 327 327 327 326 326 326 326 325 323 320 323 324 322
306 307 306 306 306 305 303 306 305 305 306 309 310 311 310 307 304 306 309 308 309 320 319 315 315 316 317 320 322 326 327 328 328 329 328 328 328 328 328 326 324 321 322 323 323
305 305 306 307 306 306 305 302 304 306 306 307 311 311 311 311 304 306 308 308 309 312 318 318 317 317 315 316 315 318 320 321 324 326 326 326 327 326 325 323 322 321 320 322 322
305 304 305 306 306 308 307 305 300 300 305 307 310 312 312 310 309 306 307 305 307 311 315 316 318 316 316 314 316 317 318 320 321 324 326 322 328 325 323 322 322 322 319 320 321
305 304 304 305 306 306 306 306 302 302 306 308 309 310 311 308 309 308 307 306 306 308 308 314 315 315 313 316 315 315 318 318 320 320 322 321 324 325 324 322 322 321 320 318 319
305 304 304 304 305 305 305 304 303 306 307 308 308 311 309 307 306 307 307 306 310 309 311 312 315 313 311 313 316 315 316 318 320 320 320 322 323 324 324 324 322 322 322 319 318
305 304 304 304 304 304 305 303 304 311 309 310 309 308 307 309 309 311 307 306 312 313 311 314 317 318 318 315 316 315 316 317 318 320 323 322 323 324 324 322 322 322 321 320 320
305 304 304 304 304 305 305 302 305 307 308 308 309 311 311 312 312 311 309 309 311 309 312 314 316 319 318 317 315 316 317 319 320 321 322 321 322 322 322 322 322 323 320 320 321
305 304 304 303 304 304 302 303 304 304 308 309 308 309 309 310 313 312 312 312 309 310 311 312 315 318 321 317 318 317 317 318 320 321 322 322 323 323 323 322 322 321 320 320 321
304 303 304 304 304 303 304 303 304 303 307 305 310 309 310 310 311 312 313 314 312 308 311 312 313 316 318 316 316 319 319 320 320 322 325 322 325 322 321 322 321 321 319 320 320
303 303 304 303 304 304 303 304 304 305 299 302 307 309 312 310 310 310 312 313 315 310 310 311 313 313 316 316 316 318 319 321 321 321 322 323 323 322 320 322 321 319 318 317 319
303 302 303 303 303 303 304 304 305 311 307 305 307 307 309 313 313 313 312 312 314 313 311 310 313 313 314 317 317 316 319 319 319 321 324 323 323 324 322 322 322 321 320 321 319
302 303 303 303 302 303 303 304 307 310 306 306 307 307 305 308 312 314 314 312 314 314 314 312 312 313 314 316 315 315 318 320 320 324 326 322 323 324 322 321 321 321 321 319 320
302 303 303 302 302 302 304 306 308 306 306 307 307 307 309 309 310 314 315 313 312 313 314 314 315 313 314 314 315 315 318 322 325 324 324 322 325 325 321 322 320 320 319 320 321
303 303 303 303 304 303 305 308 306 307 306 307 307 309 309 309 310 312 315 315 312 313 313 314 314 314 314 314 314 315 319 319 320 322 323 323 322 322 321 320 323 322 322 321 322
304 301 302 304 305 305 306 303 306 306 305 306 307 309 308 308 312 312 314 314 316 313 311 313 314 314 314 314 314 313 314 316 315 320 323 324 324 324 322 324 326 325 322 321 322
303 302 303 305 305 305 304 303 304 304 304 306 307 306 307 311 311 312 314 314 314 314 313 311 314 315 315 315 314 312 314 315 318 320 323 324 324 319 320 321 325 323 322 322 324
299 300 305 304 305 303 303 304 305 305 305 305 306 307 307 309 311 309 313 315 312 313 315 314 311 313 315 316 315 314 314 314 317 319 319 322 325 322 318 317 323 323 323 322 323
300 299 303 304 304 303 302 304 304 304 305 305 305 305 306 306 309 309 310 312 310 311 313 314 314 314 316 315 314 313 313 313 314 317 320 322 324 323 320 317 324 323 323 323 323
301 300 298 301 302 304 304 305 305 304 304 303 304 304 306 308 308 309 308 308 309 309 314 309 314 315 315 316 316 317 315 314 316 318 319 321 321 325 325 325 325 324 323 323 325
297 300 301 302 300 301 301 303 304 305 304 303 304 306 306 307 310 311 310 310 308 311 309 308 311 318 315 314 319 319 318 316 317 317 319 320 319 321 326 325 325 323 322 324 325
300 302 303 301 302 301 300 303 305 306 305 305 306 306 306 306 308 310 311 312 310 309 309 307 309 316 321 315 314 316 319 318 319 318 320 319 320 318 323 325 327 325 324 325 326
301 302 301 302 302 298 298 303 303 304 305 305 306 304 305 306 307 307 308 311 310 310 309 309 311 311 320 318 316 316 317 318 320 320 320 320 319 319 325 328 328 325 325 325 326

GFSSW_925_thetae_006.txt.gz
Theta_e
308 308 309 309 309 309 310 310 311 310 311 310 309 308 307 305 302 304 308 309 311 309 312 319 317 324 325 322 323 322 328 329 327 326 325 323 326 323 324 323 321 322 322 323 325
306 306 306 307 307 308 308 308 309 310 310 311 311 309 307 306 306 311 308 309 311 310 311 324 325 324 322 323 324 325 328 327 325 323 325 324 327 326 325 326 321 320 320 322 324
308 308 307 306 306 306 306 307 308 308 310 311 310 310 309 306 309 305 310 312 310 309 309 317 324 325 325 323 324 325 329 327 326 325 325 327 326 327 327 328 326 324 323 321 321
307 308 307 307 307 306 305 306 307 308 308 309 310 310 310 307 303 309 313 316 319 313 311 323 325 325 325 326 325 327 326 327 326 325 325 326 326 328 327 327 326 324 322 322 320
306 307 307 307 307 307 307 307 306 306 307 307 308 310 310 310 306 310 315 306 315 317 312 317 325 324 325 324 324 325 326 326 325 324 325 325 326 327 327 327 325 323 320 318 320
305 305 306 306 306 307 307 307 306 305 305 307 308 309 310 310 308 306 304 306 307 313 316 312 316 322 322 323 325 324 325 325 325 326 326 327 327 328 328 327 326 324 321 319 321
305 305 305 306 306 306 306 306 306 306 304 305 308 309 311 310 309 306 306 308 308 308 317 314 313 315 314 316 315 316 318 317 318 319 321 323 325 326 326 325 322 321 321 318 320
305 304 305 305 306 306 306 306 305 305 307 306 307 308 310 309 309 309 309 308 308 307 311 317 316 315 314 314 315 317 317 318 317 320 320 322 324 323 323 323 322 321 321 319 318
304 304 304 304 304 305 305 305 304 305 307 306 306 307 308 308 309 308 309 308 309 307 306 310 316 314 313 316 315 314 316 316 315 317 318 322 321 322 321 322 321 321 320 320 318
305 305 305 304 304 304 304 304 304 307 306 306 306 306 308 307 309 307 307 308 306 304 305 308 312 313 311 314 317 315 315 315 316 317 318 318 320 321 321 321 321 320 319 319 318
305 305 305 304 304 304 304 303 303 308 308 307 306 307 306 309 309 310 305 307 307 307 306 309 312 315 314 315 315 314 313 313 314 317 318 318 319 320 321 320 318 319 320 319 319
304 304 305 304 304 304 304 301 306 304 307 306 307 308 308 308 310 310 308 306 308 308 308 313 312 312 315 315 316 315 314 314 316 319 319 319 320 319 319 320 319 320 320 320 318
304 303 304 304 303 304 302 303 304 303 306 308 307 308 308 308 310 308 310 307 308 307 309 309 311 313 316 317 316 315 316 316 316 319 319 320 320 320 320 320 319 318 319 318 317
304 304 303 304 303 303 303 303 304 304 307 306 308 308 308 307 309 307 311 310 308 307 307 309 310 312 316 319 318 318 317 317 319 320 319 319 323 320 319 321 319 318 317 318 318
304 302 303 303 303 303 303 303 304 304 307 301 306 308 309 307 308 307 308 311 312 306 308 308 310 311 315 318 319 319 318 318 320 320 319 320 320 320 319 320 320 319 318 316 316
302 303 304 303 303 302 303 302 304 307 307 304 306 306 304 309 311 310 310 310 312 308 307 308 310 310 312 316 316 316 316 317 317 317 320 319 320 320 320 321 320 319 319 320 318
302 302 303 304 302 303 302 303 305 307 305 305 307 306 305 308 309 310 311 310 313 314 311 310 308 311 311 311 315 315 313 315 318 319 321 319 320 319 319 319 319 320 318 319 320
301 302 302 302 303 303 303 304 306 304 304 306 306 304 306 309 308 310 313 312 310 311 313 312 312 310 312 312 313 316 315 315 318 322 324 320 324 323 320 320 319 319 318 319 321
302 301 302 303 303 303 301 303 303 306 306 305 305 306 307 306 308 311 311 314 312 310 312 313 313 312 312 313 313 315 314 315 319 320 321 321 321 321 320 320 319 319 320 320 321
302 301 301 303 304 304 303 302 304 304 304 304 305 306 306 306 307 309 311 312 311 312 310 311 313 312 312 312 313 312 313 316 315 320 323 321 322 323 322 320 322 322 320 320 320
301 298 303 304 303 304 305 303 303 303 304 305 306 306 304 307 308 309 311 314 309 309 312 310 311 314 312 312 312 311 313 313 315 315 321 322 322 318 321 319 321 320 319 320 322
299 297 304 303 306 303 303 304 305 305 304 304 305 306 306 307 308 309 310 309 308 308 309 312 310 312 313 312 313 313 313 313 316 318 317 320 322 319 318 317 317 319 320 320 321
300 299 301 303 304 303 303 303 304 304 304 304 304 303 303 305 307 308 308 308 307 308 310 311 311 313 313 313 312 312 313 313 312 313 317 320 320 319 320 320 318 320 321 321 321
299 299 297 299 302 304 303 302 304 303 304 303 303 302 304 306 306 309 309 307 308 309 313 308 309 314 314 313 313 313 313 313 312 312 316 320 319 319 324 320 321 321 321 321 322
295 298 300 302 298 302 302 301 303 304 305 304 304 305 306 307 307 310 309 310 308 310 310 307 310 313 313 316 315 316 314 313 312 313 314 315 317 316 318 321 321 320 321 323 323
299 302 299 302 302 301 300 301 303 304 304 306 305 305 304 306 306 307 308 310 310 310 310 306 310 310 313 316 317 316 313 313 313 313 313 317 316 315 318 322 323 323 324 325 324
301 301 302 302 301 302 302 302 303 303 303 304 304 303 304 304 305 304 305 307 309 309 310 308 309 310 311 312 315 314 315 313 314 313 314 316 316 318 325 325 324 323 324 325 325

GFSSW_925_thetae_009.txt.gz
Theta_e
308 308 307 307 307 306 307 307 308 308 310 311 311 311 310 308 305 304 306 308 311 310 312 322 325 324 318 321 328 326 331 331 329 328 328 326 327 326 326 329 327 325 328 328 326
308 308 308 308 308 307 306 306 307 308 308 309 310 311 310 309 308 309 307 307 310 309 319 321 321 324 326 326 327 330 332 331 329 328 328 327 327 328 328 328 329 328 328 325 325
307 307 308 308 308 308 308 308 307 306 308 308 309 309 310 309 306 306 316 314 309 308 315 318 317 322 324 326 328 329 331 330 329 328 327 327 328 328 328 329 329 329 329 329 329
306 307 307 306 307 307 307 308 308 308 306 307 307 308 310 308 310 315 311 307 313 314 313 314 319 323 322 326 327 328 328 329 329 328 328 328 328 328 329 330 329 329 329 328 329
305 306 306 306 307 307 307 307 307 307 307 305 307 308 310 311 308 313 316 308 309 319 312 315 321 320 321 323 324 328 327 328 328 328 328 328 328 329 328 328 327 328 329 329 330
304 305 305 306 306 307 307 306 306 306 306 307 306 308 309 309 307 308 308 307 307 314 314 314 319 320 320 322 324 324 326 326 327 328 328 328 328 328 328 328 328 329 329 329 329
304 304 305 306 306 306 306 306 305 305 306 308 308 307 308 308 307 308 308 307 307 311 312 312 314 319 321 321 322 324 327 327 327 327 327 324 324 324 325 325 326 326 327 328 328
304 304 305 305 305 306 305 305 305 305 307 308 307 306 307 307 308 309 309 310 309 308 308 311 313 314 316 317 317 319 319 320 320 320 320 320 323 323 324 325 326 327 327 326 327
304 304 305 305 305 305 304 303 302 305 308 307 306 306 307 306 308 309 310 310 310 309 308 308 315 316 315 317 319 319 320 320 320 319 319 322 322 321 322 323 324 325 325 326 326
305 305 304 304 305 305 304 303 305 307 306 306 306 306 305 307 308 308 309 310 310 308 308 308 314 315 316 317 320 320 319 319 320 320 318 319 321 322 322 322 324 325 326 326 326
305 304 304 304 304 304 303 303 306 308 305 306 306 305 305 306 306 306 309 310 310 308 310 309 312 316 314 316 318 319 321 322 322 319 318 318 319 322 322 323 324 324 325 326 328
304 304 304 304 304 303 302 305 304 303 306 305 306 306 306 306 308 307 307 308 309 310 310 310 313 314 315 314 315 317 319 320 318 317 318 319 320 322 322 322 323 325 326 327 328
304 304 304 303 303 303 302 303 303 304 306 307 307 307 307 307 308 308 309 308 308 309 310 312 314 312 313 314 315 316 316 318 318 318 318 319 320 320 321 323 323 323 325 326 327
303 304 303 304 303 302 303 303 303 304 309 306 306 308 307 308 309 308 307 308 309 309 310 311 312 312 312 314 316 317 316 316 317 318 319 321 322 322 321 322 322 323 326 327 327
303 303 303 303 303 303 303 303 303 304 304 303 308 308 306 308 308 309 308 308 311 309 310 311 311 312 313 314 316 316 316 317 318 320 321 321 322 321 322 322 323 323 324 327 324
303 303 305 303 302 302 302 302 304 308 305 305 306 306 305 307 308 310 310 308 310 312 310 311 311 311 313 314 316 317 318 320 320 320 321 320 322 322 322 322 322 324 326 325 326
301 301 302 303 303 302 302 304 307 306 303 306 306 305 304 306 308 309 311 310 308 314 314 310 310 311 311 314 316 319 320 319 319 321 321 320 322 322 321 321 322 324 327 326 328
301 301 302 302 302 302 303 306 305 302 304 305 305 304 302 306 307 308 309 312 311 313 315 313 312 311 312 313 316 320 319 320 323 323 321 322 322 321 323 323 322 324 326 326 328
301 301 302 303 303 302 304 305 301 303 305 305 304 304 304 305 305 307 309 315 312 311 314 316 315 312 313 313 315 318 320 319 318 323 324 325 325 325 325 325 327 326 324 327 329
301 301 303 304 303 304 305 303 304 304 304 304 304 303 304 304 306 307 308 313 312 311 310 314 317 314 312 313 313 314 316 318 318 318 319 320 325 327 328 327 327 327 327 328 328
300 303 304 303 301 304 306 304 304 304 304 305 305 305 305 304 308 309 308 308 310 310 311 313 314 316 313 314 314 314 318 317 318 318 319 318 319 327 329 329 328 328 328 328 329
301 303 301 303 305 303 305 304 304 305 304 304 305 306 306 306 306 308 309 309 308 308 313 314 317 316 316 315 315 315 316 318 317 320 318 322 321 325 328 327 326 326 327 327 328
300 300 300 303 304 303 301 302 303 304 304 305 305 304 304 305 308 308 309 308 308 308 311 314 316 317 317 316 315 316 316 318 320 321 319 318 320 324 328 327 326 327 326 327 328
302 303 302 304 302 302 302 302 303 303 304 304 305 305 306 306 306 307 310 309 308 308 311 311 312 317 317 317 317 316 316 316 318 319 320 320 318 321 322 326 327 327 328 328 329
300 301 302 303 303 303 301 301 303 304 304 304 305 306 306 306 306 309 309 310 310 309 310 311 314 313 314 314 316 316 315 315 317 317 318 320 320 319 324 323 326 328 328 329 329
302 303 302 303 302 302 302 302 303 303 303 303 305 305 304 304 305 306 307 307 310 311 309 310 314 313 315 314 315 317 317 316 315 316 316 317 318 319 320 323 326 329 328 329 330
301 301 302 302 302 303 304 303 304 305 304 304 305 306 305 304 304 305 305 305 306 309 311 312 312 314 317 315 317 317 318 317 316 316 316 317 319 318 320 324 328 330 329 330 330

GFSSW_925_thetae_012.txt.gz
Theta_e
308 308 308 309 308 308 308 307 307 308 308 309 310 311 311 310 309 313 310 310 311 310 312 325 325 325 321 323 326 329 332 333 333 332 331 330 330 330 330 331 330 330 329 330 329
307 307 307 307 308 308 308 308 308 308 307 307 309 309 309 310 313 313 311 308 307 308 314 322 323 324 326 327 328 332 333 332 332 331 331 331 330 330 330 331 331 331 330 330 329
306 307 307 307 307 307 307 308 308 308 308 307 307 308 308 311 313 312 317 313 313 307 310 318 319 321 323 327 329 331 334 332 331 331 331 331 331 330 330 331 330 331 331 331 330
305 306 307 306 307 307 307 307 308 308 308 308 306 307 308 312 311 319 310 308 313 316 312 315 320 319 322 324 327 331 331 331 331 330 331 331 331 330 330 331 330 330 330 330 330
304 305 306 306 306 306 306 307 307 307 307 307 308 305 310 313 311 313 315 312 313 318 316 318 321 322 324 323 323 327 329 330 329 330 330 330 330 330 331 330 330 329 330 330 330
304 304 305 306 306 306 306 306 306 305 304 307 308 306 309 311 309 310 310 311 311 316 318 318 319 322 325 326 325 324 325 326 328 328 329 329 330 330 329 329 329 329 327 327 327
304 305 305 306 306 306 306 306 304 303 303 308 308 309 309 309 307 309 309 310 311 310 315 316 317 321 324 325 325 325 326 326 326 327 327 328 330 329 328 328 328 327 326 327 327
305 305 305 306 306 306 306 304 303 303 305 308 308 309 309 306 307 308 310 311 311 311 311 313 314 317 322 323 323 324 326 328 327 327 327 328 330 327 326 326 326 326 326 326 326
304 305 305 305 305 306 305 303 303 305 307 309 309 309 309 307 307 307 310 311 311 312 312 311 312 316 317 319 322 324 327 328 328 327 324 324 327 327 327 326 326 326 326 326 327
304 304 305 305 304 303 303 304 306 307 308 308 308 309 308 306 308 309 308 311 312 313 314 312 314 317 317 320 326 325 325 325 327 327 324 325 326 326 326 325 325 325 325 326 327
305 304 305 304 304 303 304 306 308 311 307 308 306 308 307 305 306 307 307 311 312 313 314 313 314 318 320 320 321 323 325 326 326 326 326 326 326 326 327 325 325 326 326 326 327
304 304 304 304 304 303 305 306 307 306 308 306 307 307 306 306 307 308 307 309 313 314 314 314 316 317 319 320 320 322 324 326 326 326 326 326 325 325 325 325 325 326 325 327 328
303 303 304 303 303 305 305 306 305 306 308 307 307 308 309 309 309 309 308 308 312 313 314 316 316 316 317 319 320 320 322 323 323 323 324 324 324 324 324 325 324 325 326 328 327
302 302 303 303 304 305 305 305 305 306 310 306 307 309 309 310 311 310 309 308 311 313 313 314 316 316 317 319 319 321 320 319 320 322 324 322 325 325 324 324 324 325 326 327 327
302 303 305 303 304 305 304 304 304 307 306 304 310 310 309 308 309 311 310 310 308 312 313 315 314 316 317 318 318 320 318 319 320 321 322 322 323 323 324 325 325 326 327 328 327
303 303 303 305 304 304 304 304 305 310 306 305 307 308 307 307 307 309 311 311 310 308 313 314 314 315 316 317 317 318 318 319 320 321 323 322 323 324 325 326 326 326 325 326 331
302 301 303 303 305 304 304 305 309 305 304 305 307 306 305 305 305 308 309 312 312 310 310 315 314 314 315 317 317 317 320 323 324 325 324 323 323 324 327 327 325 325 328 332 333
301 303 304 305 305 304 305 308 306 302 302 304 304 304 303 303 306 308 307 313 313 311 312 314 318 314 315 316 317 318 321 321 323 323 323 323 324 325 325 324 327 324 326 330 334
302 305 306 305 304 304 307 309 304 304 304 304 305 304 304 305 305 307 308 314 316 313 312 316 318 315 314 315 318 320 321 321 320 323 325 325 326 327 326 326 325 329 328 331 334
303 305 306 305 304 304 307 306 305 305 305 305 306 304 305 305 305 307 308 311 311 312 314 317 321 317 314 315 317 320 321 322 320 324 323 321 326 329 328 327 326 327 330 333 334
304 307 306 305 304 307 308 305 305 305 305 306 306 306 306 306 306 308 310 309 309 310 313 316 319 319 316 315 317 319 322 321 322 320 323 323 323 323 327 328 330 331 333 334 334
304 307 303 305 308 307 307 304 305 305 305 306 306 306 306 306 307 307 309 309 308 310 313 315 320 322 317 316 317 318 320 322 321 322 321 321 321 326 328 329 330 331 333 334 334
305 304 303 306 308 305 304 304 304 305 305 306 306 306 306 307 307 308 309 309 308 311 314 314 319 322 320 318 317 318 317 320 321 323 324 321 322 323 328 330 330 332 333 334 333
305 307 305 305 304 304 305 304 305 304 304 305 306 307 307 307 307 308 310 309 310 311 311 314 318 321 321 319 319 319 318 319 322 322 322 321 320 322 328 328 329 332 333 333 333
304 305 304 306 306 304 305 304 304 305 305 305 305 307 306 306 306 309 308 309 308 311 312 314 317 319 318 318 319 319 318 319 321 322 322 321 321 321 325 325 328 329 332 333 333
305 304 304 304 304 304 304 305 305 307 307 307 307 306 306 307 306 306 306 309 310 311 313 314 319 318 319 317 318 319 318 319 319 321 320 320 321 322 322 323 324 328 331 334 334
302 303 303 304 304 305 306 305 308 306 307 306 307 307 308 306 306 307 307 308 308 308 310 316 318 319 319 317 318 320 319 318 319 319 320 321 321 321 322 322 324 328 330 332 334

GFSSW_925_thetae_015.txt.gz
Theta_e
308 308 308 308 308 307 307 309 309 309 309 309 308 309 308 306 304 314 318 315 315 314 314 326 327 329 325 326 323 327 331 333 333 333 332 331 331 331 331 332 331 331 332 332 330
307 308 308 308 308 308 308 308 308 308 308 308 308 303 304 306 312 313 314 314 311 310 314 322 327 325 329 328 326 327 332 333 332 332 332 332 332 332 332 332 331 331 331 331 331
306 307 307 307 308 307 308 308 308 308 308 308 308 305 302 308 314 314 318 315 310 309 311 317 324 325 326 329 329 329 331 333 333 332 332 333 333 332 332 333 331 331 331 332 331
305 306 306 306 305 306 306 308 308 308 308 308 307 307 302 312 315 319 312 310 313 318 312 313 319 327 325 326 327 331 331 332 332 332 332 332 331 332 332 332 331 330 331 332 331
304 305 306 307 307 307 307 305 305 305 306 307 308 307 308 313 314 314 312 314 314 321 319 317 318 324 327 325 326 328 329 330 331 331 331 331 331 332 332 331 331 330 331 331 331
304 305 306 306 307 306 307 306 305 303 303 306 308 308 310 310 311 311 312 312 314 316 321 319 320 322 327 328 327 327 327 327 328 328 330 331 331 331 331 331 330 330 331 331 330
305 305 305 306 306 305 306 306 304 303 303 307 308 309 311 310 308 309 310 311 312 314 316 320 320 322 325 327 328 328 329 329 329 328 328 328 330 331 330 330 330 330 330 330 329
304 304 305 306 306 306 306 303 302 303 303 308 308 309 311 307 307 307 308 309 311 312 314 315 319 322 323 325 327 328 329 331 329 328 328 329 331 330 330 330 330 329 329 328 328
304 304 305 305 305 303 302 301 304 305 307 309 310 310 311 308 309 309 308 309 311 313 313 314 316 319 321 323 327 329 331 330 329 329 329 330 331 330 329 329 330 330 329 328 329
305 304 304 304 304 303 303 303 306 306 309 310 310 311 311 308 308 309 311 310 312 314 316 316 316 318 320 323 327 327 329 328 329 328 329 330 331 330 328 328 328 329 329 329 328
305 304 304 304 304 302 305 308 310 313 312 312 309 311 309 308 307 307 308 309 313 314 317 317 317 318 319 322 323 325 326 327 327 328 328 328 329 329 328 328 328 329 330 330 328
303 302 302 302 301 303 306 308 308 307 309 309 308 308 307 307 308 308 307 309 312 315 315 318 318 319 318 320 321 322 324 326 327 328 329 329 329 329 329 329 328 328 329 329 328
303 303 303 303 300 307 306 307 306 307 309 308 308 308 309 309 310 309 309 309 309 313 315 317 319 317 317 318 321 323 324 325 326 327 328 329 329 329 328 328 327 327 327 328 329
303 304 305 304 304 306 306 306 306 306 310 307 309 309 309 311 311 312 311 310 309 309 315 315 316 318 318 318 319 322 323 324 325 327 328 327 331 328 328 327 327 327 327 328 328
303 303 303 303 305 307 306 305 305 307 310 307 308 311 309 309 309 311 312 311 308 309 310 315 316 317 319 319 319 321 322 324 325 325 326 325 327 326 326 327 327 327 327 328 328
302 302 302 307 307 306 306 306 306 311 310 307 308 309 308 308 308 309 310 312 312 310 310 313 315 316 317 318 319 319 321 323 325 325 327 325 326 327 326 326 327 328 328 328 329
302 303 305 306 307 306 306 306 311 311 307 308 308 307 308 307 306 306 307 310 313 313 311 311 314 316 317 317 319 320 323 325 327 328 329 325 326 326 326 326 327 328 328 328 332
302 305 307 306 306 306 307 310 311 306 306 305 305 305 305 305 305 305 308 309 310 312 313 310 311 314 317 318 319 320 323 325 329 328 326 325 326 326 326 327 326 327 327 334 336
305 307 307 307 306 306 308 312 307 306 306 306 307 308 307 307 306 306 306 308 313 315 321 315 311 313 316 317 318 320 323 323 326 326 328 327 326 327 328 329 327 328 327 334 337
306 307 307 306 307 308 311 307 305 305 305 306 307 309 308 307 307 308 306 313 311 311 313 318 315 313 316 317 317 320 321 323 327 328 328 327 328 326 329 328 327 329 329 332 337
307 309 307 306 307 309 311 307 305 304 305 306 308 307 307 309 308 308 309 311 311 310 311 314 322 321 317 319 318 319 321 322 324 325 327 328 326 326 329 329 328 328 331 336 337
308 309 305 306 311 311 308 306 305 305 305 305 307 308 309 308 308 308 311 311 309 310 314 315 319 327 320 319 318 319 321 323 326 327 324 325 327 328 327 329 332 332 335 337 336
309 308 306 306 311 310 307 306 306 307 305 305 306 307 308 309 310 309 309 312 310 312 316 316 320 323 328 322 318 319 320 323 325 327 325 325 325 327 329 331 331 332 335 336 336
309 309 308 308 306 307 307 308 307 306 306 306 307 307 309 308 308 310 310 310 310 311 312 313 318 323 330 322 318 320 320 323 325 327 326 325 325 328 330 331 332 334 336 335 335
309 308 306 309 308 306 306 307 308 308 308 307 308 307 308 308 307 308 309 308 310 310 311 315 318 318 322 323 323 319 320 321 324 325 326 325 323 326 329 330 330 334 335 335 335
307 306 306 307 306 305 307 308 307 307 308 308 308 308 308 308 307 309 307 309 311 311 315 314 319 316 317 321 324 320 320 320 321 323 324 323 323 323 324 326 327 331 333 335 335
306 305 306 306 306 306 308 306 307 307 308 308 307 308 310 308 308 308 308 308 309 310 311 315 319 319 321 322 324 322 322 320 321 323 323 323 323 324 324 326 330 330 331 334 335

GFSSW_925_thetae_018.txt.gz
Theta_e
307 308 308 308 308 309 308 308 309 308 308 309 307 304 303 302 303 311 315 314 316 315 316 324 327 331 332 335 331 324 326 331 332 333 332 332 332 331 332 332 332 332 331 331 330
307 307 308 308 308 308 308 308 308 309 309 308 307 305 302 302 310 313 312 312 315 315 316 320 326 328 329 330 332 327 327 328 330 331 331 332 332 332 333 332 332 333 333 331 331
306 306 307 308 308 308 308 308 308 309 309 309 308 306 304 305 314 314 315 315 313 314 314 317 321 329 327 328 328 329 328 327 329 331 331 331 332 333 333 334 333 334 332 332 331
306 306 307 307 307 308 308 308 309 308 308 308 308 308 303 310 314 316 312 315 313 312 313 313 316 321 328 327 326 329 329 328 329 330 331 332 332 332 332 332 332 333 333 332 331
305 306 307 306 306 306 304 304 306 307 307 308 308 308 309 308 311 313 313 313 315 316 315 316 316 318 323 328 327 327 329 330 330 330 331 331 332 332 331 332 331 332 332 332 332
304 305 306 306 307 307 306 303 302 302 303 307 308 308 309 310 309 310 312 314 314 315 318 322 318 318 320 323 328 328 327 327 328 329 329 329 329 329 330 331 331 332 333 332 332
305 304 305 306 306 307 305 303 302 302 302 303 309 309 310 309 308 310 310 311 313 315 317 318 322 320 320 321 323 326 329 329 328 328 329 329 330 330 329 330 331 332 331 331 332
305 305 304 303 303 302 301 301 301 301 304 305 309 309 310 307 307 308 309 309 309 310 312 314 317 319 322 322 322 325 326 330 329 329 330 330 331 331 330 329 331 331 331 332 333
305 305 303 303 302 302 301 300 300 303 306 307 310 310 311 309 310 309 309 309 309 310 311 314 315 318 320 322 324 324 329 328 330 329 329 330 331 331 331 331 332 332 332 331 332
305 304 303 302 301 301 301 302 306 308 309 311 311 313 313 312 310 310 310 312 310 311 312 314 315 317 318 321 325 326 327 328 330 329 330 330 331 331 331 331 331 332 330 330 331
304 303 303 303 302 301 304 309 309 311 312 315 315 314 312 309 309 309 308 308 310 313 313 314 316 318 318 319 322 323 325 325 328 328 329 331 330 330 331 329 331 331 331 330 331
303 303 302 302 301 301 305 310 308 308 308 309 309 309 308 307 308 308 308 308 309 311 315 314 318 319 317 318 319 320 323 324 326 326 328 329 330 331 331 331 332 333 333 333 332
302 302 303 302 302 307 308 308 307 306 308 308 308 308 308 308 308 309 309 308 308 310 314 314 316 317 318 318 319 320 322 324 324 325 326 328 330 331 330 331 331 331 331 331 331
302 302 302 302 306 307 308 306 306 306 308 309 308 309 309 309 309 310 310 310 308 308 309 312 314 315 318 319 318 321 320 321 323 325 328 327 331 333 333 332 331 331 331 331 332
302 302 303 303 308 308 307 307 306 306 312 309 311 311 311 311 312 311 312 311 310 310 309 309 312 315 315 319 319 320 319 320 322 324 327 326 329 329 329 330 329 330 330 330 331
302 302 305 308 308 309 307 307 307 311 314 310 310 309 310 311 310 310 312 313 312 312 309 310 310 311 316 316 318 319 319 320 322 324 328 329 329 329 329 328 329 330 329 330 330
302 303 306 307 308 307 307 308 312 312 310 306 305 306 306 307 308 308 308 308 310 313 314 312 310 310 311 315 317 319 323 324 325 327 329 326 328 330 329 328 328 329 329 330 336
302 305 308 308 307 307 307 311 313 310 307 305 306 307 307 309 308 307 306 307 307 311 313 316 319 310 312 314 317 319 323 324 326 326 327 325 329 328 329 329 329 327 328 334 339
305 310 309 308 308 308 309 312 310 308 305 305 306 310 309 309 309 309 307 306 309 313 316 318 318 316 311 314 317 319 319 322 325 325 326 328 328 330 329 329 328 328 329 339 339
306 310 309 309 308 308 312 310 308 307 304 304 305 309 311 309 309 309 310 310 310 312 312 314 315 315 317 312 315 318 319 322 324 328 332 329 329 329 331 330 330 328 333 340 340
308 311 310 307 308 311 312 308 308 307 305 306 305 307 307 310 311 310 311 311 312 310 310 311 313 313 315 317 315 318 319 321 325 327 329 331 329 334 332 329 331 329 331 340 340
310 312 308 308 312 313 310 307 308 308 307 306 306 306 307 309 309 309 310 313 312 311 312 313 316 321 320 319 314 318 319 322 324 327 327 329 329 330 329 331 332 330 336 339 339
312 310 309 308 313 311 308 307 308 308 308 307 309 308 308 308 311 313 312 312 311 311 313 314 318 320 320 319 321 320 319 322 325 329 330 328 329 329 328 330 332 335 339 339 339
312 310 309 310 309 309 307 308 308 308 307 307 308 308 310 310 310 312 310 310 311 310 311 312 316 317 323 322 323 326 319 321 326 326 328 328 328 329 330 332 333 339 339 338 338
311 309 309 309 309 308 307 308 309 307 307 308 308 308 308 309 308 308 309 310 310 311 311 313 319 317 315 316 319 323 323 320 325 325 328 328 326 331 334 333 334 339 338 337 337
308 308 307 308 308 308 308 310 307 307 308 309 309 309 308 309 309 311 308 309 309 311 313 315 318 317 319 315 317 321 322 323 321 323 326 327 325 331 331 331 334 338 337 336 337
307 308 308 308 309 309 310 308 309 309 309 308 309 311 310 309 309 309 309 309 309 310 311 312 318 320 319 318 319 324 325 324 322 326 327 327 328 330 332 333 334 336 337 336 336

GFSSW_925_thetae_021.txt.gz
Theta_e
307 307 308 308 308 308 308 308 308 307 306 302 302 303 305 303 302 306 312 308 313 313 314 325 323 323 324 330 331 325 320 321 324 327 329 329 329 330 330 331 331 331 331 330 331
307 307 307 307 308 307 308 308 309 309 309 307 303 301 301 302 306 310 307 307 308 314 316 315 315 325 331 331 332 334 322 321 322 324 327 328 328 329 330 331 332 332 331 331 331
306 307 308 308 308 308 307 308 308 309 309 309 306 302 301 304 312 311 314 314 312 311 314 316 316 319 328 326 331 334 334 326 324 324 325 327 329 330 331 331 330 331 331 331 329
305 307 307 307 307 307 308 308 308 308 308 308 305 305 303 308 309 314 313 313 314 313 313 314 313 313 315 328 325 328 327 329 327 325 325 326 328 329 329 328 328 328 328 330 329
305 306 306 305 303 304 304 304 303 303 304 305 307 308 308 308 308 306 309 313 314 315 313 313 311 312 313 317 326 325 325 326 327 326 326 326 327 328 329 329 328 327 327 327 327
305 305 305 304 303 302 302 302 301 301 302 306 308 309 309 309 304 305 308 310 314 314 313 313 313 313 314 315 317 323 325 325 325 326 327 328 328 327 327 326 326 326 325 326 327
305 304 302 301 301 300 300 300 300 300 301 306 309 309 308 308 303 306 307 307 308 310 314 316 318 319 315 315 316 318 320 323 327 325 325 325 326 327 326 326 326 326 326 326 326
305 305 303 302 301 301 301 300 300 300 302 303 310 310 309 304 306 307 307 308 308 309 309 310 312 312 316 317 318 318 319 320 320 324 326 326 328 326 326 327 327 328 327 327 326
305 305 303 303 304 304 302 301 303 304 306 306 311 310 309 308 308 308 307 308 308 309 309 310 311 311 314 316 318 320 320 320 321 322 323 325 327 327 327 327 327 328 327 327 327
305 303 302 302 303 301 301 305 308 309 310 310 311 312 311 311 312 311 310 309 311 309 309 309 310 312 312 314 320 321 322 321 321 322 324 325 326 326 326 326 327 327 327 327 327
302 302 303 304 303 301 303 307 307 309 312 310 310 313 313 313 313 310 310 309 309 310 309 309 309 313 313 314 317 319 321 322 322 322 324 325 325 326 326 325 325 325 326 326 326
302 302 301 301 303 305 307 309 307 306 305 306 307 307 308 309 309 308 307 307 307 307 309 311 311 312 314 315 316 317 317 318 321 323 323 324 325 326 327 326 325 325 326 326 326
301 301 301 303 306 308 308 307 307 306 306 306 307 308 307 307 308 308 308 307 307 306 307 308 313 313 314 315 316 316 317 317 318 321 321 321 322 322 323 324 326 326 324 326 325
300 302 302 305 308 308 308 307 307 307 305 308 311 310 309 307 307 308 309 308 307 306 306 307 309 314 313 315 316 316 317 318 319 320 321 321 323 322 322 324 325 326 325 326 324
301 302 303 307 307 309 308 307 307 307 310 310 309 309 308 308 310 311 310 309 309 309 307 307 308 309 312 313 315 317 318 317 319 318 318 320 322 322 324 325 323 324 324 324 324
301 302 303 308 308 308 307 307 308 312 312 310 308 306 306 307 308 309 311 311 311 309 309 309 309 308 308 309 314 315 317 317 317 317 318 319 322 322 322 323 325 325 324 324 323
301 303 304 306 308 307 307 308 311 311 308 307 304 307 307 309 309 309 308 310 310 312 312 313 312 309 309 308 309 313 313 317 319 319 320 318 321 323 323 324 324 324 324 328 332
301 305 307 308 309 308 308 308 313 308 307 306 304 307 307 309 309 310 310 307 307 308 306 311 315 314 314 308 308 308 313 315 320 321 319 319 322 322 323 324 324 324 323 336 338
303 308 309 309 308 308 307 309 310 310 308 306 304 305 305 307 310 310 310 311 310 312 315 316 314 314 312 313 310 309 310 314 316 319 319 320 321 321 321 322 324 324 325 336 337
304 307 311 309 308 309 309 310 309 308 308 307 307 305 307 305 308 310 311 311 312 312 311 313 314 311 311 311 313 311 312 315 315 318 321 322 321 323 325 324 325 325 335 336 337
306 311 310 307 309 310 309 310 307 307 308 308 308 309 307 308 309 309 309 309 312 312 310 310 312 311 311 310 313 313 310 312 315 316 320 322 323 323 325 326 326 327 336 336 336
308 312 308 308 309 310 308 308 306 307 308 308 306 308 309 308 309 309 311 312 310 311 311 313 315 316 313 312 312 314 316 313 316 318 319 321 324 326 329 328 323 329 336 335 336
307 311 309 308 310 309 309 307 306 308 309 307 308 308 309 310 311 310 310 310 311 311 312 313 313 316 315 311 314 317 318 313 315 319 318 322 321 322 323 330 333 336 336 336 336
308 311 308 308 307 308 307 308 308 308 308 306 308 307 309 309 308 310 311 310 311 312 313 312 312 314 317 317 316 319 319 319 320 318 320 323 322 320 325 331 336 336 336 335 335
309 308 307 306 307 308 309 310 311 309 308 308 309 308 308 310 309 308 309 310 311 312 312 312 315 314 315 316 316 316 316 317 318 321 319 319 323 324 332 333 336 335 335 335 335
310 309 307 308 307 308 309 310 310 311 310 310 310 310 310 311 311 310 309 308 309 311 313 313 317 316 317 316 316 314 315 315 316 318 321 319 321 327 331 333 336 335 335 335 336
305 307 307 309 308 308 308 309 310 310 310 309 309 310 311 311 310 310 307 307 308 308 308 309 315 316 319 318 317 316 314 314 316 318 321 319 321 332 333 334 335 334 334 335 336

GFSSW_925_thetae_024.txt.gz
Theta_e
307 307 307 307 307 308 308 308 308 309 309 308 306 306 309 306 301 304 308 305 308 310 312 314 325 320 318 324 329 322 320 319 322 324 325 326 330 331 328 329 329 330 329 330 331
307 307 307 307 307 307 307 308 307 308 305 304 302 301 304 303 306 308 303 305 305 309 312 315 316 320 325 327 330 331 326 321 320 322 323 322 325 326 327 328 330 330 330 330 330
307 308 307 307 307 307 308 308 308 308 303 302 302 302 305 304 308 308 314 312 314 307 314 316 315 315 320 328 330 332 334 326 323 324 323 322 323 324 325 326 328 331 329 328 329
306 307 307 306 306 303 302 303 307 308 307 302 303 305 308 307 299 313 308 305 312 315 314 315 312 313 314 318 326 331 331 334 333 331 327 324 323 324 324 325 326 326 326 328 328
306 307 306 303 302 301 301 300 300 300 304 307 307 308 308 307 309 303 305 302 306 320 315 313 312 311 311 312 314 318 327 327 327 327 328 327 327 325 325 325 326 326 325 324 324
305 305 303 302 302 302 301 301 301 301 302 306 308 308 306 307 302 301 303 306 307 308 316 311 311 310 311 312 313 315 318 322 324 323 324 325 326 326 327 327 327 325 324 323 322
305 304 302 302 301 301 301 301 300 301 305 307 308 309 308 307 303 302 303 303 304 305 306 312 312 312 312 313 313 314 315 316 317 320 324 324 325 325 325 325 325 324 324 323 322
306 304 304 304 306 306 301 300 305 306 307 309 310 309 309 307 307 305 305 306 306 307 308 308 309 311 313 314 316 317 316 317 318 318 319 323 327 326 324 324 324 324 325 325 324
304 301 301 303 305 304 301 304 308 308 308 308 310 309 310 309 309 310 308 306 307 308 308 309 309 308 311 313 315 315 319 317 318 318 320 321 323 324 325 325 324 324 324 325 325
300 300 301 305 303 304 304 307 308 311 310 311 311 312 309 310 311 311 311 308 308 308 308 308 306 308 308 311 318 317 318 318 319 319 320 320 321 321 322 322 323 323 324 324 325
300 300 301 301 302 306 307 307 305 305 305 307 305 307 307 306 305 310 310 308 308 309 306 307 306 308 309 311 313 317 318 319 319 319 320 321 322 322 322 323 322 322 323 324 324
300 300 301 301 304 307 308 307 306 305 304 306 306 307 307 306 306 306 307 307 306 306 307 308 308 308 310 312 313 313 315 317 316 317 320 320 321 321 322 323 323 323 323 322 322
300 300 301 303 306 307 308 307 307 307 305 305 307 310 309 307 307 307 307 307 306 306 306 307 309 310 310 311 313 314 314 315 316 316 315 316 318 319 319 319 320 321 322 321 322
301 300 301 303 307 307 308 307 307 307 305 308 309 308 308 307 307 307 307 307 307 305 305 305 305 306 308 311 311 314 314 315 315 316 317 317 319 318 318 319 319 320 319 319 321
301 301 302 304 306 306 307 307 307 305 307 307 309 308 308 308 309 310 310 308 306 307 305 305 306 306 307 309 312 312 315 315 316 316 315 316 317 318 319 320 320 320 321 320 320
301 301 303 305 306 308 308 307 307 306 306 307 307 306 307 308 308 309 309 311 311 307 306 306 306 306 306 307 307 309 313 314 315 314 316 316 316 317 317 319 320 320 320 321 320
301 302 305 305 306 308 308 305 304 305 307 307 307 306 305 308 307 309 309 310 312 316 314 311 311 309 308 308 308 307 309 312 315 316 318 316 316 317 317 318 319 319 320 320 321
302 302 308 310 308 309 307 304 304 310 310 308 308 307 305 308 307 309 310 310 310 311 308 308 308 312 313 311 307 305 306 311 315 318 317 316 317 317 317 317 318 319 320 331 335
303 305 307 310 308 308 302 304 306 310 307 308 308 306 306 306 309 308 310 311 311 312 313 314 313 311 310 310 309 310 306 307 311 313 316 317 317 317 317 317 317 318 330 335 334
303 306 308 310 308 308 303 308 308 307 307 308 310 307 307 307 308 309 310 311 312 312 309 310 312 310 310 309 309 311 311 310 309 314 315 318 318 318 320 319 319 318 332 335 336
306 306 310 308 308 303 302 307 308 306 307 308 309 308 308 308 308 309 310 310 310 310 310 310 310 310 311 310 309 310 311 308 309 312 316 318 318 316 317 319 322 320 335 337 337
303 308 309 307 304 303 303 307 307 307 308 308 307 307 308 309 309 309 309 310 310 309 311 311 311 315 311 309 311 311 311 313 312 310 314 316 318 317 318 318 321 334 337 336 335
303 304 309 308 302 301 305 308 308 308 309 308 308 307 307 308 309 309 310 309 309 311 311 311 309 311 308 310 314 313 316 317 314 311 313 316 317 317 317 320 327 335 335 336 335
302 307 302 300 302 305 306 309 310 309 309 308 308 307 308 309 308 309 309 309 309 311 312 311 309 311 308 312 313 315 316 315 317 318 314 314 316 316 317 321 334 335 336 335 337
302 303 304 303 305 305 305 308 310 311 310 308 309 308 310 310 309 309 309 309 311 312 311 311 313 312 313 313 314 317 316 315 316 317 319 318 318 317 317 319 334 335 335 336 337
303 305 306 306 305 305 306 308 310 310 309 310 309 309 309 311 311 311 311 309 309 311 311 311 311 314 313 314 315 316 316 315 314 315 315 316 318 318 333 332 334 336 336 337 337
303 304 305 307 307 307 306 309 309 309 309 309 308 308 309 310 310 309 309 309 307 306 307 311 312 314 314 316 316 318 316 315 313 316 318 319 318 319 336 337 333 335 336 336 336

GFSSW_925_thetae_027.txt.gz
Theta_e
307 307 308 308 308 308 308 308 308 307 308 308 309 309 309 308 301 303 306 302 305 308 308 313 324 322 320 319 327 317 318 319 321 322 324 325 328 328 328 328 327 327 329 329 332
307 307 307 307 307 307 307 306 305 306 306 304 307 308 308 307 305 306 302 304 302 303 311 311 313 322 316 317 327 324 318 318 318 320 322 321 322 327 330 328 327 325 329 330 330
307 307 308 307 307 307 307 307 307 306 303 302 303 307 308 305 304 302 310 311 310 311 307 315 312 314 318 326 325 329 332 321 320 319 320 324 323 322 323 324 323 325 327 325 326
308 308 307 307 307 307 307 307 307 307 307 305 304 308 308 305 296 307 310 309 302 304 318 314 314 313 312 320 326 332 330 330 328 326 329 329 327 326 322 323 323 323 323 324 325
306 306 305 304 305 306 306 306 303 306 307 308 308 308 307 306 305 302 301 301 305 307 319 315 312 312 312 312 315 319 326 328 327 328 330 332 333 331 328 324 324 323 324 324 323
304 301 300 301 302 304 301 300 300 302 306 308 308 308 307 308 304 303 302 303 303 304 306 314 311 311 311 311 315 314 318 318 320 323 324 325 325 325 325 325 325 325 325 323 322
304 305 304 303 304 301 300 303 305 305 307 309 309 308 307 308 306 306 306 306 305 303 304 306 313 311 310 312 311 313 313 315 315 315 318 322 323 324 324 324 324 324 322 321 321
305 304 302 301 304 305 305 305 307 308 308 310 310 308 309 308 309 308 308 308 307 305 305 306 307 308 311 311 314 315 313 314 316 316 316 319 324 323 323 323 324 323 323 323 321
304 303 301 301 304 305 306 307 307 309 308 309 310 308 310 309 310 308 309 308 307 306 307 308 307 307 310 311 313 314 318 316 316 317 318 318 323 322 321 322 324 324 323 322 323
303 303 300 300 301 304 307 307 306 307 308 310 311 308 306 305 305 306 306 306 307 306 307 306 305 306 306 310 317 317 317 318 318 316 318 318 319 320 320 320 321 320 320 320 320
303 301 300 301 302 306 307 307 305 303 305 305 305 305 305 306 306 306 306 306 306 307 307 305 305 307 309 310 312 312 315 317 317 316 317 318 318 319 318 319 319 320 320 321 321
302 300 300 301 303 307 307 306 306 305 304 305 305 305 305 307 308 308 306 306 306 305 305 306 307 308 308 309 310 310 312 313 315 316 316 317 319 318 318 319 320 320 320 320 320
301 300 300 303 305 307 307 307 307 306 304 305 305 308 306 307 307 307 306 306 306 305 305 306 307 308 308 309 310 310 312 313 314 315 315 314 316 315 316 318 319 319 319 319 319
301 300 301 303 306 307 307 307 307 305 303 306 307 308 307 306 307 308 307 306 306 305 304 304 304 305 306 307 308 308 311 313 314 314 315 314 317 315 315 315 316 317 316 315 317
301 301 302 303 305 306 307 308 307 303 302 306 307 306 306 306 307 309 309 309 308 307 305 304 305 305 305 306 307 309 310 312 313 314 313 314 314 315 314 315 315 316 315 317 317
301 301 303 304 305 307 307 308 305 302 301 307 306 307 307 306 307 308 309 309 310 312 306 305 305 305 304 305 307 308 311 310 311 312 314 314 315 315 314 315 315 316 316 317 316
302 302 303 306 306 308 307 303 303 304 307 308 308 307 307 306 306 308 309 310 312 313 313 310 306 306 306 305 306 307 305 310 313 314 317 314 315 315 315 315 315 315 315 315 315
304 304 304 308 308 308 306 302 303 309 309 307 308 307 305 305 306 308 308 310 311 312 312 313 311 308 312 308 308 304 304 308 315 316 314 314 316 315 314 314 315 315 314 314 319
306 307 307 309 309 308 300 304 305 309 308 307 308 307 305 306 307 307 307 311 312 312 313 313 312 310 310 310 309 310 305 305 306 310 311 314 314 315 315 315 315 314 314 317 326
306 307 309 310 308 306 302 307 307 307 307 307 309 307 307 306 307 306 309 310 311 311 309 310 311 309 310 309 308 308 309 306 305 311 314 314 315 316 316 316 316 315 315 321 332
305 305 308 307 308 301 302 305 307 307 306 309 309 308 307 308 308 307 309 309 309 310 309 309 309 309 310 308 306 309 311 309 306 308 313 315 316 314 315 315 315 315 316 330 334
301 306 309 306 303 300 301 306 307 307 308 309 308 307 307 308 308 308 309 310 308 309 310 310 310 313 310 308 308 309 310 311 309 309 309 312 313 314 313 313 314 324 324 334 334
302 302 307 305 300 299 302 306 307 309 309 309 309 308 307 307 308 309 309 308 307 310 311 310 308 310 307 311 312 311 313 311 314 312 315 311 313 313 313 313 319 328 335 335 336
303 305 300 298 300 304 305 307 309 308 309 309 309 308 308 308 307 308 309 308 308 310 312 310 307 309 308 309 310 312 314 315 315 315 315 314 312 312 312 315 315 334 334 335 337
300 303 302 302 303 304 305 305 308 308 309 308 309 309 310 312 310 309 308 309 309 311 311 309 311 310 310 311 312 313 314 315 315 315 317 316 316 314 315 316 316 330 333 336 337
300 301 302 302 305 306 306 307 308 308 308 309 311 309 308 309 309 311 310 309 310 309 310 311 310 312 311 311 310 316 313 314 315 315 314 315 315 315 316 326 332 332 336 338 337
301 301 303 302 303 304 305 307 308 308 308 309 309 310 309 308 308 308 308 308 309 309 309 310 310 311 310 309 312 315 314 314 315 313 313 315 315 316 318 321 333 334 336 337 337

GFSSW_925_thetae_030.txt.gz
Theta_e
307 307 308 308 308 307 307 307 307 308 308 308 309 308 307 302 300 301 304 301 302 303 303 305 321 321 321 323 323 314 318 318 320 322 322 322 324 325 326 328 326 327 327 328 329
307 308 307 307 307 307 307 307 307 304 306 308 308 308 308 306 306 306 302 305 307 306 311 311 314 322 316 315 326 319 317 317 317 319 322 321 321 321 323 322 325 326 326 327 327
307 306 307 306 307 307 307 307 307 307 308 308 308 308 308 305 302 299 310 310 303 303 306 312 314 315 318 319 320 327 325 316 315 318 319 320 321 323 324 324 323 323 323 323 323
306 306 306 306 306 306 307 307 307 307 307 308 308 308 307 305 297 306 313 306 302 310 316 315 313 312 312 322 323 329 329 326 323 322 323 322 325 326 326 324 322 321 321 321 322
305 306 306 306 306 306 306 306 306 306 308 308 308 307 305 304 303 303 304 303 305 304 313 317 312 313 311 312 319 328 326 329 329 329 328 330 332 332 331 329 325 325 324 323 321
305 305 304 305 302 301 303 305 306 307 310 309 308 307 306 306 305 306 307 307 307 306 303 311 312 310 310 310 316 314 319 321 323 323 324 326 326 324 325 325 325 325 324 322 321
303 304 300 300 302 301 305 306 306 308 308 309 309 308 306 305 307 309 309 308 307 307 303 304 312 312 309 311 310 311 313 313 314 316 319 322 323 324 324 324 324 323 323 322 322
304 303 300 300 300 301 305 307 306 306 308 308 309 308 306 306 308 308 308 308 306 306 305 304 304 307 309 309 312 314 311 315 315 313 315 320 323 323 323 323 324 323 323 322 320
304 303 300 299 300 302 305 307 306 306 308 309 309 307 308 306 308 307 306 307 306 306 305 305 305 305 308 309 311 313 315 313 314 314 316 318 322 321 322 320 321 320 320 320 321
304 302 299 299 301 304 306 307 305 306 309 310 310 307 306 306 306 306 306 306 306 305 305 305 304 305 305 309 313 313 315 317 316 315 316 317 318 319 319 320 320 319 319 319 318
303 303 300 300 302 305 307 306 304 303 304 305 305 305 304 305 306 307 307 306 305 305 306 304 304 305 308 310 311 310 312 315 315 315 316 316 317 317 316 316 317 317 318 319 319
303 303 301 300 303 306 306 305 305 305 303 304 304 304 305 305 307 307 306 305 305 305 304 303 304 305 307 308 309 309 309 310 312 313 314 314 314 314 314 315 316 317 317 316 316
301 303 303 301 304 307 306 306 307 305 303 304 304 305 306 305 306 306 305 305 305 305 304 304 305 306 307 307 308 309 309 310 312 313 313 313 315 315 314 313 314 315 315 316 317
301 304 303 302 305 305 306 306 307 305 302 304 306 306 306 305 306 307 306 305 306 305 304 303 303 304 305 307 307 307 310 311 313 313 315 313 316 314 314 314 313 313 314 315 315
301 303 303 302 304 305 307 307 307 302 299 304 306 306 305 305 306 307 309 306 307 307 307 306 304 304 304 304 306 307 308 308 309 311 312 313 313 314 312 312 312 313 313 313 313
302 303 303 304 305 306 306 307 304 302 299 307 306 306 306 306 305 306 307 308 309 311 310 308 305 304 304 304 305 306 308 309 310 310 312 311 313 313 312 312 312 312 312 312 312
302 305 304 304 305 308 307 301 302 302 305 307 306 306 306 306 305 307 306 308 312 314 313 311 306 306 305 304 304 305 306 309 311 312 312 311 312 312 311 312 312 312 312 312 312
305 306 304 305 308 308 304 299 300 308 307 307 306 306 306 304 305 306 306 310 311 312 313 314 310 308 308 305 304 303 303 308 314 314 309 313 314 313 312 312 312 312 311 310 310
306 308 307 308 309 307 299 302 303 306 307 307 307 308 305 305 306 305 305 308 310 311 312 314 313 311 311 310 308 307 304 304 305 307 308 311 311 312 313 313 312 312 312 311 310
305 306 308 308 307 305 302 307 305 306 307 306 308 307 306 305 306 306 306 308 309 310 309 310 311 310 311 311 309 307 307 305 302 308 312 311 311 313 313 313 314 313 312 312 316
304 304 307 306 306 301 301 304 306 306 307 309 309 310 307 307 306 306 307 308 309 309 308 308 308 308 309 308 305 308 308 309 303 306 311 314 312 311 312 312 312 312 316 324 325
301 306 306 305 302 296 299 304 306 307 308 309 308 309 308 307 307 307 308 308 307 309 310 309 309 312 310 307 307 307 309 309 309 309 306 309 309 309 310 311 311 314 331 331 333
303 302 306 303 298 297 301 305 306 308 308 309 309 309 308 308 310 308 308 308 307 308 309 309 308 309 307 311 309 310 311 309 310 311 311 310 309 309 309 312 312 313 331 333 334
303 303 300 297 298 303 306 305 307 307 308 308 308 308 309 308 308 309 308 308 307 308 310 309 306 307 306 308 309 311 311 311 314 314 310 310 311 311 311 312 313 317 327 334 336
297 301 302 300 299 301 305 306 306 309 308 308 308 309 311 309 309 309 308 308 308 309 309 307 309 308 309 309 310 311 312 312 312 314 316 314 315 314 312 313 313 319 324 335 337
295 298 299 298 300 302 303 305 307 308 307 308 308 308 309 310 309 310 310 310 311 309 309 308 310 309 309 309 310 312 310 311 311 312 313 314 314 312 312 312 315 322 330 337 337
299 298 298 299 299 300 300 306 305 305 307 307 308 309 309 308 308 308 307 307 309 310 309 310 311 309 308 308 309 308 307 308 309 312 312 315 312 311 313 316 318 327 331 336 337

GFSSW_925_thetae_033.txt.gz
Theta_e
307 306 307 307 308 307 308 308 308 308 308 308 308 308 303 300 300 305 305 302 303 302 303 304 310 319 323 327 322 318 321 321 319 319 319 323 325 327 326 330 328 329 331 330 331
306 307 307 307 307 307 307 307 308 308 308 308 308 308 307 306 307 306 310 310 305 306 311 310 308 319 324 323 328 322 324 322 319 319 321 320 323 325 326 327 327 329 328 327 327
306 306 307 306 307 307 307 307 307 307 308 308 308 308 308 307 305 302 315 311 303 305 311 312 312 314 320 318 326 327 325 322 320 318 320 321 321 322 325 326 327 328 326 326 326
305 306 305 304 305 306 306 306 306 308 309 310 309 308 307 305 301 308 312 307 307 307 314 317 314 311 314 321 321 323 325 325 323 319 319 319 319 320 321 323 325 326 328 327 327
305 304 302 299 300 300 303 305 306 307 310 310 308 307 305 307 305 304 307 308 307 307 305 314 312 312 312 314 319 323 322 324 325 325 322 323 325 325 327 327 329 330 330 330 329
305 304 301 299 299 300 303 306 306 306 309 308 308 307 306 306 304 306 308 309 307 306 306 308 315 311 313 313 315 318 321 322 323 328 329 329 329 329 329 328 328 328 328 328 327
305 305 304 303 301 301 303 306 306 306 307 307 308 308 307 307 304 306 308 308 308 306 307 306 305 313 312 312 313 314 316 318 321 323 326 327 329 329 327 327 327 327 327 327 327
304 304 304 303 300 301 304 306 306 306 308 308 309 308 309 306 306 307 307 307 307 305 306 306 304 306 314 313 312 314 315 317 318 317 320 322 325 325 324 324 325 325 326 327 327
304 304 303 304 303 303 306 307 305 306 308 309 309 309 309 306 307 306 306 307 307 306 306 306 306 306 310 314 314 314 316 317 317 318 318 320 323 323 323 324 326 327 327 326 326
304 304 303 303 302 304 306 304 306 308 310 309 310 309 307 307 306 306 307 307 307 307 308 307 307 309 309 314 316 314 315 315 317 317 318 319 321 322 323 323 324 325 325 325 325
303 304 304 302 302 305 305 306 307 307 306 306 306 306 306 305 306 307 307 307 307 307 309 307 307 307 309 311 313 314 314 316 316 317 318 319 320 321 320 321 322 322 323 323 324
303 302 304 300 303 306 306 307 307 306 308 306 306 305 305 305 306 307 306 307 306 307 307 307 307 307 307 308 311 313 313 314 314 315 316 319 320 319 319 319 320 321 321 321 322
300 303 303 300 304 306 306 306 306 306 307 307 306 305 307 306 306 306 307 307 307 306 307 309 308 306 307 308 310 311 313 314 314 315 315 316 319 319 319 319 319 319 320 320 322
298 305 305 301 305 304 306 306 306 304 309 305 307 306 306 307 307 306 307 308 307 307 306 307 308 306 307 307 309 311 311 312 314 315 318 316 319 319 319 319 318 319 319 320 320
299 304 305 305 304 306 306 306 305 303 306 305 306 306 306 306 306 305 307 308 309 309 309 309 307 306 307 307 307 309 310 310 311 312 314 315 317 317 317 317 318 319 318 319 320
299 304 303 303 304 305 307 306 304 306 304 306 306 306 307 306 305 306 307 307 309 310 310 310 309 308 307 306 306 307 309 310 311 312 314 314 315 317 316 317 317 317 317 318 318
302 306 303 304 306 307 306 304 307 306 305 307 307 307 307 306 305 306 307 307 312 313 313 311 311 310 309 307 307 307 308 310 311 314 315 313 314 316 316 316 316 317 317 318 319
304 307 304 305 307 307 302 304 305 306 307 307 307 307 308 305 306 306 307 307 310 313 316 316 315 308 309 308 307 307 308 310 309 311 312 311 314 315 315 316 317 316 318 319 320
304 307 307 308 308 306 306 308 306 307 307 308 308 308 307 305 307 307 307 307 309 311 312 315 312 310 311 311 308 308 308 309 310 311 311 311 312 313 313 315 316 317 320 324 325
304 305 307 306 306 304 307 308 307 306 307 308 309 309 309 308 308 307 307 307 308 308 310 311 313 310 310 310 311 310 309 309 309 310 311 312 312 313 314 314 317 319 323 327 336
303 310 306 305 305 307 310 307 307 306 307 309 309 309 309 310 308 308 307 306 309 308 309 310 311 309 309 310 312 312 312 310 310 310 312 314 315 316 317 316 317 317 322 333 337
303 310 305 304 308 303 307 306 305 307 308 308 310 310 310 309 309 309 308 307 308 308 309 310 313 312 308 308 309 309 310 312 313 311 310 311 313 315 316 315 316 316 317 327 336
304 305 304 302 309 307 305 305 305 307 308 308 310 309 309 310 311 310 308 307 307 308 309 310 311 311 308 312 311 310 310 312 314 313 314 312 312 314 314 314 316 316 316 320 336
305 307 305 303 302 304 305 306 305 306 308 309 309 309 310 309 309 311 309 308 307 308 309 310 311 310 311 309 310 311 311 311 312 315 313 313 313 313 313 315 315 316 317 321 337
300 304 303 305 302 301 303 305 306 307 308 307 309 309 312 312 309 310 308 309 308 308 310 310 311 310 310 310 310 310 310 311 311 311 314 313 313 313 314 316 315 316 318 319 332
301 302 301 302 301 304 304 305 306 307 305 306 308 308 309 309 309 310 309 309 312 310 311 311 313 310 310 309 308 308 308 309 310 311 312 312 313 313 314 314 315 315 316 319 329
299 298 301 302 302 303 304 304 303 303 304 307 307 308 308 308 308 308 308 309 309 310 310 312 313 312 310 308 308 310 309 309 309 310 311 312 311 311 313 315 316 319 322 323 330

GFSSW_925_thetae_036.txt.gz
Theta_e
306 307 308 308 308 307 307 308 308 307 305 303 304 304 304 302 303 308 308 305 306 306 305 310 309 320 323 328 326 325 327 327 324 323 321 321 322 324 328 332 332 333 335 334 339
307 307 307 307 307 307 306 306 306 307 307 307 307 308 306 305 310 311 311 309 305 305 311 310 310 316 322 324 327 327 329 328 326 324 320 320 323 324 328 332 333 332 332 331 337
306 306 307 307 306 305 304 304 306 306 309 308 309 308 307 307 309 311 312 315 309 307 310 311 312 312 321 324 324 328 328 328 328 326 322 321 322 323 325 330 333 333 332 330 330
306 306 306 306 306 305 303 305 306 306 307 306 306 306 306 309 308 308 309 308 308 308 309 314 315 313 316 321 324 326 328 328 327 326 322 321 322 323 323 324 330 329 329 329 331
306 306 306 306 305 301 302 304 306 306 306 306 306 307 310 310 307 306 307 310 309 309 308 309 315 315 314 317 320 324 324 326 327 327 326 323 322 324 324 324 324 325 325 329 331
305 305 305 305 303 300 302 304 306 307 306 307 307 307 310 309 307 308 309 309 310 310 309 309 312 314 315 316 317 319 322 324 325 325 326 327 328 327 328 328 329 330 331 330 329
305 305 304 304 304 301 303 305 307 306 306 307 308 310 312 309 308 309 310 310 309 309 311 310 309 312 315 315 316 316 318 319 321 324 325 326 329 329 328 329 331 331 331 330 330
305 304 304 304 301 302 304 306 306 306 307 308 308 311 312 309 309 309 309 310 310 309 309 309 308 309 310 314 316 315 316 318 320 321 322 324 329 329 328 329 330 330 330 330 330
304 304 304 302 300 302 305 304 305 307 308 309 313 312 310 308 308 308 308 310 309 309 309 309 308 309 308 311 315 316 317 318 318 320 321 323 327 327 327 328 329 329 328 329 329
303 304 305 304 301 304 305 305 305 310 311 311 311 313 309 308 307 307 308 309 310 310 310 311 310 310 310 309 313 314 317 316 317 319 320 321 323 323 325 326 327 328 328 328 329
302 303 304 303 301 305 307 309 311 311 309 310 310 309 308 308 307 307 308 309 310 310 311 311 311 310 310 310 310 312 315 317 317 318 319 321 321 322 323 324 325 326 327 328 328
300 302 304 305 302 306 308 309 309 309 310 309 309 309 308 308 308 308 308 309 309 310 309 310 311 311 309 309 310 311 314 317 317 317 319 320 321 321 322 323 324 325 326 326 326
300 304 305 305 304 308 308 308 308 308 311 309 308 308 308 307 308 308 307 308 309 309 309 309 310 310 309 309 309 310 311 314 316 317 319 320 321 322 322 323 323 323 324 324 324
301 304 305 303 307 308 309 308 308 308 312 308 308 309 307 308 308 307 307 308 308 309 309 310 308 309 310 310 309 310 310 311 313 316 318 319 322 321 321 322 322 323 323 323 324
301 303 303 302 308 310 309 308 308 308 311 306 308 307 308 308 307 307 307 308 308 309 310 310 310 310 310 310 309 309 310 310 313 315 316 317 319 320 321 321 322 323 322 323 323
302 306 303 304 308 309 309 308 308 312 311 307 307 308 308 308 307 307 307 308 308 310 311 311 311 312 312 310 309 309 309 309 313 315 318 318 319 320 320 320 321 321 321 321 321
302 306 306 306 310 308 308 309 312 311 308 308 308 309 309 308 308 308 308 307 308 312 310 311 312 312 312 311 310 309 309 310 311 315 316 316 317 318 320 319 319 319 320 321 321
303 307 305 308 309 309 309 309 310 308 308 308 309 309 309 308 308 309 308 307 308 311 312 314 312 314 311 311 310 310 309 309 311 313 313 314 317 317 317 318 318 318 320 321 322
305 310 310 309 309 308 311 310 309 309 308 309 309 309 309 309 309 309 309 308 309 310 313 313 312 310 312 313 311 311 312 311 310 310 315 313 315 316 317 317 319 319 323 326 330
306 311 311 307 308 309 310 308 308 308 308 309 311 309 311 309 310 309 309 308 308 308 309 310 314 310 312 310 311 312 310 316 311 314 313 313 315 316 317 316 317 319 323 325 336
308 312 308 306 308 310 310 306 307 307 308 309 310 310 310 310 310 309 309 308 308 309 309 309 311 311 310 311 311 311 314 315 315 311 311 314 315 316 317 319 320 320 321 322 334
308 311 308 306 310 309 308 305 305 308 309 309 310 311 311 310 310 310 310 310 309 308 309 309 312 312 310 309 310 311 314 315 322 315 312 315 318 319 320 319 320 320 320 321 334
307 309 308 306 310 307 304 305 307 308 309 309 309 309 310 310 312 310 310 309 308 309 310 311 311 312 310 313 312 311 310 311 313 316 321 314 317 319 318 317 318 319 319 320 327
306 310 309 306 306 305 306 306 307 307 308 309 309 309 310 310 310 311 311 309 309 309 310 310 313 312 313 311 310 311 311 311 312 315 314 315 316 317 318 317 317 319 318 318 321
304 307 307 309 309 307 307 306 306 308 308 309 309 309 310 311 311 311 309 309 310 309 311 311 315 312 311 311 310 310 310 310 311 312 313 313 315 315 316 316 317 318 316 317 320
307 306 306 308 306 308 307 306 306 306 306 306 308 309 309 310 310 311 310 311 312 311 311 312 316 313 313 311 310 310 309 309 309 310 312 312 312 313 313 313 314 315 316 317 320
301 299 301 306 306 306 307 306 307 307 306 306 307 308 309 309 309 310 310 310 311 310 310 313 312 314 315 311 311 311 310 309 309 310 311 312 311 312 312 313 314 314 316 319 319

GFSSW_925_thetae_039.txt.gz
Theta_e
307 308 308 308 308 308 308 306 304 305 306 306 306 306 306 305 305 312 313 308 307 304 307 310 312 313 322 324 327 328 330 330 329 327 325 325 325 325 328 328 332 335 337 338 339
307 307 308 308 308 308 306 304 306 306 307 308 307 306 305 306 313 313 309 310 310 307 311 312 314 315 321 324 327 330 332 331 329 328 326 325 324 325 325 328 333 335 335 337 341
307 307 307 307 307 307 304 304 306 306 307 307 306 305 305 308 315 316 310 310 308 309 311 312 313 316 317 323 325 328 332 330 330 329 328 327 324 325 325 328 332 335 335 336 341
306 307 307 307 307 305 302 303 305 306 306 306 306 306 307 314 314 311 307 309 309 311 310 313 316 315 316 318 323 326 327 329 330 329 329 327 325 325 326 326 327 334 335 334 335
306 306 306 306 305 303 301 303 305 306 306 306 306 307 313 316 311 309 309 311 312 311 311 311 313 317 317 317 319 324 325 326 327 328 329 329 327 326 326 326 327 330 333 333 332
306 306 306 306 304 300 301 303 305 306 306 305 307 308 316 315 309 310 310 311 311 312 312 312 312 314 316 318 318 319 322 323 324 325 327 329 330 329 328 326 327 326 327 330 331
305 305 305 305 302 300 301 304 306 306 305 305 307 312 316 311 310 310 311 311 312 311 312 312 312 312 314 317 317 318 319 319 321 323 325 326 328 328 329 329 329 328 328 328 330
302 302 304 305 304 301 303 305 305 304 305 307 307 315 317 309 309 309 309 310 310 311 311 311 311 312 312 312 314 316 318 319 320 321 322 323 327 327 327 329 330 330 331 331 332
297 299 301 304 301 302 304 305 305 306 307 307 315 316 315 309 310 308 308 310 309 310 310 311 312 312 312 311 311 313 317 319 318 319 320 322 325 325 326 327 330 331 330 331 332
300 299 299 302 301 302 305 308 309 309 313 314 313 314 314 310 309 308 309 309 310 311 312 312 314 313 313 312 311 312 313 316 317 318 319 320 322 323 324 326 327 329 330 331 331
305 303 302 304 301 304 308 313 315 317 312 311 312 311 310 309 309 309 309 309 311 311 312 313 314 315 314 313 313 313 312 313 316 318 319 319 321 322 323 324 325 328 329 331 331
305 306 305 305 302 305 309 312 311 310 312 312 311 310 309 309 309 310 308 309 310 311 311 311 312 312 313 313 312 311 313 314 314 315 319 320 321 321 323 323 324 325 327 329 329
305 306 305 305 303 309 310 311 310 310 313 312 310 310 310 309 310 309 309 309 309 310 310 311 311 311 311 311 312 311 312 312 313 315 317 320 321 322 322 322 323 323 324 326 327
305 303 305 302 309 309 312 310 310 310 314 312 310 310 309 310 310 309 308 309 309 310 309 310 310 310 310 310 311 312 312 311 312 313 315 318 323 322 322 323 323 324 324 325 326
305 303 304 304 311 312 311 310 310 311 319 310 310 309 310 310 310 310 308 308 310 310 309 309 310 311 311 311 312 311 311 311 311 312 314 314 318 319 321 323 323 324 324 325 325
305 304 304 306 312 311 311 310 311 318 317 310 310 310 310 311 311 310 310 310 310 309 310 311 312 313 311 312 312 313 311 311 312 312 314 314 317 318 320 321 322 323 324 324 324
305 306 308 310 314 310 310 311 317 316 311 311 310 311 311 312 310 310 310 310 309 309 310 311 311 313 313 315 313 312 311 311 311 312 313 314 318 318 319 320 321 322 323 324 324
305 307 309 311 312 311 311 315 316 311 310 311 311 311 312 310 310 310 310 310 308 311 312 312 315 312 311 315 315 314 311 311 311 311 311 313 315 317 319 321 321 321 321 321 324
307 312 312 313 312 310 313 316 314 312 309 310 311 312 312 311 310 310 310 309 308 309 312 313 313 310 311 314 312 314 313 313 315 314 315 313 314 317 317 319 320 321 322 323 325
308 312 314 311 311 311 315 315 311 309 309 310 313 312 312 311 311 310 311 310 309 309 309 310 311 310 312 313 313 313 315 318 316 314 313 313 315 317 316 318 320 321 324 325 325
310 312 311 309 309 314 316 312 309 308 308 311 312 312 312 311 312 311 311 310 310 309 310 309 311 311 311 312 315 314 315 315 318 316 315 313 317 317 319 318 320 321 323 324 330
310 314 311 307 312 314 313 308 305 309 310 311 311 311 312 311 311 312 312 311 311 310 310 311 313 313 311 311 313 311 311 314 317 315 318 317 316 317 321 323 321 322 322 323 334
311 311 310 308 316 314 312 310 307 309 310 311 311 310 311 311 312 313 312 310 310 311 311 315 313 315 312 310 315 315 314 314 315 316 320 322 322 320 322 322 322 322 321 321 325
309 312 311 309 309 311 313 312 309 308 309 310 311 310 311 312 312 312 311 311 311 312 312 311 315 314 314 311 314 315 314 313 317 318 317 317 316 317 318 320 320 320 320 319 323
309 311 309 310 311 310 311 312 310 309 309 309 309 310 310 313 312 312 312 312 311 312 313 312 315 313 313 312 311 311 311 310 311 311 313 313 312 315 317 319 319 318 317 319 321
309 308 307 308 310 309 309 312 311 309 310 310 310 310 309 311 311 312 311 313 315 313 314 313 317 314 313 312 312 311 311 310 310 310 310 310 311 312 313 315 315 316 316 317 321
303 302 305 306 310 309 309 309 309 308 309 309 309 310 311 311 311 312 312 313 314 313 314 315 314 314 315 312 312 314 311 310 310 310 310 310 311 312 313 314 315 316 316 317 319

GFSSW_925_thetae_042.txt.gz
Theta_e
308 308 308 309 308 308 307 306 307 307 307 308 308 306 305 305 305 312 316 310 310 306 304 310 311 314 315 318 323 325 330 332 330 329 328 327 326 326 327 326 327 330 334 338 338
307 308 308 308 308 307 305 303 305 307 306 306 306 306 306 307 312 315 311 307 307 306 311 312 314 315 316 318 322 324 329 330 329 329 329 328 327 326 326 325 328 329 334 337 338
307 307 308 308 308 306 302 301 304 305 306 306 306 305 306 309 319 316 309 308 308 307 311 313 312 315 316 317 320 324 328 328 329 329 329 329 328 327 325 325 326 329 334 336 339
307 307 307 307 307 303 301 301 302 304 305 306 306 305 307 314 317 314 308 309 311 312 313 312 313 314 315 318 317 321 324 326 328 329 329 330 330 329 327 325 326 328 332 335 336
306 306 307 306 303 300 300 300 302 304 305 306 305 306 314 321 316 310 310 312 312 314 313 313 312 314 317 316 318 318 320 323 324 325 326 328 329 329 328 327 327 327 328 335 336
303 305 305 305 303 300 300 301 303 305 305 304 305 307 316 320 311 311 312 312 313 312 313 313 314 313 312 314 317 318 318 319 321 323 325 326 327 329 330 329 328 327 328 334 334
303 301 302 302 302 301 300 302 304 304 304 304 306 313 316 317 311 311 311 310 311 312 313 312 313 313 314 313 315 317 317 318 319 319 322 324 325 327 329 330 330 330 328 328 335
304 305 306 304 302 301 301 303 305 305 304 305 307 313 319 311 309 310 309 310 310 310 311 312 312 313 313 313 313 313 315 318 318 319 320 320 324 325 326 328 330 330 331 330 330
305 306 305 302 301 301 302 304 306 307 306 307 312 316 317 311 311 310 309 310 310 311 311 311 312 312 313 313 313 313 312 313 315 318 319 320 322 323 324 325 328 329 330 331 331
307 306 305 305 303 301 303 306 310 308 313 315 315 315 315 313 311 309 310 310 310 312 313 313 313 315 315 314 312 313 313 313 313 314 316 319 321 322 323 323 325 327 329 330 333
306 305 303 304 304 302 305 313 316 318 316 316 313 313 313 311 310 310 310 310 311 312 313 313 313 314 315 316 315 315 314 314 315 315 315 316 320 321 323 323 323 326 328 328 329
305 305 304 304 304 303 306 315 312 311 312 312 312 312 311 310 310 311 310 310 310 310 311 312 312 313 313 313 314 314 314 314 314 314 315 316 317 319 322 322 324 326 326 327 330
304 305 304 304 302 304 313 312 311 311 313 313 313 311 311 311 310 311 311 310 310 310 311 311 311 311 312 312 312 313 314 314 313 313 313 314 316 319 319 323 323 324 326 328 328
304 305 304 303 308 312 314 312 311 311 314 314 311 311 310 310 311 311 310 309 309 310 310 311 310 310 310 311 311 311 311 312 313 313 312 313 316 319 319 322 323 323 325 326 327
303 304 304 302 310 314 312 311 311 312 324 313 311 311 310 311 311 313 311 310 310 310 310 310 310 311 312 311 312 312 312 313 312 313 313 312 313 315 317 319 322 325 325 326 326
304 305 305 310 310 313 311 311 314 321 323 312 311 311 311 312 312 312 311 311 311 311 311 310 311 312 313 313 314 314 314 314 313 314 314 312 313 315 316 318 319 322 325 325 326
305 306 305 310 314 312 311 313 318 321 313 312 312 311 312 312 312 311 310 311 311 310 310 310 311 312 314 314 313 316 315 317 314 315 314 312 313 316 316 316 317 320 323 324 325
305 307 309 308 312 312 311 316 320 316 315 312 311 311 313 313 312 311 310 311 310 309 309 310 311 312 313 312 313 314 318 321 315 312 311 312 313 314 315 316 318 320 321 323 325
305 313 312 313 313 311 313 318 318 313 312 310 311 313 313 312 311 311 311 311 310 309 310 310 311 310 310 311 313 315 312 316 318 317 319 312 311 312 314 316 316 320 321 324 324
307 313 314 314 312 311 314 318 315 311 310 310 311 313 313 312 311 312 312 312 311 312 310 311 312 310 310 310 314 316 313 316 319 321 315 313 311 312 314 317 316 319 323 323 326
310 316 314 312 310 313 319 316 312 310 308 310 312 313 312 312 313 312 311 312 312 312 312 312 311 313 313 312 311 314 315 315 317 317 316 316 314 316 322 321 319 320 322 325 325
311 314 313 309 311 317 316 312 307 310 310 311 312 312 312 312 312 311 311 312 312 311 313 313 315 315 312 311 311 312 312 317 313 315 316 315 317 318 318 316 315 316 324 323 326
313 313 312 310 317 314 312 313 312 310 310 310 311 312 312 311 312 313 314 313 312 313 315 315 314 315 312 311 314 315 315 314 316 318 318 319 317 316 316 314 315 318 322 322 323
313 314 313 311 312 314 313 312 313 312 310 311 311 311 311 312 311 313 313 312 312 313 312 312 315 315 316 313 314 316 314 314 315 319 318 317 317 317 316 315 316 317 319 320 322
313 312 311 310 310 312 311 311 313 314 311 311 311 310 311 314 312 312 312 312 313 313 314 313 316 314 313 312 312 314 315 314 314 313 314 311 311 313 317 315 315 315 318 318 320
308 309 308 308 311 312 311 311 311 312 311 311 310 311 311 311 312 313 313 313 316 314 316 315 319 315 315 312 311 312 311 311 311 310 310 310 310 311 313 314 315 317 316 317 318
306 305 305 308 311 311 311 310 309 309 309 310 310 310 311 311 312 311 313 314 315 316 314 315 317 316 317 312 315 316 312 314 312 311 310 309 312 314 311 313 316 315 316 317 317

GFSSW_925_thetae_045.txt.gz
Theta_e
308 308 308 308 308 308 308 303 303 304 305 305 305 305 305 306 306 309 312 313 311 309 307 307 310 311 313 314 315 321 322 332 332 330 329 328 326 326 325 323 324 325 327 337 340
308 308 308 308 308 308 304 301 301 303 304 305 305 305 305 306 311 314 313 309 307 306 307 311 312 312 311 313 313 319 322 324 327 328 328 327 326 326 327 323 323 324 328 338 338
307 307 308 308 308 306 303 302 301 301 303 304 305 305 305 308 316 314 309 307 310 308 306 311 312 310 312 312 314 318 322 322 323 325 326 328 328 328 329 325 323 323 324 333 336
305 306 307 306 307 304 301 300 300 301 303 304 305 305 305 314 319 315 309 311 311 311 314 314 311 309 312 312 313 314 317 321 322 322 323 325 326 327 327 327 324 324 324 325 328
305 304 303 302 302 302 301 300 300 301 303 304 304 305 308 318 318 310 311 312 312 313 316 315 311 310 310 312 312 313 315 316 319 322 323 324 324 324 325 326 327 326 326 325 325
305 305 306 303 301 301 301 300 301 302 304 304 304 306 316 320 311 312 311 312 313 313 312 311 311 311 311 310 309 310 312 314 315 316 317 321 323 324 324 325 327 327 326 325 324
307 307 307 304 300 300 301 300 302 303 305 304 304 312 314 313 311 311 311 310 310 311 312 312 312 311 310 311 311 311 310 312 314 315 316 317 318 321 323 324 325 328 327 326 324
309 309 309 307 304 301 301 301 302 304 306 306 306 312 314 315 310 310 309 309 310 310 310 310 311 311 311 310 311 310 310 310 313 314 316 315 317 318 318 321 324 326 327 327 326
309 308 306 307 306 304 302 301 303 305 308 306 312 313 316 313 311 310 309 310 310 310 311 311 311 310 310 310 309 310 309 309 310 311 313 314 316 317 318 319 321 323 325 327 326
304 304 306 306 306 304 302 303 310 312 312 313 314 315 316 315 311 310 310 310 310 310 312 311 310 310 309 310 311 309 309 310 311 311 311 310 312 315 317 318 320 320 321 326 326
301 304 305 305 304 304 302 310 314 315 313 318 319 317 313 311 311 310 310 310 310 309 309 309 308 308 310 311 312 312 313 314 314 313 312 311 312 313 314 314 317 319 319 321 325
304 303 305 305 303 302 303 311 310 310 310 311 312 311 311 311 310 311 311 310 310 308 308 308 308 310 310 310 311 311 311 311 313 314 312 312 312 312 313 313 315 317 319 319 323
305 304 305 303 303 303 307 314 311 311 310 311 313 312 311 310 310 311 311 310 309 308 309 308 309 310 310 309 309 309 310 310 311 312 312 312 312 311 312 313 314 316 318 320 320
307 305 304 303 310 311 313 312 311 310 311 315 312 311 310 310 310 311 311 309 309 308 309 309 309 309 309 310 310 309 311 312 313 311 310 312 312 311 311 312 313 314 316 316 317
306 306 305 304 304 310 311 311 312 312 324 314 311 310 310 309 311 312 311 310 309 309 309 309 309 309 310 312 313 313 313 314 314 313 312 311 310 311 311 312 312 312 313 315 317
305 306 305 312 311 314 312 311 312 319 324 311 311 311 310 311 312 312 312 311 310 310 310 309 309 311 312 313 314 313 313 313 313 312 314 312 312 312 310 311 312 312 314 314 315
305 306 307 306 312 312 311 311 317 323 315 312 311 311 310 310 312 312 311 310 309 310 308 308 308 309 313 313 312 311 313 319 314 312 314 312 313 312 310 311 313 313 313 314 313
305 308 309 306 310 312 311 313 321 318 313 311 310 310 311 312 311 311 311 309 311 309 308 309 311 309 313 313 311 310 315 315 318 319 319 313 314 311 311 311 315 315 314 314 315
306 311 314 313 313 312 312 317 321 315 311 310 309 311 312 312 311 311 311 312 311 311 312 311 311 311 310 310 310 310 315 316 318 317 318 314 313 312 315 317 316 315 315 315 315
305 311 315 315 313 312 312 317 316 310 309 309 309 312 313 312 312 311 311 312 312 312 311 312 314 311 310 311 311 310 312 315 317 320 317 313 312 315 319 317 315 314 314 316 318
307 315 314 312 310 312 316 317 314 311 310 310 311 312 312 312 311 311 311 311 313 312 311 312 313 313 311 311 310 311 316 316 316 316 316 315 314 320 317 315 314 314 314 316 319
309 315 312 310 309 316 316 313 312 312 310 310 311 312 313 312 311 310 311 313 312 313 314 313 314 314 313 311 311 312 315 315 318 319 317 317 315 316 314 313 314 314 315 315 317
309 313 312 311 316 312 312 311 311 312 311 309 310 311 311 311 312 313 312 312 312 313 315 314 313 315 312 310 313 314 312 312 314 314 316 317 316 315 315 314 313 314 316 317 318
310 314 313 310 309 312 312 312 311 312 313 311 311 311 311 311 311 313 311 311 312 312 314 312 314 314 315 313 312 314 313 313 313 314 315 315 315 315 316 315 315 316 316 317 315
310 312 309 310 308 309 311 312 312 311 312 311 311 309 311 312 311 310 310 311 311 313 315 315 316 314 315 315 314 313 313 312 313 313 315 313 313 311 315 316 315 315 316 316 315
306 305 305 305 309 311 311 312 310 310 310 309 311 311 309 310 310 310 310 311 311 312 313 314 316 316 316 315 314 314 313 313 313 313 315 314 315 314 314 313 313 314 313 313 314
305 306 306 306 309 308 308 310 310 308 309 309 309 308 309 309 309 309 309 310 310 312 313 309 313 315 314 314 314 312 314 316 316 315 315 316 315 315 316 314 313 312 313 312 313

GFSSW_925_thetae_048.txt.gz
Theta_e
308 308 308 308 308 308 307 304 301 301 302 304 304 305 305 305 305 309 311 307 312 311 308 307 308 309 310 312 314 318 319 329 334 334 331 327 327 326 325 324 325 323 325 335 337
306 307 307 307 308 308 307 303 301 300 301 302 304 305 304 306 312 313 311 313 309 307 306 309 311 311 308 311 312 315 318 322 324 329 329 327 326 326 327 326 327 326 324 330 336
306 306 306 307 306 305 304 303 301 300 300 302 304 304 304 310 314 316 312 307 309 309 307 309 311 311 309 310 311 314 316 319 321 322 323 324 324 324 324 326 325 326 323 324 326
307 307 308 308 307 304 303 302 301 300 300 302 304 304 305 314 316 315 310 310 310 310 313 313 311 309 309 311 311 311 313 314 318 319 320 321 321 321 322 324 324 325 324 324 324
310 310 310 309 308 305 303 303 301 301 301 303 304 304 309 316 318 311 311 311 310 311 314 315 313 308 308 310 309 310 311 312 313 314 319 320 321 322 322 322 323 324 324 325 324
309 309 310 310 309 307 304 301 300 301 302 304 305 305 315 316 314 311 311 311 312 313 312 311 310 310 309 310 309 308 309 309 310 311 313 314 316 318 321 322 322 323 324 324 325
305 307 308 307 309 308 306 302 301 301 303 306 305 311 313 310 312 311 311 310 309 311 311 312 311 310 309 309 309 309 309 309 310 312 312 314 315 316 317 318 320 322 323 324 325
302 301 304 306 308 308 307 302 301 301 303 307 307 313 311 313 312 310 309 309 309 309 310 310 310 310 310 309 309 309 308 308 310 310 312 314 315 316 316 316 318 319 322 323 324
305 304 303 305 306 306 305 302 302 305 307 309 311 312 315 314 310 310 309 309 309 310 310 310 309 309 309 309 307 307 308 308 308 308 309 312 313 314 314 315 316 317 318 320 321
307 306 304 304 305 304 302 304 312 313 313 312 312 313 313 315 310 310 309 309 309 308 309 310 307 308 306 308 311 310 308 308 309 310 310 310 310 310 311 312 312 313 315 318 320
306 306 305 304 304 303 302 311 306 310 313 316 317 316 316 312 310 310 310 310 309 307 307 307 306 306 308 308 311 311 311 310 310 311 311 310 311 311 310 311 310 311 312 314 316
306 306 306 304 303 303 302 309 311 309 308 310 312 313 312 311 309 310 310 309 308 307 307 306 306 308 309 309 308 307 308 308 309 310 310 310 311 311 310 310 309 310 311 312 314
305 305 306 305 303 308 306 311 312 310 308 310 311 311 311 310 309 309 310 309 308 307 307 307 307 309 309 308 309 308 308 312 312 313 311 309 310 309 310 310 310 310 310 311 313
302 304 305 304 310 305 310 311 311 310 309 314 310 310 309 308 309 310 310 308 308 307 307 307 307 308 308 308 312 312 313 313 313 312 312 311 313 311 310 310 310 309 308 309 311
299 304 305 306 305 307 312 311 311 311 321 314 310 310 309 308 310 311 310 308 308 308 308 308 308 308 308 312 312 311 313 312 313 312 311 312 310 311 309 310 310 310 309 309 309
301 306 306 309 309 312 311 310 312 317 320 311 310 310 309 309 309 311 309 309 308 308 307 307 308 310 311 312 312 313 311 311 312 311 313 312 311 311 310 310 310 312 313 312 313
305 307 308 306 308 311 311 309 313 319 314 311 309 309 309 309 310 311 311 309 307 308 307 307 307 310 312 311 311 310 309 310 313 310 313 311 312 311 310 313 314 315 314 313 313
307 312 312 306 307 312 311 311 318 315 310 310 309 309 311 311 311 311 310 309 310 308 307 307 310 309 313 311 309 308 309 309 315 315 316 314 314 312 315 315 314 313 312 312 313
310 313 314 313 313 312 306 313 318 311 310 309 309 310 313 312 311 311 310 311 312 310 311 310 312 311 310 310 310 310 312 311 311 317 320 314 311 310 315 314 313 312 312 311 311
308 311 314 314 313 310 308 315 315 312 310 310 310 312 312 312 311 310 310 311 313 311 309 311 312 311 311 310 309 309 309 311 311 317 319 314 312 311 317 315 313 312 311 311 311
310 310 314 312 310 308 311 314 313 311 310 310 310 311 312 312 310 310 310 310 312 312 310 312 312 312 311 310 310 309 311 315 314 317 318 317 311 315 316 314 312 312 311 311 312
305 312 313 309 306 307 312 312 310 311 311 309 309 312 312 312 312 311 310 313 311 312 314 312 312 313 313 311 311 310 312 314 315 319 319 319 315 310 313 312 311 311 312 312 313
304 307 312 310 305 306 308 311 310 310 312 310 309 310 310 310 310 311 312 311 310 312 313 312 310 315 310 310 310 312 312 313 312 312 315 316 312 312 313 314 311 311 313 314 314
304 308 305 303 303 308 308 310 311 311 312 310 310 308 309 310 309 310 310 310 308 310 315 311 313 312 314 314 313 313 313 313 311 312 313 313 312 311 311 313 312 313 313 312 312
301 305 303 305 304 304 306 310 310 310 309 308 308 310 309 309 309 309 309 309 309 310 312 313 317 314 314 314 314 315 315 315 314 311 313 313 312 311 312 313 312 313 312 313 313
301 302 300 302 304 306 306 307 310 310 308 308 309 309 308 308 308 308 308 308 309 309 315 313 316 316 317 314 313 314 314 313 313 312 314 314 314 312 311 313 312 312 312 312 313
304 304 303 302 304 304 304 305 307 306 306 308 307 307 307 307 306 306 306 307 307 309 310 311 313 314 315 313 314 315 315 316 316 314 314 315 312 311 315 314 314 313 315 320 321

GFSSW_925_thetae_051.txt.gz
Theta_e
307 307 307 307 308 307 308 308 306 304 303 303 302 303 304 304 305 311 309 305 311 313 310 306 307 309 309 310 313 316 320 329 331 331 328 327 326 325 324 325 324 325 324 326 344
308 309 309 310 309 308 307 307 307 305 304 302 302 303 303 307 312 313 309 312 313 310 307 307 310 310 307 309 311 313 318 322 324 327 327 324 323 323 324 323 323 324 324 325 342
309 309 309 309 310 309 308 308 307 306 304 301 302 303 303 311 314 315 313 307 308 309 307 308 310 310 308 309 311 311 316 319 320 319 321 322 321 320 320 321 322 322 323 322 327
309 310 309 309 310 309 310 308 308 306 301 301 303 303 305 314 317 314 310 308 308 310 312 313 310 308 308 309 310 311 312 313 315 316 317 317 318 318 319 319 320 321 322 322 323
305 305 306 307 307 309 310 309 308 304 300 302 304 304 310 314 317 312 310 309 309 312 313 314 311 307 308 307 308 309 310 310 310 310 311 315 317 319 319 319 319 320 321 322 322
307 306 306 306 309 309 309 309 308 304 301 303 306 306 313 309 314 314 311 310 311 314 312 312 309 309 308 309 309 308 309 309 309 310 309 312 313 314 315 316 316 317 319 321 322
309 309 308 309 308 309 309 307 305 302 301 303 306 311 313 306 310 311 310 310 310 311 312 311 310 310 308 308 308 309 308 307 308 309 311 312 312 314 315 316 316 317 317 320 322
309 308 308 308 307 308 307 304 302 301 302 306 309 313 308 308 313 311 310 309 308 309 310 309 309 309 309 308 307 308 305 306 307 308 309 312 312 313 313 313 315 315 316 317 320
308 307 305 306 306 307 303 302 303 304 306 309 311 311 313 315 312 309 309 308 309 309 309 309 309 308 308 307 307 305 307 308 307 307 307 310 310 310 309 311 311 311 312 314 315
306 305 305 306 304 304 302 309 313 312 312 312 312 313 312 315 311 310 309 309 308 308 307 308 304 307 304 306 309 309 309 309 309 309 309 308 309 310 310 310 310 310 310 311 312
304 301 305 306 304 303 305 311 305 306 313 311 315 314 315 314 311 309 309 309 308 306 306 306 304 307 307 307 309 309 310 308 308 308 309 308 309 309 309 309 308 308 309 310 311
300 299 304 306 304 307 306 310 310 309 308 307 309 313 313 313 310 308 309 308 308 307 306 304 306 306 307 308 308 307 307 309 309 312 311 311 311 310 308 308 308 308 309 309 309
298 300 304 306 305 307 308 310 310 310 307 308 310 310 310 309 310 308 308 307 307 306 306 306 307 307 308 307 310 310 312 312 312 312 311 310 310 309 309 308 308 308 308 307 308
301 303 305 305 309 308 309 311 310 308 309 315 310 311 309 308 308 309 309 308 307 306 306 306 306 308 307 307 311 310 312 312 312 312 311 311 310 309 310 309 308 307 306 306 306
303 304 305 306 307 309 311 311 310 310 315 315 310 309 307 307 309 310 309 307 307 307 306 307 308 307 308 309 311 309 312 311 311 311 311 311 311 309 308 309 309 309 309 311 310
305 306 306 309 310 311 310 311 311 314 317 310 310 309 309 308 308 309 309 308 307 307 307 306 307 308 309 311 310 311 310 307 309 309 312 310 310 310 307 307 307 313 313 312 311
308 311 309 306 308 309 311 308 313 314 311 310 309 309 310 310 310 311 310 308 307 307 306 306 307 310 311 310 308 308 306 307 309 310 313 310 312 310 310 311 314 314 312 311 310
310 312 308 306 309 312 309 310 317 311 309 309 309 309 312 311 311 312 310 308 310 308 306 306 309 308 312 309 308 308 307 306 309 311 308 309 313 311 314 313 313 313 311 310 310
313 314 314 314 314 311 306 312 314 312 310 309 309 309 312 311 310 310 310 311 311 309 311 310 311 310 310 309 309 309 311 308 306 311 313 311 311 309 313 313 312 311 311 309 308
310 312 313 314 312 309 308 314 314 311 310 309 310 310 311 311 311 309 310 312 312 311 308 310 312 310 310 310 309 308 307 309 308 315 315 313 312 312 309 310 312 312 310 308 308
309 309 313 311 309 307 310 313 311 310 310 309 309 309 310 312 311 310 310 310 312 312 310 311 310 311 311 310 309 308 309 312 310 313 314 314 312 309 311 312 312 311 310 308 308
304 310 311 310 307 304 309 310 310 310 310 310 308 311 311 311 311 311 309 311 309 311 313 311 310 313 312 311 310 309 309 311 314 313 314 315 314 310 310 308 310 310 310 309 310
303 305 310 308 302 303 305 309 309 309 311 310 310 309 308 309 310 310 311 310 309 309 312 311 309 314 310 309 309 311 312 313 313 313 315 313 311 309 309 310 309 311 311 310 310
303 306 302 300 300 305 306 308 310 310 310 309 309 308 308 309 308 309 309 309 307 308 314 311 309 311 313 311 310 313 312 313 313 316 313 313 311 311 310 310 310 312 311 310 310
298 302 301 300 301 303 304 308 308 309 308 307 307 308 308 308 308 308 308 307 307 309 311 310 314 313 313 312 313 313 314 314 315 313 316 313 312 310 310 309 312 312 312 313 317
301 301 299 300 302 304 304 306 308 307 307 307 307 307 307 306 306 308 306 306 307 308 311 311 313 312 313 312 312 313 314 314 314 314 314 313 313 310 310 310 310 310 310 311 319
301 301 302 300 302 303 302 304 305 305 305 306 305 305 306 306 306 305 305 305 305 307 308 307 310 315 314 313 313 315 315 316 315 315 315 316 313 311 311 311 309 309 309 312 313

GFSSW_925_thetae_054.txt.gz
Theta_e
310 309 310 310 309 309 309 309 308 308 308 305 301 302 303 303 304 311 311 306 310 310 311 307 307 308 308 309 312 316 323 328 328 328 327 326 326 324 322 322 322 324 323 322 342
309 309 309 309 309 309 309 309 309 308 308 304 300 302 303 305 311 313 312 308 310 311 307 306 308 309 305 309 311 315 318 321 324 324 323 322 323 321 320 319 321 321 320 322 337
307 307 306 307 308 308 309 310 309 308 308 304 301 303 303 310 313 313 313 309 309 309 307 307 310 309 308 309 310 311 315 317 319 317 318 318 318 318 318 319 319 318 319 320 320
310 309 308 308 308 309 309 309 309 309 306 303 302 305 304 314 317 313 311 308 308 310 311 312 309 306 306 308 308 311 311 313 314 313 313 315 315 315 316 316 318 318 318 318 320
310 310 310 310 310 308 309 309 309 307 304 301 304 307 310 310 313 317 311 309 309 311 312 313 309 306 307 307 308 308 309 309 309 309 309 310 312 313 314 315 316 317 318 318 318
309 310 309 310 310 309 308 308 309 306 301 301 306 312 312 303 310 313 311 310 310 313 311 312 308 307 308 308 308 308 308 308 308 309 309 310 311 312 314 314 314 315 316 316 317
309 309 309 309 309 308 308 309 307 303 301 302 308 312 312 302 310 312 311 310 310 311 311 311 309 309 307 307 307 308 308 306 306 308 308 309 310 312 312 313 314 314 314 314 316
309 308 307 307 308 307 307 305 302 301 301 303 310 313 307 307 313 312 310 310 310 308 311 310 308 308 308 307 306 307 304 305 306 307 308 309 310 311 309 310 312 312 312 312 312
308 307 304 305 306 306 304 304 307 304 303 308 311 310 311 313 313 310 310 308 308 307 308 308 308 306 305 306 306 304 308 308 307 307 306 309 309 310 310 309 310 310 311 311 310
303 304 302 304 306 304 305 312 311 311 311 311 313 311 312 314 313 310 309 308 308 307 306 305 303 304 303 305 307 308 309 308 308 307 309 308 308 309 308 309 309 309 309 310 311
303 304 303 305 305 306 307 310 304 305 314 308 312 312 311 312 311 309 309 308 307 305 305 304 304 305 307 306 307 308 309 308 307 308 309 309 309 309 308 308 307 308 308 309 310
303 304 305 306 304 308 309 309 309 308 307 307 308 311 312 312 311 310 309 308 307 306 305 303 305 305 306 307 307 306 307 310 309 309 310 308 309 308 308 307 308 308 308 307 307
302 305 305 306 307 308 309 310 309 308 306 307 308 310 309 311 310 309 307 307 307 306 305 305 306 306 307 307 309 309 311 311 311 310 309 308 306 308 308 308 308 307 307 306 306
303 304 306 306 307 309 310 310 310 307 309 313 310 310 309 308 309 309 308 307 306 306 305 305 306 307 307 307 308 309 311 311 310 308 308 309 309 306 306 307 308 307 305 305 306
305 305 306 305 309 309 310 310 310 309 312 314 309 309 307 308 308 309 308 307 307 306 306 306 307 307 307 307 309 307 311 310 310 309 310 309 309 308 306 306 305 305 306 309 310
308 310 306 310 310 309 310 310 310 311 315 309 308 308 308 308 308 308 308 307 307 306 306 305 306 306 306 310 309 308 308 305 305 307 309 308 309 307 307 307 308 308 310 310 309
310 310 307 308 307 310 310 307 311 312 309 309 308 307 309 310 311 311 310 308 307 307 306 306 306 309 310 309 307 305 305 306 306 306 308 308 308 308 308 308 308 310 310 309 308
312 312 309 310 312 312 309 308 314 311 308 308 308 307 310 310 310 310 309 309 310 307 306 308 309 309 311 309 308 307 306 304 307 310 306 307 309 308 308 309 311 311 310 310 309
313 313 313 313 313 310 306 311 311 312 311 309 308 309 310 310 310 308 309 311 311 309 311 310 311 309 309 308 308 308 308 305 303 307 311 308 308 309 308 309 312 310 310 309 307
310 311 312 311 309 308 307 314 313 310 310 309 309 309 310 309 310 309 309 311 311 310 308 309 311 310 310 309 308 307 306 307 306 312 314 310 310 310 309 309 309 308 308 307 307
309 307 310 311 307 306 308 311 312 309 309 309 308 308 308 311 310 309 309 310 311 311 309 309 309 310 310 310 308 308 308 310 306 309 315 313 309 307 308 306 308 309 309 308 308
304 309 310 310 304 301 307 309 309 309 309 310 308 309 310 310 309 309 309 309 309 310 312 310 308 312 311 309 308 307 308 308 309 308 313 305 312 309 308 307 308 307 307 309 310
303 304 309 305 302 301 303 307 308 309 310 310 310 308 308 308 309 309 309 308 307 308 311 309 308 311 308 307 307 311 311 312 313 314 315 315 312 307 308 309 308 309 309 310 309
301 303 300 298 299 304 305 307 310 308 309 308 308 307 308 308 308 309 309 309 307 308 310 311 307 309 309 308 307 310 310 310 312 316 313 314 312 310 309 309 308 309 309 308 308
296 300 299 299 300 302 304 305 308 308 306 305 306 306 308 308 307 307 307 306 306 307 309 308 312 311 311 311 312 312 312 312 313 314 316 313 312 311 310 309 310 308 308 309 309
299 299 297 298 300 302 303 304 305 306 305 306 307 305 305 306 306 308 306 305 306 307 311 309 309 311 310 310 311 312 312 312 312 313 314 314 315 312 311 310 310 309 309 309 309
299 299 301 298 300 301 300 304 304 303 304 305 304 304 304 304 304 303 303 304 305 306 308 309 307 310 311 311 311 312 312 313 314 315 315 316 312 310 312 312 310 309 308 309 309

GFSSW_925_thetae_057.txt.gz
Theta_e
308 307 307 308 309 309 309 308 309 308 309 308 307 304 303 305 307 311 314 308 309 309 311 309 307 308 308 312 315 320 327 326 326 325 325 326 326 325 324 324 324 324 324 322 331
309 309 309 309 308 308 309 309 309 308 308 308 306 304 305 308 312 314 313 306 310 311 307 307 310 309 310 312 315 320 322 322 324 326 326 325 323 324 322 323 323 323 321 321 320
309 309 309 310 310 308 309 310 310 308 307 306 304 302 304 310 315 313 312 309 310 309 306 308 310 311 310 312 313 316 318 320 321 318 319 321 322 319 321 322 322 320 320 319 321
308 309 309 309 309 309 310 309 310 309 307 304 303 305 305 313 314 314 312 308 310 310 312 312 311 310 310 311 311 313 314 315 318 315 314 316 316 316 317 319 318 317 318 319 320
308 308 309 309 308 309 309 309 309 309 307 303 304 306 310 310 313 316 313 309 309 311 312 313 311 310 310 310 311 312 312 311 312 311 312 311 314 317 315 315 315 317 317 317 318
307 307 307 308 308 308 309 309 308 308 306 303 306 308 312 305 308 313 315 311 311 313 312 313 311 310 311 311 312 310 311 311 311 312 312 312 313 313 314 314 314 316 317 318 319
307 307 307 307 307 308 309 309 308 307 305 304 308 311 311 305 309 311 313 311 310 311 312 311 310 310 310 310 310 310 311 310 310 311 311 311 311 312 312 313 314 315 315 315 316
303 303 304 306 306 308 309 308 305 303 303 303 310 312 307 306 312 312 312 311 310 310 311 310 308 310 311 310 310 310 309 310 310 310 310 311 311 312 311 312 312 313 314 314 315
304 304 304 305 307 307 306 308 308 303 302 309 311 311 314 313 313 310 311 309 307 307 307 308 309 309 310 311 312 310 311 311 311 311 312 311 312 312 312 311 313 313 313 313 315
304 304 305 306 306 306 310 311 311 310 311 312 313 313 313 314 314 312 308 308 308 308 308 309 309 311 310 311 311 310 310 310 310 310 312 311 312 311 312 311 312 312 312 313 314
304 305 306 306 305 306 310 308 309 309 314 311 312 312 311 312 310 309 308 308 308 309 309 307 310 311 310 311 310 310 310 310 311 311 311 311 311 311 311 311 312 312 312 313 314
304 305 305 307 306 307 308 311 310 309 312 308 310 311 311 311 312 312 309 309 309 309 307 308 309 309 308 308 309 310 310 311 311 311 310 310 311 311 311 311 312 313 313 313 313
304 305 306 305 308 308 309 309 309 308 311 310 309 310 310 311 311 312 310 309 309 309 308 308 308 308 308 309 310 311 311 311 310 311 310 311 309 310 309 311 311 312 312 312 312
305 306 306 306 308 309 310 309 309 306 314 313 311 311 310 310 311 310 309 310 309 309 308 309 308 308 309 309 310 310 311 311 310 310 308 310 307 310 310 310 311 311 313 312 313
309 310 305 308 310 311 309 310 308 309 315 313 310 309 308 309 309 309 308 309 310 309 309 309 309 309 309 309 311 309 311 311 310 311 311 309 311 310 311 310 311 312 313 314 315
310 308 306 311 310 308 311 309 310 317 316 310 309 309 311 309 309 310 310 308 308 308 308 309 308 309 309 310 310 310 310 310 309 311 310 310 311 310 310 311 311 311 313 315 315
312 308 307 307 308 312 310 310 317 317 310 310 310 309 309 312 312 312 311 310 310 310 310 308 308 310 311 311 310 310 311 310 309 309 309 312 310 310 311 311 310 311 312 315 315
312 313 312 313 312 311 308 314 319 312 310 309 309 310 310 311 311 311 311 312 312 309 309 311 311 310 311 310 310 310 311 311 310 309 309 309 310 311 311 311 312 313 314 315 315
310 313 312 311 310 308 312 317 315 312 311 311 310 310 312 311 311 311 311 312 312 312 313 313 312 310 310 311 311 311 313 310 313 312 313 311 311 311 311 311 312 313 313 314 313
309 310 311 309 308 309 314 315 314 311 310 310 310 310 311 310 311 311 312 312 312 311 311 312 314 311 311 310 310 311 311 315 315 315 313 311 311 312 311 311 311 311 312 312 312
309 313 310 308 308 312 316 313 313 310 310 311 310 310 310 310 311 312 310 311 311 312 312 311 313 311 311 312 311 311 312 313 313 314 314 313 312 312 312 311 312 312 312 312 313
306 313 309 307 310 306 312 309 308 310 310 311 311 309 311 311 311 311 310 310 310 312 312 312 314 313 311 310 310 311 312 313 316 315 316 317 314 311 312 311 312 312 312 311 313
308 309 307 305 313 308 307 308 309 310 310 311 311 310 310 311 311 311 310 309 308 310 313 313 313 313 309 311 311 313 312 312 314 315 316 317 314 311 312 313 312 312 312 312 313
306 307 304 303 302 306 307 308 310 308 309 308 308 309 309 310 310 311 311 309 308 308 309 311 313 312 312 309 311 313 311 312 314 317 314 314 314 313 313 313 313 313 313 313 313
302 304 302 302 303 305 305 307 309 309 307 307 308 308 308 310 310 310 309 308 308 308 310 312 314 313 312 311 311 313 313 313 314 314 315 314 314 313 313 314 314 313 313 313 312
303 303 302 303 302 304 305 306 306 307 306 306 307 307 307 308 308 309 307 307 308 309 313 312 314 313 312 312 313 313 313 313 313 313 314 314 316 314 314 313 313 313 311 311 311
298 298 302 300 303 304 303 305 305 304 305 306 306 307 306 306 306 306 306 307 307 309 311 313 313 311 309 312 313 314 313 313 313 314 314 316 315 314 314 313 312 311 311 310 310

GFSSW_925_thetae_060.txt.gz
Theta_e
310 310 310 310 310 309 309 309 310 310 309 309 308 304 302 303 305 314 317 314 310 309 308 311 311 312 312 315 318 323 328 328 327 327 327 326 326 326 327 327 326 327 327 326 324
309 309 309 310 310 309 309 310 310 310 309 309 307 302 301 303 313 317 316 307 308 310 312 311 311 312 314 315 317 322 325 326 326 326 327 327 327 326 327 328 327 326 326 324 323
309 309 309 309 309 309 309 310 310 310 310 308 304 301 303 308 319 314 310 309 310 311 308 309 312 312 313 315 316 319 322 323 323 324 326 327 327 325 326 327 327 327 324 323 323
308 308 308 309 308 308 308 309 310 310 310 306 301 301 303 314 318 316 310 310 310 314 314 312 313 313 312 314 315 316 318 319 320 322 322 323 323 324 324 326 324 322 321 321 322
307 308 308 308 308 308 307 308 309 309 309 305 301 304 312 313 315 316 311 310 315 313 314 314 313 313 313 312 314 314 315 316 317 319 319 319 319 320 319 321 317 317 319 320 321
305 305 305 306 308 308 308 308 308 309 308 305 303 306 314 309 312 315 318 316 314 314 313 314 313 313 313 313 313 314 314 315 315 316 316 316 316 317 317 317 318 318 318 319 319
306 306 305 306 306 308 308 308 309 308 307 305 308 312 314 309 311 313 317 315 313 313 312 312 312 313 313 313 313 313 313 314 314 314 315 315 316 316 316 315 315 318 318 318 318
306 305 305 306 308 308 309 309 308 304 302 304 310 313 312 308 310 313 314 314 313 312 312 311 311 312 313 313 313 313 313 313 313 313 313 313 315 314 314 314 315 315 316 317 318
304 305 306 307 307 307 308 309 307 302 301 306 315 315 314 313 313 312 313 311 310 310 311 310 311 313 313 313 314 315 313 313 314 314 314 314 314 315 314 314 314 314 316 316 316
305 305 306 306 306 307 311 313 310 310 312 314 314 317 315 314 314 313 311 311 311 311 311 312 313 314 313 314 314 315 314 313 314 314 314 314 314 315 314 314 314 314 314 315 316
306 306 306 307 306 308 312 313 316 317 316 315 313 314 314 313 313 312 311 310 311 311 312 312 312 313 313 314 313 312 313 313 313 313 314 314 314 315 315 315 315 315 315 315 315
306 306 307 306 307 309 311 314 313 312 316 314 312 313 312 313 313 313 311 311 312 312 312 312 312 312 312 311 312 312 313 313 313 313 313 313 314 313 314 314 314 315 316 315 315
306 308 307 305 308 311 313 312 311 311 316 313 312 313 313 313 313 313 312 312 312 312 312 312 312 311 311 311 311 312 313 313 313 312 312 313 314 313 313 313 313 314 315 314 314
308 309 305 308 311 312 314 311 311 311 318 314 313 313 313 313 313 312 312 312 312 312 312 312 311 311 311 311 312 313 312 311 311 312 313 312 312 313 313 313 313 313 314 314 314
308 307 306 310 314 314 312 311 311 312 322 314 312 312 312 312 312 312 312 312 312 312 311 312 311 311 312 312 311 311 311 312 312 312 313 313 313 313 312 312 313 313 313 315 316
310 307 310 313 313 312 312 311 314 322 320 313 312 312 313 312 312 312 312 312 312 312 312 312 312 311 312 312 311 312 312 313 314 313 312 313 312 312 314 313 313 313 313 314 316
311 308 309 311 314 313 312 315 322 320 313 314 313 312 313 313 314 313 314 314 314 314 315 314 312 312 311 312 313 312 314 315 313 315 312 314 313 313 314 313 313 313 313 314 317
309 313 313 312 312 312 313 318 321 316 314 312 313 313 314 314 314 314 314 315 315 314 315 315 315 312 312 312 313 314 314 315 314 313 313 313 313 316 313 313 313 313 314 315 316
309 314 315 312 311 311 317 319 318 316 314 314 313 314 314 314 313 312 313 313 314 314 315 315 315 312 312 312 312 313 314 313 314 314 314 314 313 313 314 314 313 313 313 315 316
311 314 315 309 310 314 317 316 316 313 312 313 314 313 314 313 312 312 312 313 313 314 314 314 316 314 313 312 312 313 313 316 315 315 314 313 314 314 315 314 314 313 314 315 315
313 316 313 308 311 316 319 315 315 313 312 313 313 313 313 312 312 313 312 312 312 312 313 313 314 314 314 314 314 315 314 313 314 315 317 316 314 316 315 315 314 314 314 314 314
311 314 312 309 314 313 314 313 308 310 311 312 312 313 313 313 313 313 312 312 311 312 312 313 313 314 313 312 312 312 313 313 317 317 318 318 318 315 315 314 314 315 315 315 315
309 312 310 309 314 310 310 309 309 310 311 312 312 312 312 313 313 312 312 311 311 312 313 314 315 316 312 313 312 313 312 313 314 316 320 322 317 315 314 315 315 315 315 315 315
308 309 308 309 308 308 308 308 310 310 310 310 311 311 312 312 312 312 311 311 310 311 310 312 315 315 315 312 313 314 312 313 314 320 318 317 316 316 315 316 315 316 315 315 315
306 308 307 306 306 307 308 308 308 309 309 309 311 310 311 310 310 310 310 310 310 309 310 313 315 313 313 312 312 312 313 313 314 316 318 316 316 315 316 316 316 316 316 315 315
307 304 305 306 306 307 306 308 307 307 307 307 307 309 310 310 309 310 309 309 310 309 312 314 315 313 314 312 312 314 314 314 314 315 315 315 316 315 316 315 315 314 315 315 313
302 303 306 304 304 305 305 305 305 305 305 306 308 308 307 307 307 308 308 309 309 310 311 314 314 314 313 310 314 316 315 315 315 315 315 316 315 315 315 315 314 315 314 314 313

GFSSW_925_thetae_063.txt.gz
Theta_e
310 310 310 310 310 310 310 310 310 310 311 310 308 303 300 300 302 312 318 317 313 312 306 310 313 313 314 318 321 323 327 329 329 329 329 328 329 327 327 329 329 328 328 328 327
310 310 310 310 310 310 310 309 310 310 311 310 306 302 300 302 312 317 317 313 309 308 315 313 313 314 316 318 320 322 325 326 327 328 328 328 328 328 327 329 330 329 328 328 326
309 310 310 310 309 309 309 309 309 310 311 311 305 300 301 306 319 319 311 310 310 310 313 311 313 315 316 318 319 321 322 323 325 326 327 328 328 328 329 328 328 330 329 328 325
309 307 307 307 308 308 308 309 309 310 310 309 304 300 303 313 324 318 311 311 311 319 316 313 313 315 315 317 319 320 321 321 322 324 324 325 327 328 329 329 326 327 328 326 325
307 307 307 307 307 308 309 309 309 310 309 307 301 302 313 318 316 315 310 310 317 316 316 317 316 315 315 316 317 319 320 320 320 321 322 323 325 325 325 325 325 324 327 327 325
307 307 307 307 307 308 308 308 308 309 308 303 301 306 317 315 315 317 316 316 316 314 316 316 316 316 315 316 315 316 317 318 319 318 320 321 322 321 322 322 322 322 324 326 324
306 306 307 307 308 309 308 307 306 307 307 302 302 313 317 315 312 316 317 315 314 314 315 314 314 314 316 316 316 316 316 317 317 318 318 318 318 318 319 320 320 320 322 324 325
305 305 306 308 308 308 308 309 310 303 301 301 305 315 317 311 311 314 316 315 313 313 313 313 312 314 315 316 316 315 315 316 316 316 316 317 317 318 319 319 319 319 319 320 323
306 306 307 308 308 307 310 306 306 302 301 304 316 319 320 311 310 313 314 314 313 313 313 312 312 314 315 315 316 316 316 317 316 316 315 316 316 317 318 318 318 319 318 319 320
306 306 307 307 306 309 312 314 308 311 312 314 317 319 318 315 313 314 313 313 313 313 313 313 314 315 315 315 317 317 318 317 317 317 316 316 317 317 318 317 318 318 318 318 319
306 307 308 307 307 310 313 316 320 323 318 320 318 318 317 315 315 314 313 312 313 313 314 315 315 315 315 317 316 316 317 318 317 316 315 317 317 317 318 318 317 318 318 318 318
306 308 307 306 309 310 312 317 315 315 318 316 314 314 314 315 315 315 313 313 314 314 315 315 315 314 314 315 315 315 315 315 316 316 316 317 317 317 317 317 318 318 318 318 318
308 308 306 306 309 313 316 314 313 314 319 316 314 314 314 315 315 316 314 314 314 314 315 315 315 314 313 313 313 314 314 315 315 316 316 315 316 316 316 317 317 317 317 317 318
309 306 306 308 310 315 317 314 313 314 320 318 315 315 314 315 315 314 315 314 314 314 314 315 314 312 313 313 314 315 315 315 314 314 315 316 316 318 317 315 315 316 317 317 317
309 307 309 310 317 317 315 314 314 316 329 317 315 314 315 315 315 314 313 314 314 315 314 315 314 313 313 314 314 314 314 314 314 315 316 315 316 316 317 316 316 316 316 317 318
309 308 310 315 316 315 313 313 317 326 326 317 315 314 314 314 314 314 314 314 315 315 315 315 315 314 314 314 314 314 314 314 315 316 317 316 316 316 316 315 316 315 315 315 317
305 311 308 313 316 314 313 317 324 325 318 316 315 315 315 315 316 316 316 317 317 316 317 316 316 315 314 313 313 314 315 316 317 318 318 316 316 316 317 315 316 315 315 315 317
301 312 315 313 314 314 315 321 324 320 317 316 315 315 315 315 316 316 316 317 316 316 317 317 318 318 317 314 314 316 318 320 323 319 316 317 316 317 316 316 315 315 315 316 317
305 313 317 317 314 314 318 322 322 320 316 315 315 315 316 316 315 315 315 315 315 315 321 319 319 316 316 315 315 315 317 316 317 317 318 317 316 318 316 315 316 316 315 315 316
310 316 317 315 314 315 321 320 318 316 315 314 315 316 316 316 316 315 315 315 315 315 315 315 319 317 316 315 314 315 316 321 319 318 317 316 316 317 318 317 316 316 316 316 317
314 317 317 313 314 318 321 319 317 315 314 313 314 315 315 315 315 315 314 314 315 314 315 314 315 317 317 318 316 315 317 316 318 317 322 320 318 318 318 317 316 316 316 316 317
314 315 315 311 315 318 315 315 309 311 311 312 313 314 315 315 315 314 315 315 314 314 313 314 317 316 314 315 316 316 318 319 324 320 316 316 316 317 317 317 316 316 317 317 317
314 313 313 309 318 315 312 311 310 311 311 313 314 314 314 314 315 313 314 313 313 312 315 316 319 321 317 316 313 313 313 314 317 321 320 320 321 318 317 317 317 317 317 317 317
312 314 313 311 311 311 312 312 312 311 311 311 312 312 313 313 313 314 313 312 313 311 312 313 314 315 317 316 317 318 315 316 316 320 316 316 316 317 317 317 317 317 317 317 317
313 313 311 311 311 310 310 310 311 311 311 310 311 312 311 311 311 311 311 312 312 313 311 312 315 314 314 314 314 314 314 313 314 314 316 316 316 316 316 317 317 317 317 317 317
310 310 309 310 310 310 308 311 310 309 309 308 308 309 311 311 311 311 311 311 312 311 312 313 318 315 316 313 311 311 311 312 313 314 316 316 317 317 317 317 318 317 318 317 316
305 307 309 311 310 309 309 309 307 306 307 307 309 310 310 310 310 310 311 311 311 311 312 315 317 316 316 311 313 313 313 315 317 316 316 319 316 316 316 316 317 317 316 316 316

GFSSW_925_thetae_066.txt.gz
Theta_e
310 310 310 310 310 310 310 311 311 311 311 311 310 307 305 304 301 311 315 317 316 316 314 309 314 315 316 317 320 321 323 326 326 327 328 328 329 328 326 328 329 329 329 328 328
309 309 309 310 310 310 310 310 310 310 311 311 310 306 305 303 312 313 315 316 313 309 310 313 313 315 315 317 319 321 323 322 323 325 327 327 328 329 328 328 328 330 330 328 328
309 309 309 308 307 308 309 310 309 310 310 310 308 304 302 305 317 321 315 310 310 308 314 314 314 316 315 317 319 320 322 321 322 323 325 325 327 328 329 329 328 329 331 330 329
308 308 309 308 308 308 309 310 310 309 309 309 305 301 301 312 324 316 311 311 311 315 320 316 313 313 316 317 318 318 320 320 321 321 322 324 325 326 328 329 328 328 328 329 328
306 307 307 308 308 308 309 309 309 309 307 306 302 300 312 319 317 313 311 310 313 318 318 318 317 316 315 317 318 318 319 320 321 321 321 322 323 324 325 329 329 328 327 327 329
306 306 307 307 308 309 309 310 308 307 305 303 300 303 315 319 319 315 314 315 317 316 316 317 317 317 316 316 317 317 317 319 319 320 321 320 320 322 323 326 325 325 325 325 326
306 306 306 307 308 309 310 309 308 307 303 301 301 312 316 318 311 318 315 316 316 315 316 315 315 316 316 316 316 317 316 317 317 317 318 319 318 320 321 323 323 323 324 323 324
306 307 307 307 308 309 308 309 309 308 301 300 302 314 318 315 314 314 317 317 316 314 314 314 314 314 315 316 316 316 317 316 316 317 317 318 318 319 319 320 320 320 321 320 321
307 307 307 307 308 307 310 308 304 303 301 302 312 317 321 311 311 312 314 316 316 315 314 314 314 313 314 314 315 316 317 316 316 317 317 317 317 317 318 319 319 321 320 320 321
306 308 307 307 307 309 311 313 310 306 306 312 316 321 320 318 313 312 314 315 315 314 314 314 314 314 315 315 316 317 316 317 318 318 317 317 316 317 318 318 319 319 319 320 320
306 307 308 307 309 309 311 316 320 323 321 323 322 320 319 317 315 315 314 314 314 314 314 315 315 316 316 316 316 316 316 317 319 319 318 318 318 318 318 319 319 319 320 321 321
306 307 306 307 309 310 309 319 316 315 317 318 320 316 316 316 316 315 314 315 314 315 315 315 316 317 316 315 316 316 317 317 317 318 318 317 317 318 318 319 320 321 321 321 321
305 306 306 306 310 311 317 316 315 315 318 320 318 316 315 315 316 317 315 315 314 315 316 316 316 316 315 315 315 315 315 315 315 316 317 317 317 318 318 319 320 320 320 320 322
302 308 307 309 312 317 319 317 314 317 319 322 316 316 315 316 316 316 316 316 316 315 315 315 316 316 315 314 314 314 315 315 316 316 316 317 318 318 319 319 319 319 320 319 320
298 309 309 309 313 318 317 315 314 318 331 319 317 316 316 316 317 316 315 315 315 315 316 316 315 315 315 314 314 315 315 315 315 316 316 316 316 316 317 317 317 317 317 318 318
298 303 310 314 315 318 315 314 317 327 332 320 316 315 315 315 316 316 315 315 315 315 316 316 316 316 316 315 315 315 315 315 315 315 316 316 317 317 317 319 318 317 317 317 318
300 300 309 311 316 316 315 316 324 329 322 319 317 316 316 316 316 316 316 316 316 317 318 319 317 317 317 316 315 314 315 316 318 320 319 318 321 319 318 318 318 317 316 316 317
303 303 310 314 314 316 316 320 325 322 322 319 317 315 315 316 316 316 317 317 317 318 318 321 322 319 319 320 319 318 316 318 322 322 323 322 321 318 318 317 317 316 316 316 316
307 315 315 318 317 315 318 322 323 322 320 317 315 314 316 317 316 317 317 317 317 317 318 320 321 318 317 319 319 320 317 317 321 322 322 319 320 320 317 317 316 316 316 316 316
306 316 318 318 315 315 319 322 321 320 318 316 316 314 316 316 316 316 316 317 318 317 316 317 317 315 318 318 317 317 317 320 321 322 319 315 316 321 321 317 317 316 316 316 317
311 320 319 317 314 317 320 320 319 317 314 313 314 314 315 316 316 316 315 316 317 317 316 317 319 315 318 320 319 321 316 316 317 323 324 321 320 320 320 320 319 317 317 317 317
311 318 318 312 311 316 321 315 311 313 313 313 313 314 315 316 315 315 314 317 316 316 317 317 318 318 317 316 317 317 318 319 325 324 322 323 320 319 319 317 320 318 317 316 318
313 316 316 313 317 316 314 313 313 313 313 313 313 313 314 314 314 313 314 314 313 313 316 316 318 320 315 317 318 319 317 317 318 322 322 324 322 319 319 319 319 319 318 319 318
314 316 316 315 314 314 314 312 313 312 312 312 312 311 313 313 313 313 313 313 313 314 314 312 314 315 316 313 318 317 317 316 316 322 319 318 316 318 318 317 319 319 319 319 318
315 316 314 313 314 314 313 312 312 313 312 311 310 311 311 311 312 312 312 312 313 315 313 313 314 313 313 313 314 316 317 317 317 315 317 316 315 315 317 318 319 317 318 319 319
312 311 311 313 314 313 313 312 313 311 309 309 309 309 310 312 311 311 311 311 312 312 313 313 317 316 316 315 314 315 314 316 313 314 314 313 314 314 318 318 318 317 317 318 318
307 306 309 311 313 314 313 310 308 308 308 309 308 309 310 312 311 311 311 311 312 312 312 313 317 317 318 314 314 313 316 317 318 317 317 319 317 317 317 318 319 318 318 319 316

GFSSW_925_thetae_069.txt.gz
Theta_e
309 309 309 308 309 309 310 310 310 310 310 310 311 311 311 307 301 308 313 309 316 315 315 315 311 309 313 313 314 315 318 319 321 324 324 323 324 322 323 324 325 327 328 327 326
310 310 309 309 310 309 308 309 310 310 310 311 311 311 309 302 307 312 305 312 315 315 313 309 308 309 312 313 313 314 315 318 319 320 321 321 322 323 324 324 325 328 328 328 326
307 308 309 308 309 309 308 309 310 311 311 310 310 308 303 304 313 318 314 313 314 308 308 313 316 311 310 310 312 314 315 317 319 319 320 320 321 322 325 324 325 326 326 326 326
306 308 308 307 307 308 308 309 310 310 310 309 308 304 300 309 321 316 316 310 311 311 314 318 316 309 310 311 311 312 315 317 317 319 319 319 319 319 321 326 326 326 325 326 326
306 307 308 308 307 308 309 310 310 310 309 308 307 301 308 315 316 314 311 311 311 314 319 321 315 310 308 310 312 314 314 316 316 317 317 318 318 319 319 322 327 327 327 325 325
307 307 307 308 308 309 309 309 309 309 308 308 306 302 314 314 317 315 311 310 312 316 317 315 314 314 315 313 312 313 313 314 315 315 315 317 318 317 318 319 325 326 325 324 324
306 307 307 309 308 309 309 309 309 309 308 307 307 310 313 313 316 314 314 314 315 316 316 315 314 313 311 312 312 313 313 313 313 313 314 315 315 317 317 318 318 323 322 323 322
306 307 308 308 309 308 308 309 307 307 305 304 306 312 316 313 314 314 316 316 316 316 314 314 314 312 312 311 312 312 312 312 312 313 314 315 314 315 316 316 317 318 317 317 319
304 306 307 308 307 308 310 312 308 303 302 301 308 313 317 316 312 313 313 317 317 316 314 314 314 312 311 310 310 311 311 312 313 313 314 313 314 315 316 315 315 315 317 316 316
299 306 306 307 307 309 311 311 313 305 306 312 313 317 320 320 315 312 311 314 315 314 313 312 311 310 309 309 310 311 312 313 314 315 314 314 314 315 315 315 315 317 318 318 317
297 306 306 306 308 309 310 315 316 318 318 319 321 319 320 318 314 312 313 315 315 313 312 312 311 311 311 312 313 313 313 314 314 316 316 315 315 315 315 314 315 315 316 316 316
297 304 306 305 307 309 308 315 316 314 314 318 321 321 320 316 316 316 316 314 313 312 312 312 312 313 315 315 315 314 313 314 315 315 316 315 317 316 316 316 316 316 315 315 316
298 300 308 307 309 310 311 317 317 316 316 317 318 319 317 314 315 316 315 314 314 313 313 313 314 315 316 315 315 313 313 314 314 314 314 314 315 317 317 315 315 315 315 315 315
299 299 307 309 311 314 315 317 315 317 316 320 318 315 315 314 315 315 316 314 314 313 313 313 313 314 314 314 313 312 314 314 316 314 313 314 314 315 316 315 315 315 315 315 315
300 300 302 308 309 313 317 315 315 318 329 320 317 315 314 315 316 316 316 315 315 315 314 313 314 314 315 315 314 313 315 315 315 314 313 313 312 313 315 314 314 315 315 314 314
301 301 302 309 312 315 316 315 315 324 332 320 316 315 314 314 315 316 315 314 314 314 313 313 314 314 315 318 317 314 314 314 313 312 313 312 313 313 313 314 314 315 314 314 313
304 304 306 305 312 313 315 314 320 327 324 320 317 316 315 314 315 315 315 314 314 314 315 317 318 317 319 319 318 318 313 312 313 313 315 317 321 318 317 317 315 315 314 314 315
306 310 306 304 311 315 316 317 323 322 323 321 318 316 314 313 314 316 316 316 317 317 322 322 323 319 319 321 323 321 321 317 318 316 317 320 323 319 319 317 315 315 313 314 316
306 310 315 316 317 317 315 320 322 322 320 318 316 315 314 314 315 314 315 316 317 317 318 320 321 320 319 318 320 322 321 319 321 321 321 318 319 319 319 319 315 314 313 312 313
305 311 318 318 319 315 316 320 319 320 315 313 314 315 314 313 314 314 314 318 317 317 316 318 320 317 316 317 318 320 318 323 320 326 323 317 316 324 320 320 319 316 314 313 313
308 317 319 318 315 315 317 318 319 316 314 313 313 312 313 313 314 314 314 316 316 316 315 317 319 317 316 319 318 317 318 321 320 320 319 320 317 319 319 318 319 317 316 313 312
306 315 319 315 314 312 316 316 312 312 313 313 313 314 314 314 314 313 313 314 315 315 316 316 316 320 315 314 315 317 319 317 322 317 319 318 319 316 317 316 317 316 316 315 315
306 313 316 313 316 314 314 314 313 313 313 313 313 313 312 311 313 314 314 314 313 313 316 315 313 314 314 314 315 315 317 318 318 319 322 321 317 317 317 317 317 317 316 316 315
307 319 315 314 314 314 314 315 313 313 312 312 312 311 311 313 310 312 312 313 314 314 314 312 311 312 313 313 314 316 316 315 316 320 319 319 317 316 316 317 317 316 317 315 316
311 315 312 313 312 313 314 314 314 313 310 309 310 309 309 310 312 311 311 310 312 317 314 313 314 315 315 315 313 313 314 316 317 316 316 315 315 314 316 317 316 317 317 318 318
310 309 306 307 312 312 313 316 312 310 308 308 310 310 309 311 311 312 311 311 313 311 312 314 314 316 316 315 314 316 316 315 315 316 318 317 316 314 313 315 317 316 318 319 317
304 306 306 309 312 310 312 312 310 310 308 308 308 308 308 309 309 309 309 309 310 310 310 312 313 313 315 314 313 313 318 318 318 318 317 317 315 316 316 317 316 317 318 318 316

GFSSW_925_thetae_072.txt.gz
Theta_e
308 308 309 309 309 309 309 309 309 310 310 311 312 312 310 306 301 303 309 303 308 311 309 313 314 311 309 309 313 313 314 317 318 319 321 321 321 321 321 321 324 325 325 325 325
308 308 308 308 309 308 309 309 309 309 310 312 312 311 308 306 306 310 304 304 310 314 315 313 308 307 308 311 311 311 310 314 316 317 317 318 319 318 320 320 322 325 326 325 324
307 308 308 308 308 308 308 309 309 309 310 311 311 310 307 307 312 316 318 307 312 313 312 310 311 313 308 310 310 311 314 313 314 315 316 318 319 319 318 320 321 324 324 324 322
307 308 308 308 308 309 309 309 310 310 309 311 311 308 306 310 319 316 314 316 314 309 308 315 317 312 308 309 309 310 311 313 314 315 316 316 318 318 317 318 321 323 324 323 322
307 308 308 308 309 309 309 309 309 310 310 310 310 308 311 313 314 312 316 310 310 313 316 319 320 313 308 307 308 309 310 311 313 314 315 316 316 317 317 318 321 323 325 324 320
306 307 308 308 309 309 310 309 309 310 310 309 309 308 312 308 309 316 311 310 311 312 315 316 315 310 311 310 311 311 311 311 311 311 312 314 315 315 317 318 322 325 326 324 322
306 306 308 308 309 309 309 309 308 308 309 308 307 310 312 308 315 314 311 311 311 315 315 316 312 311 310 310 310 311 311 310 311 312 312 313 312 314 315 316 316 319 321 324 322
298 303 305 308 308 308 309 310 309 307 307 302 304 312 311 307 312 312 312 314 315 315 315 315 313 311 311 309 309 310 310 310 310 312 312 312 313 313 312 314 315 315 319 321 321
297 300 305 306 306 308 309 311 312 304 302 301 308 312 315 318 317 314 314 314 315 316 316 314 313 311 311 309 307 307 309 310 310 310 311 312 313 313 312 313 313 314 313 314 315
298 298 306 305 306 308 309 310 312 310 310 312 312 313 316 320 314 314 312 313 313 314 312 312 308 309 306 306 308 309 309 310 311 312 312 311 312 313 313 312 313 311 314 315 314
300 299 305 307 306 307 309 311 313 316 314 315 317 315 318 320 314 311 311 312 313 312 311 310 309 309 309 309 311 310 311 311 312 312 314 313 312 312 313 311 311 312 313 313 314
303 301 301 308 308 309 309 311 315 314 311 316 317 316 318 319 318 313 313 313 313 311 311 310 310 311 311 312 312 313 312 312 311 313 313 312 312 311 313 312 312 313 312 311 313
305 303 301 307 309 311 311 313 317 317 313 315 317 318 319 319 320 314 314 313 312 312 311 310 311 313 313 313 313 313 313 312 312 314 312 312 312 311 314 314 313 313 313 313 312
307 304 303 303 309 311 311 316 316 315 315 318 318 317 316 313 314 314 314 313 312 312 311 310 311 313 313 313 313 311 311 313 314 313 312 314 313 312 313 313 312 312 311 311 312
307 306 305 303 306 309 315 315 315 316 324 323 316 315 312 313 315 315 314 313 313 313 311 313 313 312 312 314 317 315 314 313 314 312 311 312 311 311 311 312 311 311 311 311 311
308 306 307 307 310 313 313 315 314 321 328 322 315 314 313 313 314 314 315 313 313 313 311 312 313 314 315 318 318 317 315 311 310 309 312 312 311 313 311 311 311 312 314 312 311
309 308 311 305 310 311 314 312 317 324 323 321 316 315 313 312 313 313 314 313 313 312 312 318 317 317 318 319 317 319 319 318 313 311 314 312 316 313 315 316 317 316 313 312 313
310 309 314 313 305 310 315 314 321 320 319 317 315 315 315 312 312 314 313 313 315 317 320 322 319 319 319 321 321 320 319 318 321 317 315 318 319 316 316 317 316 316 311 312 314
311 309 314 316 314 312 311 317 318 321 318 314 314 314 313 312 312 313 313 317 316 316 319 321 321 317 318 318 319 321 320 318 321 321 323 318 316 315 317 317 317 317 315 312 313
309 309 314 318 318 315 312 317 317 318 314 312 313 313 311 311 312 313 314 317 317 315 313 317 318 317 317 317 318 320 319 317 323 325 325 319 318 317 320 319 318 317 315 314 313
306 310 317 318 318 311 314 315 317 314 312 312 311 312 312 313 312 312 313 313 315 315 314 315 316 316 313 318 318 318 319 318 319 322 325 321 314 316 319 318 319 318 317 314 314
303 307 313 316 312 310 312 315 312 312 312 312 312 312 312 311 312 312 312 313 314 314 316 314 313 314 313 310 315 317 318 318 319 320 321 320 317 315 315 315 316 316 317 315 314
303 305 314 314 312 312 311 314 313 313 312 312 312 311 309 309 310 313 312 312 312 312 314 313 310 310 310 312 313 315 316 316 315 316 319 321 317 314 316 316 316 315 316 316 316
302 313 310 309 310 311 313 315 315 314 310 310 309 309 309 309 309 310 311 313 313 314 316 311 307 309 312 311 310 314 316 316 316 316 320 319 317 316 315 316 315 315 315 315 315
305 309 306 309 308 309 311 313 313 310 308 307 308 309 308 309 309 310 311 311 311 317 313 309 312 312 313 314 314 314 314 315 317 316 316 315 316 315 315 315 314 314 315 317 317
304 304 304 305 308 312 311 314 314 311 307 308 308 308 308 307 308 310 310 310 310 309 309 308 311 314 314 312 313 313 314 316 318 318 319 317 315 315 313 314 315 313 314 315 315
302 304 304 306 309 311 311 310 313 310 307 306 306 307 307 307 308 307 306 306 307 308 308 308 308 309 312 314 313 313 318 318 317 318 317 316 317 315 313 313 311 313 311 311 313

GFSSW_925_thetae_075.txt.gz
Theta_e
308 309 308 308 308 308 309 309 309 309 309 310 310 311 311 311 308 305 306 302 305 304 307 313 313 312 309 308 311 311 313 314 316 318 319 318 319 320 320 319 320 322 324 324 325
308 308 308 308 308 308 308 308 308 309 309 309 310 311 311 310 307 308 306 303 304 314 314 312 311 307 306 309 310 311 310 313 314 316 316 316 316 317 317 317 318 318 323 324 324
307 308 308 308 308 308 309 308 308 309 309 310 310 310 310 310 310 315 315 307 305 310 314 310 309 313 308 309 310 310 312 311 313 314 314 315 316 316 317 316 316 318 321 323 321
308 308 308 308 308 308 309 309 309 309 309 309 309 308 307 310 319 316 314 309 309 313 312 310 314 313 307 309 308 311 310 311 312 312 314 314 315 316 316 317 315 316 319 322 321
306 308 308 308 308 308 309 309 309 309 309 309 309 308 310 311 311 309 315 313 312 309 311 317 318 313 309 306 307 309 309 310 310 310 311 312 313 314 315 315 315 316 318 322 320
303 306 308 308 309 309 309 310 310 310 310 310 308 309 311 307 309 315 314 310 310 313 316 317 316 312 312 309 309 310 310 309 309 310 310 312 313 312 314 314 315 316 321 321 320
298 299 305 307 308 309 308 309 309 309 311 309 306 310 311 302 313 315 312 310 310 312 314 315 315 311 309 310 309 310 310 308 310 311 311 310 311 312 313 315 315 315 316 321 320
300 298 302 305 306 308 308 309 311 309 309 306 308 311 308 306 314 313 311 311 313 311 313 314 314 310 310 309 308 308 308 309 309 311 310 311 312 312 311 312 314 313 313 315 316
302 301 300 305 305 307 308 309 310 310 303 303 309 311 314 316 318 313 312 313 314 314 314 314 311 309 308 307 306 306 307 308 308 309 310 311 311 311 311 311 310 311 312 314 315
305 302 300 305 306 307 308 309 311 312 312 311 311 312 314 318 318 314 314 313 314 313 311 312 306 307 304 306 308 308 308 308 309 309 310 309 310 310 310 311 310 311 310 312 312
307 304 303 301 307 308 309 310 311 312 314 314 314 314 314 317 316 312 311 313 312 311 311 309 308 308 307 307 309 309 309 309 310 311 311 311 311 310 310 309 309 309 308 311 312
308 307 305 305 303 308 309 309 314 313 314 313 315 313 314 317 319 318 310 310 312 311 310 308 308 309 309 309 310 310 310 311 311 311 310 310 310 310 310 310 310 309 309 310 312
309 308 307 306 304 308 312 313 314 313 314 313 316 316 316 316 318 319 312 311 311 311 310 309 310 311 311 311 312 311 311 311 312 312 312 311 311 310 311 312 312 312 311 311 310
309 310 306 307 307 310 310 314 313 314 315 318 316 317 316 316 315 317 313 312 312 311 310 310 311 311 311 311 313 314 313 313 312 313 311 312 312 311 310 311 311 309 309 309 310
311 310 307 305 304 308 314 313 314 314 319 322 316 315 312 313 314 314 313 312 312 312 310 311 311 311 312 312 317 317 316 312 312 311 310 311 310 309 311 311 310 309 309 309 307
311 312 308 307 306 307 312 315 314 320 326 321 314 313 312 312 313 313 313 312 312 312 310 311 314 314 313 317 317 317 316 313 309 308 311 311 310 311 312 310 311 312 314 313 312
311 313 309 308 307 311 311 311 316 322 321 318 315 315 312 312 312 313 313 312 312 311 311 315 317 316 317 318 317 317 318 317 316 314 317 310 311 312 311 312 314 315 314 311 311
312 313 309 312 308 310 314 314 320 318 317 315 314 313 313 311 311 313 313 314 315 315 317 318 318 317 318 319 319 319 318 319 325 321 316 316 317 313 313 315 316 314 311 310 310
311 310 310 316 311 313 312 315 314 320 316 313 312 313 312 311 311 312 312 316 316 314 316 319 320 317 318 318 317 320 320 320 320 318 319 316 315 314 315 316 316 315 314 312 310
308 306 309 317 315 313 312 314 317 317 313 312 312 312 311 311 312 311 312 316 316 315 312 315 317 315 316 317 317 317 318 321 320 323 323 318 317 316 316 317 317 315 313 313 312
304 304 313 317 316 310 313 314 316 314 311 313 311 311 313 312 311 312 312 312 315 314 313 314 314 313 311 314 316 314 318 321 319 321 318 317 318 316 319 317 316 315 315 313 313
302 307 310 314 312 309 311 313 312 313 312 311 312 312 312 310 310 311 312 312 313 314 315 313 312 313 311 309 311 314 316 318 319 320 321 319 316 316 316 314 313 313 314 314 313
302 302 311 311 309 310 312 312 314 314 313 311 310 311 309 309 310 312 311 311 312 313 314 312 309 310 309 307 308 314 315 315 315 315 317 316 315 315 315 315 312 313 313 314 316
301 310 304 304 305 310 311 312 314 311 310 308 308 308 308 308 309 309 310 311 311 313 316 310 306 308 310 310 308 312 313 313 315 317 315 319 316 315 315 315 314 312 312 313 313
302 305 303 304 307 305 312 312 315 315 310 307 307 309 309 308 309 309 310 310 312 313 311 307 310 308 309 311 312 313 313 313 314 315 316 315 316 316 315 313 313 311 311 313 314
304 304 302 303 304 309 311 313 314 314 312 311 307 307 307 306 307 308 309 309 309 308 308 306 311 313 313 312 311 313 314 317 317 317 317 316 316 314 313 311 311 310 310 311 310
301 302 304 307 308 311 312 312 311 311 310 311 310 309 308 306 306 306 306 305 306 307 306 307 307 308 311 311 311 314 317 317 317 316 317 315 314 311 312 312 310 309 310 310 309

GFSSW_925_thetae_078.txt.gz
Theta_e
308 308 308 308 308 308 308 308 308 309 309 309 310 310 310 310 308 306 306 302 304 303 311 312 313 311 308 308 310 310 312 314 316 318 319 317 318 317 318 318 319 318 319 320 323
308 308 308 308 308 308 308 309 309 309 309 309 309 310 309 309 307 306 307 302 307 306 306 310 310 306 306 309 309 310 310 314 313 315 315 315 315 315 316 315 316 316 317 322 325
307 308 309 308 308 308 309 309 309 309 309 309 309 309 308 309 307 314 315 309 302 313 311 312 309 307 306 309 309 309 311 310 312 314 314 314 314 314 315 315 314 316 316 319 322
307 307 308 308 308 308 309 309 309 309 309 308 308 308 309 310 317 312 310 304 305 310 312 308 312 309 306 308 308 311 309 311 312 312 313 314 314 314 314 314 314 314 314 315 318
303 307 307 308 309 309 309 309 309 309 309 309 308 308 309 308 305 311 311 304 312 314 308 314 313 308 307 305 307 308 309 309 309 308 308 309 310 311 312 313 313 313 314 314 317
302 305 307 307 307 308 309 309 309 309 309 309 308 309 310 302 308 313 313 310 310 309 312 316 315 313 312 309 308 308 309 309 309 309 309 310 310 310 311 312 312 312 312 312 316
304 304 304 305 307 307 308 309 310 309 311 310 306 310 310 300 310 313 313 310 310 313 313 315 314 311 309 310 308 309 309 307 309 310 310 308 310 310 311 311 312 312 312 314 319
306 303 301 300 304 306 307 308 308 310 309 310 308 310 307 306 311 312 314 311 310 310 312 313 313 309 309 308 306 308 306 308 307 309 309 310 311 311 311 309 311 312 312 312 312
308 305 305 304 302 306 307 308 308 311 309 306 310 310 314 315 316 313 314 312 312 313 312 313 311 307 307 306 306 303 306 308 308 308 308 309 309 310 309 309 309 309 310 310 311
309 308 308 305 304 303 307 311 311 312 311 310 311 310 312 316 317 316 313 311 313 313 310 309 304 306 303 305 307 308 308 308 308 309 308 308 308 308 308 309 309 308 307 309 310
310 310 310 308 304 303 306 309 310 310 313 313 312 311 312 315 317 311 313 311 312 310 311 308 308 308 307 306 308 308 308 308 308 309 310 309 310 309 308 308 307 308 307 307 308
309 311 311 310 305 304 307 309 313 313 313 312 314 312 313 314 315 317 312 310 310 309 309 308 308 308 308 308 308 309 309 309 309 310 309 309 310 309 308 308 308 308 308 307 307
308 309 311 311 305 305 310 313 313 312 313 313 314 315 314 314 315 316 308 308 310 310 309 309 309 309 310 310 310 310 310 310 310 311 310 310 310 309 309 310 310 309 308 308 308
308 309 311 311 307 309 309 312 312 312 315 316 315 316 316 315 316 316 311 311 311 311 309 309 309 311 310 310 310 312 310 312 313 312 312 310 313 311 309 309 309 309 307 307 306
307 308 311 308 306 306 312 311 313 313 320 319 316 315 314 314 313 313 312 312 312 311 309 310 311 310 310 310 314 315 315 315 312 310 309 310 309 311 309 309 308 309 309 307 308
307 308 310 308 307 305 309 313 313 320 326 320 312 313 313 312 312 312 312 312 312 311 310 309 312 311 310 314 316 316 316 315 308 307 312 313 311 313 312 309 309 309 310 312 310
307 309 310 307 305 310 310 311 315 322 317 317 315 314 311 311 312 312 312 312 311 312 311 312 312 316 316 317 316 316 316 317 317 314 317 312 310 313 311 310 309 310 312 310 309
307 311 308 309 305 309 313 314 320 315 316 313 313 313 312 311 311 312 312 313 314 312 314 314 314 316 317 317 316 318 316 316 319 318 316 315 318 314 312 313 314 313 311 311 310
309 308 309 314 311 312 310 317 312 319 315 313 312 313 311 310 310 312 311 313 314 314 314 317 318 316 317 317 316 318 318 314 313 316 321 315 314 313 313 315 315 314 313 312 310
305 304 310 314 313 311 308 310 316 316 312 312 312 312 311 311 312 311 311 314 315 314 311 312 314 314 315 316 316 316 315 314 318 321 324 318 316 316 315 317 315 314 313 311 311
304 305 310 314 312 307 310 314 315 314 312 312 312 311 312 312 310 311 311 311 314 314 312 313 311 311 310 313 313 312 316 317 318 319 322 322 316 316 317 316 316 313 312 310 310
301 308 310 312 310 305 309 312 313 314 312 312 311 312 313 311 310 311 312 311 312 313 313 312 311 313 311 308 309 308 310 312 312 313 317 319 317 315 313 312 313 313 312 312 310
301 301 309 308 309 308 309 312 314 316 313 309 310 309 308 309 309 310 312 311 312 313 314 312 309 312 310 306 307 312 314 314 312 313 315 317 312 313 313 313 313 312 311 310 311
302 307 302 301 302 308 309 312 313 313 313 314 309 309 310 307 308 308 309 310 311 312 316 310 306 310 310 309 307 310 311 313 311 313 313 314 313 313 313 313 313 312 310 309 309
300 303 301 304 305 306 306 311 313 315 313 312 308 311 313 309 307 308 309 309 310 312 309 306 310 307 307 307 308 310 312 311 312 312 315 313 313 312 313 312 311 310 310 310 309
304 304 301 303 303 306 308 311 313 314 313 314 313 311 309 308 307 306 307 308 307 308 307 305 311 310 312 311 311 312 311 311 315 316 315 314 315 312 311 309 310 309 309 309 308
300 301 302 305 307 308 311 312 312 311 311 311 312 312 312 310 309 306 304 304 306 307 306 306 307 307 311 309 309 310 312 315 315 315 315 316 313 310 309 309 308 308 308 308 308

GFSSW_925_thetae_081.txt.gz
Theta_e
308 309 309 309 309 309 309 309 308 309 309 309 309 309 310 309 308 307 307 302 302 303 312 312 311 310 309 312 312 313 320 319 319 320 320 318 320 319 319 319 319 320 320 320 322
308 308 309 309 309 309 308 308 309 309 308 309 309 309 309 309 308 308 307 302 305 305 308 312 312 310 311 312 313 316 318 318 317 318 319 318 318 318 317 318 318 319 320 319 321
308 308 308 309 308 309 309 309 309 309 309 309 309 308 308 309 310 316 314 305 306 306 309 312 308 309 311 312 313 313 316 315 315 317 317 317 317 317 317 318 318 318 319 319 318
308 308 308 308 308 308 308 309 309 309 308 308 308 308 308 309 318 308 313 307 311 313 310 310 312 311 311 313 312 314 313 315 315 315 316 315 315 314 315 316 316 317 317 318 318
310 310 308 307 308 309 309 309 309 309 309 308 308 307 308 308 307 314 306 304 307 312 310 311 313 310 311 310 310 312 312 312 313 312 312 312 313 314 314 315 316 316 316 317 318
307 309 307 304 305 307 309 309 309 309 309 309 308 308 311 305 306 315 305 311 313 310 310 316 316 315 314 312 312 310 311 312 312 313 312 313 314 313 314 315 316 316 317 317 318
308 308 306 305 303 304 308 308 310 310 311 309 307 309 309 303 309 316 310 310 309 312 313 317 315 312 312 312 311 311 312 311 312 313 313 313 314 314 315 314 315 316 317 318 318
310 311 310 307 306 304 305 307 307 309 311 310 308 310 310 305 308 315 313 310 310 311 312 313 312 312 312 310 310 311 311 313 312 311 312 311 314 314 313 314 315 315 316 317 317
308 308 310 310 306 306 303 308 310 309 312 310 310 311 314 314 314 313 315 312 311 311 311 312 312 311 311 312 312 311 311 312 313 312 312 312 314 314 315 315 315 315 315 315 316
308 308 309 311 309 305 304 312 311 312 310 311 311 313 313 317 316 315 314 312 314 314 312 312 311 314 311 313 311 312 312 312 313 314 313 313 314 314 314 314 315 315 315 315 316
308 307 307 310 309 306 306 310 313 314 314 318 314 312 314 315 315 312 311 312 313 313 314 311 314 315 314 313 312 311 312 313 314 314 313 315 315 315 315 315 316 316 317 316 316
308 307 307 309 308 306 306 312 314 313 316 314 315 314 313 313 315 315 312 314 313 313 312 313 315 314 312 311 311 312 313 314 314 314 313 316 316 316 315 315 316 316 316 317 317
308 307 307 309 307 305 308 312 313 312 316 314 314 316 316 315 316 316 312 311 312 312 312 314 313 311 312 312 313 314 314 314 315 315 316 316 316 316 315 315 315 315 316 317 317
307 306 306 309 307 308 310 312 311 312 318 317 317 317 316 315 316 316 311 312 312 313 312 314 313 312 312 313 313 315 313 314 316 318 318 316 319 317 316 316 316 315 316 317 317
306 305 306 308 308 306 311 309 312 313 322 320 316 315 316 317 314 316 312 312 313 314 313 315 313 313 314 314 313 315 317 318 318 318 318 317 318 316 316 316 316 316 316 316 316
305 305 307 308 307 306 307 312 313 320 325 318 315 315 316 315 314 313 315 313 313 313 313 313 312 313 314 315 317 317 318 319 317 317 318 317 318 317 316 316 316 315 315 315 317
305 307 308 307 306 308 309 313 317 319 317 315 315 313 312 312 313 314 314 315 316 315 316 314 314 314 317 317 318 319 319 318 317 318 318 316 317 316 316 315 316 317 317 317 318
305 308 307 309 307 309 312 317 317 317 317 313 313 313 313 312 312 313 313 314 315 313 315 316 316 318 318 317 317 319 317 316 318 314 314 314 316 314 316 318 317 317 317 317 318
308 308 310 312 312 310 316 318 315 319 314 313 313 313 312 311 312 313 313 314 316 316 316 319 318 317 317 318 317 319 317 318 322 316 317 313 314 316 317 319 318 318 317 318 317
306 305 308 312 312 310 312 311 317 314 313 313 313 313 317 315 315 312 313 314 316 315 313 315 315 314 315 317 318 318 317 319 318 318 316 313 318 318 318 320 318 317 317 317 317
306 312 308 313 310 314 315 315 315 314 312 313 313 314 313 314 312 314 314 313 315 315 314 316 314 313 313 314 313 318 319 319 317 317 318 317 314 318 318 318 317 316 316 315 315
304 314 309 311 316 310 313 313 312 315 313 314 312 311 313 314 315 314 313 312 313 315 315 315 317 317 313 311 311 312 313 314 317 315 319 318 315 312 318 316 315 316 316 314 313
306 306 308 307 317 313 312 313 313 315 315 312 316 313 310 310 312 312 312 311 312 315 317 315 316 314 312 313 311 315 315 315 317 316 316 317 314 314 316 314 314 316 315 314 312
307 311 308 307 307 310 310 313 314 312 312 313 313 312 313 312 310 310 310 311 311 314 315 315 314 314 313 311 312 313 313 314 314 316 314 313 313 314 314 315 315 315 314 312 312
306 307 304 310 311 309 308 311 313 315 315 313 311 313 314 316 314 312 309 310 310 316 312 313 315 314 313 312 311 312 312 312 314 314 315 314 314 315 316 316 315 313 313 312 312
308 309 305 307 307 308 309 312 312 313 312 314 314 314 314 312 311 310 309 310 309 309 313 311 315 314 313 312 311 312 311 312 313 313 313 314 317 314 314 314 314 314 312 312 311
300 301 306 307 307 308 310 311 311 309 310 310 312 312 312 312 311 310 310 310 309 309 311 312 313 312 310 311 312 313 312 312 313 314 316 317 315 314 315 314 313 311 310 310 309

GFSSW_925_thetae_084.txt.gz
Theta_e
310 310 309 309 309 309 309 309 309 309 309 309 309 309 309 309 309 310 310 308 308 307 312 313 311 312 315 317 317 319 321 320 321 320 321 321 321 323 322 321 322 322 324 324 323
311 310 310 309 309 309 309 309 309 309 309 309 309 309 309 308 309 311 309 304 303 304 314 313 313 313 316 317 317 318 319 319 320 320 320 320 320 320 320 321 321 321 321 321 322
311 311 310 309 309 309 309 309 309 309 309 309 309 308 308 308 315 318 315 303 303 305 313 314 313 314 315 316 317 318 318 319 320 319 319 319 319 319 319 320 320 320 321 321 321
310 310 310 309 309 309 309 310 309 309 309 309 309 308 307 311 320 319 315 303 306 313 313 313 314 314 316 316 317 317 317 318 318 318 318 318 318 319 319 319 319 320 319 320 321
309 309 310 309 309 309 309 310 309 309 309 309 308 307 310 314 312 321 311 308 314 314 314 315 316 316 316 317 317 317 317 317 317 317 317 317 317 317 318 318 318 319 319 320 320
308 308 310 310 309 307 309 310 310 309 309 309 308 305 313 313 311 317 312 314 315 316 314 314 315 315 315 315 316 316 315 316 316 316 317 316 317 317 317 317 318 318 319 319 320
308 308 307 310 309 308 307 309 309 309 309 309 308 310 312 309 312 318 315 314 315 312 314 318 316 316 316 315 315 315 316 316 316 317 317 317 317 318 318 318 317 318 318 319 319
310 308 307 307 309 309 307 305 307 309 310 309 306 312 313 306 311 318 314 312 312 315 317 317 316 316 316 316 315 316 316 316 317 316 315 315 316 317 317 317 317 318 318 318 319
309 308 307 306 309 310 306 307 311 310 311 310 312 315 316 314 313 315 316 313 313 313 314 315 316 316 315 316 316 316 315 315 315 315 315 316 316 316 317 317 318 318 318 318 319
309 308 307 305 307 309 306 312 312 312 312 312 313 318 315 313 315 316 317 314 315 316 316 317 317 316 316 316 315 315 315 315 316 316 316 317 317 317 318 318 318 318 318 318 319
306 307 306 305 307 308 309 314 319 320 317 319 318 317 317 317 318 317 316 315 316 317 317 316 317 317 317 316 316 315 315 316 317 317 317 318 318 318 318 319 319 318 319 319 319
301 305 305 305 308 306 309 316 318 316 318 318 317 317 316 316 319 317 315 316 316 316 316 316 316 316 316 316 315 315 316 317 317 317 317 318 319 319 319 319 318 318 319 319 319
300 304 304 306 309 310 311 316 315 315 320 317 317 317 317 317 318 318 317 316 316 316 316 317 316 315 315 315 315 316 317 317 317 318 318 320 320 320 319 319 319 319 319 318 319
301 304 304 306 311 310 313 314 314 314 321 320 319 318 317 318 318 317 315 315 315 316 316 317 317 316 316 316 316 318 317 316 317 319 321 320 321 320 319 319 319 319 319 319 319
303 304 304 305 313 313 314 311 314 316 326 321 319 316 316 318 318 318 315 315 316 317 317 318 316 316 317 317 316 317 318 318 319 320 321 320 321 320 319 319 318 318 318 318 318
302 304 305 310 311 311 310 312 316 323 328 318 318 318 317 318 315 317 318 317 316 316 317 317 317 316 317 317 316 318 318 319 320 321 323 320 320 320 318 317 317 318 318 319 321
304 307 308 310 312 309 312 317 321 319 320 319 318 317 317 317 317 316 317 318 318 318 319 318 318 317 317 318 319 319 321 322 322 321 322 317 316 317 317 318 319 319 320 320 321
307 310 311 311 312 311 316 319 319 320 320 316 316 316 318 315 315 315 316 316 317 317 317 319 320 318 319 319 319 320 321 321 323 319 317 315 315 316 317 318 319 320 320 320 321
309 311 313 311 312 314 319 319 319 319 316 317 317 318 318 318 318 316 316 316 316 317 318 320 320 318 319 318 318 320 320 319 319 317 317 315 314 316 319 319 318 319 319 319 320
309 312 312 311 313 316 317 315 318 316 315 316 317 316 320 318 318 317 317 317 316 316 316 317 318 316 317 317 318 316 317 319 318 321 317 313 313 314 317 318 317 317 317 318 318
312 318 311 312 314 318 319 318 317 316 316 315 316 317 317 316 317 318 318 316 315 316 316 316 316 316 315 315 315 318 317 317 318 320 320 317 314 316 315 315 318 317 315 317 318
313 318 311 311 322 317 318 316 312 317 317 317 317 315 316 317 318 317 318 318 315 315 316 316 317 318 315 314 314 314 314 316 321 318 319 319 318 315 316 317 318 316 316 317 318
314 314 312 313 323 319 317 316 315 317 317 317 318 318 317 316 315 317 317 315 314 314 315 317 316 319 316 315 315 315 314 314 316 317 320 320 317 314 314 315 316 317 317 318 317
313 317 315 314 313 316 317 318 317 315 316 315 316 316 316 317 316 315 314 313 312 313 317 317 317 317 317 314 315 315 314 314 316 319 317 316 315 314 315 316 317 318 318 317 316
312 314 311 316 315 314 314 315 316 316 315 315 316 314 315 318 316 317 315 312 312 313 314 315 319 317 315 314 314 314 314 313 313 314 316 315 315 314 315 317 317 317 317 316 316
313 312 312 313 312 312 311 315 315 314 313 315 315 314 315 316 316 317 315 315 314 312 312 315 315 314 315 314 314 314 312 312 312 313 314 314 315 314 316 316 316 316 316 315 314
307 308 311 311 311 311 312 311 313 310 312 313 312 312 312 312 312 313 313 312 314 314 313 314 315 316 316 312 312 313 315 314 314 314 314 316 316 316 316 315 315 314 314 313 313

GFSSW_925_thetae_087.txt.gz
Theta_e
312 311 311 311 310 310 309 310 310 310 310 310 309 310 310 310 310 311 313 310 310 310 308 316 312 314 316 319 320 320 322 324 325 327 328 327 328 325 327 326 326 326 327 328 326
311 312 311 310 310 310 310 310 310 310 310 310 309 310 309 309 310 312 311 311 309 308 314 316 315 315 318 319 319 320 320 321 322 322 324 323 324 325 326 326 325 325 325 324 324
309 311 313 313 311 309 309 311 311 310 311 310 310 309 309 309 318 321 317 313 308 305 316 315 315 316 318 319 319 319 320 320 320 321 321 322 321 322 322 322 323 324 324 324 324
308 308 308 312 311 310 309 310 311 311 310 310 309 309 307 312 322 323 313 314 302 309 316 316 317 317 318 319 319 319 320 320 321 320 320 319 320 320 320 321 322 322 322 322 323
309 308 307 307 310 311 309 308 309 310 310 309 308 307 311 318 318 317 311 304 310 315 315 317 317 317 318 319 319 319 320 320 319 320 319 319 319 319 320 320 320 320 321 321 321
309 308 307 307 307 310 310 308 309 309 310 310 310 306 315 318 316 314 314 313 315 316 316 317 317 318 318 319 319 320 319 320 319 319 319 319 319 319 319 319 319 320 320 321 322
307 309 308 307 306 308 311 309 308 308 310 311 310 310 315 316 316 315 315 316 315 317 317 316 318 317 319 318 318 318 318 318 319 319 319 319 319 319 320 320 320 320 320 321 321
302 307 307 306 306 307 310 309 305 306 308 311 309 313 318 310 315 318 316 314 315 314 317 319 318 318 319 319 318 318 318 319 320 319 319 317 318 319 320 319 319 320 320 320 320
300 302 304 305 305 307 310 307 311 311 310 310 313 317 320 312 315 319 316 315 315 317 317 317 317 318 318 319 318 318 319 319 319 319 318 317 318 319 319 319 320 320 320 320 320
299 299 302 304 305 307 308 313 313 314 312 313 315 320 319 313 316 316 317 315 316 317 318 317 318 319 318 318 319 319 319 317 318 318 318 318 318 319 320 320 320 321 320 320 320
299 300 303 304 305 307 308 316 323 323 318 323 321 320 316 317 316 317 318 316 317 318 319 318 319 319 318 318 318 318 318 318 319 319 319 319 319 320 320 320 320 321 321 321 321
301 301 303 304 305 308 309 317 320 319 320 322 319 318 318 318 318 318 317 317 318 320 319 320 318 318 319 319 318 318 318 318 318 319 319 320 320 321 321 321 321 321 321 321 321
300 300 303 305 308 309 315 316 318 318 322 319 318 318 318 318 320 320 318 318 318 318 319 319 320 317 317 317 317 318 318 318 319 320 320 320 322 323 323 322 321 321 321 321 321
301 303 305 307 311 317 315 315 318 318 326 322 320 320 318 319 320 319 317 318 318 318 319 318 318 316 317 317 318 319 319 319 319 320 322 323 324 323 323 323 322 321 321 321 321
302 303 306 305 313 317 317 316 317 319 334 322 321 318 319 319 319 318 317 317 317 317 318 319 318 318 318 319 319 320 319 319 321 322 323 323 325 324 323 322 322 320 320 320 320
305 307 309 313 313 315 315 315 318 327 333 321 320 320 319 320 317 319 318 316 318 318 319 319 319 318 319 319 319 319 320 320 321 322 324 324 325 324 322 320 320 320 321 320 322
308 310 311 314 316 314 316 320 327 325 322 321 320 319 319 320 318 319 319 319 319 319 318 319 319 319 319 320 321 321 323 325 325 325 326 322 320 320 319 319 320 320 320 321 321
309 311 314 314 315 316 318 324 327 321 322 319 319 319 320 319 319 318 319 320 319 319 320 320 323 321 320 320 321 321 322 326 328 326 325 323 320 318 318 319 320 319 321 321 321
310 317 316 315 317 318 322 326 324 323 319 318 319 320 321 319 319 319 319 320 319 319 319 319 321 320 319 319 319 320 321 321 324 322 321 318 318 318 319 319 319 319 318 318 319
310 318 317 316 319 320 323 318 321 318 317 318 321 320 322 323 322 322 321 321 319 318 318 320 323 321 320 319 319 319 317 322 322 324 324 317 316 316 319 319 317 316 317 317 316
314 322 316 317 319 323 323 322 320 318 317 318 320 320 320 320 320 321 322 320 319 319 319 319 321 322 318 318 318 320 320 318 318 321 326 323 317 317 317 317 317 317 318 318 318
318 323 316 318 325 322 321 320 313 318 319 319 320 320 321 319 320 321 319 319 318 318 319 319 320 323 320 319 316 317 317 318 324 323 320 321 319 318 317 316 317 316 317 317 318
318 318 316 317 325 323 321 320 318 319 320 319 320 319 320 321 321 319 319 318 318 319 318 319 321 322 321 319 318 317 315 315 317 318 320 324 320 317 316 316 316 316 317 318 319
317 320 319 318 318 321 320 320 319 318 317 318 319 319 319 320 318 320 318 317 316 316 316 317 322 323 324 322 321 319 316 316 317 320 320 319 318 317 316 316 316 316 318 317 317
316 320 316 320 320 319 318 318 319 319 318 317 319 317 317 319 319 318 318 319 316 316 315 317 322 320 319 320 318 317 315 315 316 316 317 316 315 315 316 316 317 318 317 317 317
315 316 316 316 317 317 315 319 318 317 316 317 317 315 317 318 317 319 318 319 320 318 316 316 321 319 321 318 316 315 314 314 315 315 315 315 315 315 317 318 317 317 316 316 315
312 312 315 314 316 315 316 315 315 313 314 314 314 314 315 315 313 315 315 316 317 318 317 318 319 319 319 317 316 315 314 314 314 314 316 316 316 317 317 317 316 315 315 314 314

GFSSW_925_thetae_090.txt.gz
Theta_e
312 313 314 314 313 311 310 311 311 311 310 311 311 311 311 311 310 312 314 310 312 309 310 311 312 311 314 318 319 321 323 325 326 328 329 330 331 330 328 327 328 328 328 327 327
309 310 310 313 314 312 311 310 312 311 311 311 311 311 311 310 310 312 312 312 312 310 310 312 315 313 316 317 319 320 322 322 323 325 325 325 325 328 327 327 329 328 327 326 325
309 309 308 308 311 313 312 311 311 312 311 311 311 310 310 309 317 323 317 314 310 310 309 314 317 315 316 317 318 319 320 320 321 322 323 322 323 323 324 324 327 327 326 326 326
306 309 309 308 307 309 313 312 311 312 311 311 310 309 309 311 325 323 314 314 313 309 308 314 319 316 316 317 319 319 319 320 320 321 321 321 322 321 321 322 322 323 323 323 324
302 306 308 308 307 306 308 312 310 310 312 310 310 310 310 320 320 315 311 314 311 307 311 318 317 317 317 318 319 319 320 320 320 320 320 321 320 319 319 321 321 321 321 321 322
300 301 305 306 306 305 305 311 312 309 309 311 311 310 313 320 317 315 313 310 309 309 316 318 318 318 318 319 319 320 320 320 320 320 320 320 319 319 319 320 320 321 320 321 322
299 299 300 303 305 304 305 309 310 309 308 309 312 311 314 317 315 316 315 314 315 316 318 317 318 318 319 319 320 320 319 320 320 320 320 320 319 319 320 320 320 320 321 321 322
299 299 300 301 303 304 305 308 308 306 308 310 312 312 318 315 314 319 316 317 317 317 318 317 319 319 319 320 319 319 319 319 320 319 319 319 319 320 321 321 320 320 320 321 322
305 300 299 302 304 304 305 308 311 312 311 311 312 314 321 311 313 319 317 316 315 316 319 319 319 319 319 320 320 319 318 319 319 320 320 319 319 320 321 320 320 321 321 321 322
308 303 300 302 303 304 306 310 314 314 313 314 315 319 321 320 312 318 318 316 316 318 318 318 318 319 319 319 320 319 319 319 320 320 320 318 318 319 320 319 320 321 321 322 322
310 305 301 303 304 306 309 314 322 323 320 321 323 320 317 315 316 317 318 317 317 318 318 319 318 320 320 320 319 319 319 320 319 319 319 319 320 320 320 321 321 321 322 323 324
311 307 302 305 306 307 308 317 320 320 321 322 320 320 319 319 318 317 318 317 317 319 319 320 319 319 319 319 319 318 318 320 319 319 319 319 320 320 321 321 322 324 323 323 323
311 307 303 305 307 309 314 318 318 319 321 323 322 319 319 318 319 318 318 318 319 320 320 320 321 319 318 319 319 319 319 318 318 319 320 320 321 322 322 323 324 323 323 322 324
311 308 305 306 310 319 318 318 316 319 324 322 319 320 319 318 320 320 319 318 319 319 319 320 319 319 318 318 318 318 318 319 320 320 320 321 323 324 323 324 324 324 324 322 324
311 308 309 307 313 319 318 317 317 320 338 324 321 320 319 319 321 319 319 318 318 318 317 319 319 319 318 318 319 319 320 320 320 322 322 322 323 324 324 324 324 323 322 322 322
310 308 310 316 314 317 316 317 319 326 336 323 321 319 320 319 320 320 319 317 318 317 318 319 319 319 319 319 320 320 320 321 322 322 324 323 324 324 324 323 322 322 321 321 321
310 309 310 313 319 316 317 320 328 330 326 323 322 320 320 320 320 320 319 318 317 319 319 318 318 319 319 319 319 320 322 324 327 326 325 325 326 325 322 321 321 321 320 320 321
310 312 314 315 317 318 319 326 331 324 324 321 320 320 321 321 321 320 321 321 320 319 320 322 323 322 322 321 321 322 323 325 330 329 326 324 327 324 320 320 321 320 321 321 320
310 318 319 319 318 320 324 330 327 324 321 320 320 321 321 321 320 321 321 320 321 321 324 322 321 320 321 321 320 321 321 322 325 324 325 323 322 320 320 320 321 321 320 319 319
309 317 322 318 319 322 326 327 322 320 320 319 321 322 322 324 323 322 322 324 323 321 320 321 323 322 322 321 320 320 320 324 322 327 326 322 321 320 321 320 319 318 317 318 318
313 324 319 320 320 324 328 323 322 320 319 320 321 321 321 321 321 324 323 322 321 321 320 321 323 324 322 323 321 319 320 320 320 327 327 323 321 319 319 318 318 317 317 317 317
317 324 319 319 325 328 322 322 314 318 319 320 320 320 321 321 324 322 321 322 321 320 321 321 323 325 323 322 319 319 319 323 327 323 322 324 322 321 319 317 317 317 317 317 318
317 319 319 318 325 326 323 321 319 319 319 320 320 320 320 320 321 322 322 319 319 321 321 320 323 326 324 322 320 321 318 318 320 323 325 327 322 318 318 319 317 317 316 316 318
316 320 322 320 320 321 321 321 320 320 319 319 320 320 320 320 320 322 321 320 318 318 324 318 322 326 328 326 324 323 321 318 318 321 318 318 319 319 321 318 317 318 318 318 319
317 319 320 319 322 322 320 319 319 319 319 318 319 319 320 320 320 321 319 320 320 319 316 318 321 320 320 321 322 322 323 320 319 317 318 317 317 317 317 317 318 319 318 317 316
318 316 316 318 317 319 316 319 320 319 318 318 318 317 317 319 318 320 318 318 320 320 320 319 320 320 322 320 320 320 320 320 317 316 315 315 316 316 317 317 318 317 316 315 316
314 313 315 316 317 318 317 319 317 316 315 316 316 316 315 315 315 315 316 316 316 318 320 321 321 321 323 319 318 320 318 318 316 316 315 315 316 317 319 318 317 317 316 315 314

GFSSW_925_thetae_093.txt.gz
Theta_e
308 309 309 308 307 311 313 312 312 312 311 311 311 311 311 311 311 310 311 308 310 306 310 310 311 312 311 310 312 315 316 319 320 323 325 326 329 330 328 326 326 326 326 326 326
305 307 309 308 308 306 308 314 313 312 312 311 310 311 310 310 309 310 310 308 308 310 311 311 310 312 308 310 311 314 316 318 320 322 323 323 322 326 325 326 325 327 327 326 325
301 303 306 308 308 306 306 308 314 312 312 312 311 310 310 309 313 318 316 317 311 312 310 310 310 311 308 310 312 314 315 317 319 320 321 320 321 320 320 323 323 323 323 322 322
300 300 301 304 306 306 305 306 312 314 311 313 312 310 309 310 323 321 311 314 313 312 311 310 311 314 310 310 313 313 315 316 316 318 319 319 320 323 320 318 319 319 320 321 320
298 299 299 300 301 304 304 306 308 313 310 310 312 312 310 314 317 318 311 314 312 310 309 308 310 314 312 311 312 314 315 316 316 316 315 319 319 319 318 318 319 319 319 319 318
301 302 301 300 300 302 304 305 307 311 311 310 312 311 312 317 318 314 311 312 312 309 307 309 314 316 312 313 312 314 315 316 316 316 315 317 318 318 318 318 318 318 319 318 319
310 308 304 302 301 303 304 305 306 310 309 309 312 312 311 312 316 315 313 310 309 308 310 312 315 316 313 313 315 316 316 316 316 317 317 319 317 317 317 317 317 317 318 319 319
310 310 306 301 301 302 303 304 307 310 310 310 312 313 314 314 314 314 315 314 315 313 312 315 317 317 317 315 317 317 317 315 315 317 317 316 316 318 317 317 318 318 318 319 318
312 311 311 304 305 305 306 306 310 313 313 313 311 312 318 316 314 314 317 317 316 316 317 319 318 318 316 316 315 317 314 316 316 315 317 315 316 317 318 317 318 318 318 319 318
311 312 311 307 307 307 307 308 312 313 313 313 315 316 318 321 312 313 319 317 315 315 318 317 316 316 314 315 315 317 315 315 316 317 317 315 316 316 317 317 317 316 317 318 318
312 311 311 307 308 307 307 310 317 319 318 318 320 318 318 320 314 315 319 317 316 317 316 316 314 315 315 316 316 317 317 317 318 317 317 316 316 316 318 318 318 316 316 317 318
311 311 311 307 307 307 307 311 317 319 321 321 320 319 320 319 316 317 318 316 316 316 316 317 315 316 318 319 319 317 318 317 318 319 317 318 318 319 319 318 318 318 319 320 321
311 311 310 307 307 308 309 313 314 318 319 320 322 322 319 318 319 317 317 317 317 316 317 317 319 319 318 317 319 318 319 318 317 317 318 319 318 319 319 319 319 319 318 318 318
311 311 310 308 314 316 316 319 317 317 321 325 323 321 318 318 318 319 317 318 318 318 318 318 318 319 318 318 317 317 317 318 317 319 318 319 318 319 319 320 319 319 318 318 319
311 310 310 308 311 314 317 317 317 319 338 323 320 319 317 317 319 320 319 318 318 318 317 317 318 318 318 317 317 317 320 320 320 318 318 319 319 318 319 320 321 319 319 317 317
310 310 309 312 314 316 316 317 318 325 336 324 320 320 318 318 319 319 319 317 317 317 316 316 317 318 318 318 318 320 319 320 320 318 319 319 320 320 320 321 320 318 318 318 318
310 309 308 310 317 318 318 318 326 332 327 324 320 319 319 319 319 319 319 317 317 316 317 317 317 317 319 320 318 319 318 320 321 322 323 322 325 321 323 320 319 318 318 318 317
309 310 314 314 315 317 320 323 332 329 325 321 321 320 320 319 319 319 319 318 316 316 317 320 322 320 321 322 321 321 320 326 331 326 324 323 327 327 320 319 318 319 318 318 319
309 311 316 319 318 318 322 329 331 325 321 320 320 321 320 321 322 321 319 320 320 318 323 324 323 321 321 321 319 320 320 320 321 323 323 322 321 321 321 320 319 319 318 317 316
309 311 318 321 320 321 325 328 327 321 319 320 321 322 323 324 323 323 324 323 324 322 318 320 322 321 322 322 321 320 319 324 322 327 326 322 321 324 321 319 317 316 316 316 316
310 320 321 319 319 323 326 327 323 320 318 320 321 322 321 321 323 324 326 324 323 321 318 320 321 322 322 323 323 323 319 319 321 327 322 323 321 320 318 315 316 315 314 313 312
311 323 319 321 324 325 327 326 316 319 319 319 320 321 321 321 321 323 324 323 321 321 320 322 322 324 323 320 321 321 319 320 324 324 323 322 321 320 320 315 315 312 312 313 314
311 316 319 318 321 323 326 325 320 319 319 320 320 321 321 321 321 321 322 320 319 320 322 321 322 323 322 321 320 322 320 319 322 322 324 324 324 320 317 316 316 315 314 314 313
311 321 321 320 318 321 322 323 320 320 319 319 320 318 320 320 319 321 321 320 319 320 323 319 321 322 324 328 325 326 324 321 317 316 317 317 316 316 316 317 317 315 313 312 311
313 321 317 320 318 319 321 320 319 320 320 318 319 319 319 320 319 319 321 319 319 321 317 317 319 319 318 319 321 323 324 324 323 321 318 316 317 316 315 316 314 313 312 312 312
314 316 314 314 316 318 319 319 319 320 318 319 319 318 316 318 317 318 317 318 318 318 321 319 318 318 320 319 319 320 321 322 322 322 320 318 316 315 315 314 313 312 313 312 312
312 312 313 316 316 317 318 318 317 315 316 316 315 314 315 315 314 313 313 314 316 317 318 320 320 320 320 320 320 322 319 319 318 319 317 316 317 314 314 314 312 312 311 311 310

GFSSW_925_thetae_096.txt.gz
Theta_e
303 303 304 306 308 307 306 309 314 312 311 312 312 310 311 310 309 309 309 305 305 304 309 309 311 309 313 309 310 312 312 316 316 318 320 323 327 329 329 326 325 327 325 325 325
300 301 301 302 304 306 306 307 311 314 312 311 312 312 310 310 308 309 307 308 306 308 305 309 309 310 308 307 308 309 312 314 315 317 320 321 323 325 324 323 324 325 324 324 323
299 299 299 300 300 301 303 306 311 311 313 312 312 312 310 308 310 315 319 316 312 310 311 309 309 310 308 307 308 310 312 314 316 315 318 320 321 324 321 320 321 319 320 321 320
300 301 302 301 300 300 302 303 307 310 312 312 311 311 310 310 317 321 314 311 313 309 313 310 308 311 307 307 307 310 311 312 314 315 319 320 318 322 324 321 318 318 318 318 317
309 310 308 305 302 301 302 303 304 310 311 311 311 312 309 311 313 310 315 313 313 313 310 308 308 310 314 309 308 309 311 312 313 314 313 316 320 322 322 325 319 318 318 317 317
311 311 311 309 303 301 302 303 304 304 309 311 312 311 311 310 313 317 311 314 314 312 308 306 308 309 313 313 309 310 311 313 312 313 312 314 315 316 318 318 318 318 317 317 318
312 312 312 311 308 307 307 307 307 306 309 311 312 312 312 311 312 314 311 309 312 311 306 307 309 314 314 311 311 311 311 312 313 312 313 313 315 316 317 317 317 317 315 316 317
312 312 311 311 310 309 309 308 307 308 311 312 311 313 312 313 315 314 313 310 309 309 309 312 309 311 313 313 313 312 312 312 313 314 315 314 315 316 316 316 316 316 315 316 317
312 311 311 311 311 310 308 307 308 311 314 312 311 312 315 316 317 315 314 313 314 311 308 312 313 312 315 314 312 313 312 313 314 313 315 315 315 316 316 316 315 315 315 316 316
311 311 311 311 312 309 307 308 311 313 314 313 313 313 315 318 312 313 314 314 315 314 314 316 312 314 311 312 314 315 315 314 315 315 314 314 314 314 317 315 315 315 315 316 316
311 310 310 310 311 309 307 309 317 317 315 316 317 316 317 319 315 311 312 318 315 315 315 314 312 313 313 313 315 315 316 315 315 315 314 315 315 314 314 316 316 315 315 315 315
310 310 310 310 309 309 307 307 316 317 317 318 319 316 317 318 314 313 315 316 315 314 314 314 313 313 315 316 316 317 316 315 315 316 315 313 313 315 315 315 314 315 314 314 316
309 310 310 310 309 312 309 311 314 313 315 319 321 321 320 318 318 316 317 315 315 315 315 314 316 316 316 316 317 316 315 316 316 316 316 316 316 317 317 318 317 315 316 315 319
309 309 309 309 314 312 313 317 317 316 318 323 322 322 319 316 317 317 316 316 316 316 315 315 317 318 318 318 315 315 316 318 319 316 316 317 318 317 318 317 318 317 317 317 317
309 309 309 308 309 311 317 316 316 316 333 326 322 320 316 316 318 318 317 316 317 317 317 316 316 316 317 316 316 315 319 319 319 316 316 317 316 316 317 319 318 316 316 315 315
309 309 308 309 310 317 317 317 317 323 331 327 319 318 317 316 317 318 317 316 316 316 316 315 315 317 317 317 316 318 317 315 316 315 317 317 317 317 317 318 318 317 316 316 315
308 309 309 308 312 318 315 314 323 328 328 324 319 317 317 318 318 318 318 316 316 316 315 316 316 316 318 320 318 315 314 316 318 320 320 322 321 318 319 318 317 316 317 316 315
308 309 310 313 313 312 317 320 330 329 328 325 319 318 318 318 318 318 318 316 315 315 316 316 320 320 320 320 320 319 316 318 324 325 323 319 325 324 318 317 317 318 317 315 314
308 309 310 315 317 315 316 325 328 329 320 320 320 319 319 319 319 319 317 317 317 314 316 322 323 320 320 320 318 319 318 318 320 321 321 320 321 320 319 319 318 317 316 315 314
308 309 313 318 320 318 320 325 327 320 319 319 321 321 321 321 321 324 320 323 324 319 317 319 321 320 322 321 320 319 319 321 319 325 324 322 322 323 319 319 317 316 315 313 313
308 313 320 320 320 317 323 325 326 318 318 319 320 320 320 320 322 324 326 324 323 320 318 318 318 320 319 322 321 321 321 318 320 324 322 321 321 318 317 314 313 312 312 310 308
307 313 320 319 318 318 323 324 323 321 318 318 319 320 320 320 320 322 321 320 321 319 321 320 318 322 321 319 319 320 319 317 322 321 320 318 318 319 317 316 312 310 311 310 310
306 309 312 318 319 319 319 325 324 322 317 318 319 319 318 319 320 321 321 318 319 320 320 318 319 320 319 316 319 322 321 318 318 317 320 322 319 318 318 316 314 311 310 310 309
306 314 315 314 315 318 320 322 320 320 319 318 318 317 317 318 316 319 320 320 318 320 323 318 318 318 319 323 322 325 324 322 322 318 319 319 318 316 315 315 313 311 309 308 308
307 314 312 316 316 313 315 318 318 319 318 316 318 317 317 318 316 319 317 317 318 320 317 314 318 319 318 318 320 323 323 322 324 323 319 317 313 313 314 313 312 310 311 311 309
309 314 312 313 315 315 317 318 319 318 317 317 317 316 314 316 316 317 315 315 317 315 318 315 315 317 318 318 318 319 320 322 323 323 324 321 320 314 313 310 311 311 310 310 309
309 310 310 312 313 314 315 315 317 314 315 315 313 313 313 313 312 311 311 311 312 315 315 316 317 319 319 319 319 320 319 318 318 321 321 321 316 313 312 311 310 309 309 309 308

GFSSW_925_thetae_099.txt.gz
Theta_e
299 299 299 300 300 301 303 306 309 311 312 312 312 311 311 310 309 309 308 306 307 305 311 309 312 309 311 310 309 309 312 314 316 318 318 318 322 329 326 328 327 324 326 328 337
299 300 301 302 301 300 300 302 307 310 310 312 311 311 311 309 308 308 305 305 305 306 310 307 308 308 308 308 307 308 309 312 313 316 317 317 317 323 327 327 328 322 323 322 340
308 310 310 308 306 303 302 302 304 309 310 310 312 311 310 310 307 309 318 315 308 309 307 306 309 308 309 306 306 307 311 311 313 313 314 316 316 320 325 325 326 318 317 320 320
310 311 311 311 310 307 302 302 303 307 310 309 310 310 310 310 302 320 320 312 315 310 311 309 307 308 307 307 306 309 309 311 312 313 315 316 316 320 324 328 322 317 317 317 317
312 312 311 311 311 310 307 308 308 307 308 309 310 310 310 310 309 305 313 313 316 311 315 307 307 308 311 307 306 308 308 309 311 311 311 313 319 321 322 323 323 318 318 317 315
312 312 312 311 311 311 311 310 309 309 309 310 310 310 310 312 310 315 316 315 311 313 312 306 306 307 311 312 307 307 308 309 309 309 311 312 312 319 320 322 321 320 316 316 316
312 312 311 311 311 312 313 311 310 308 310 311 310 310 312 312 312 319 313 314 314 312 309 309 307 311 310 314 310 309 310 309 310 309 310 311 312 315 317 322 322 324 324 316 315
312 313 312 311 312 312 310 309 309 308 311 312 311 311 312 313 312 313 315 310 313 311 309 309 307 309 313 313 314 311 309 310 311 310 311 313 313 313 315 317 321 321 319 316 315
311 311 311 311 312 310 309 309 308 309 312 312 311 311 313 314 316 314 314 311 311 312 310 308 308 309 311 313 310 310 310 309 311 310 312 312 313 314 314 314 316 315 316 315 314
310 309 310 310 311 309 309 309 311 313 312 312 313 312 313 316 316 315 314 313 312 309 309 308 308 311 309 310 314 312 313 312 313 313 312 312 313 313 314 314 314 314 314 314 315
309 309 309 309 311 309 309 310 314 314 314 315 316 314 315 317 317 311 314 313 313 312 312 313 311 312 312 312 314 314 314 314 313 313 315 312 312 313 312 314 314 313 313 313 315
309 309 309 309 310 309 308 305 313 316 317 316 317 315 315 315 319 312 311 316 314 312 313 313 313 312 313 313 315 315 316 315 314 314 313 312 312 312 312 314 313 313 313 313 319
309 309 308 308 309 310 309 311 312 313 314 316 318 319 318 317 320 319 314 315 314 314 313 313 314 315 315 315 315 314 315 314 315 315 315 315 314 315 315 316 315 315 314 314 319
309 309 308 308 311 310 310 315 315 314 317 321 323 321 319 316 317 316 316 315 315 314 313 313 313 315 316 316 315 315 314 316 317 315 315 315 315 315 317 316 317 315 315 317 317
308 308 308 310 308 309 315 315 315 314 326 326 322 319 315 316 316 316 315 316 316 315 314 315 316 315 316 316 315 316 315 317 316 315 314 316 314 314 315 318 318 316 316 316 315
308 307 308 308 308 312 314 315 314 322 329 327 320 318 316 316 316 317 317 315 315 315 315 314 315 315 315 316 316 316 315 313 313 312 315 316 314 314 315 316 317 316 315 315 314
307 307 307 308 309 313 313 314 321 327 326 328 319 316 317 316 317 316 317 316 316 316 315 315 315 315 316 318 317 314 312 314 315 316 316 318 318 315 317 316 317 315 315 314 314
306 307 308 308 310 312 314 319 327 327 329 326 319 316 317 316 316 317 317 316 314 314 315 315 317 319 320 319 318 317 314 316 319 321 320 318 322 321 317 315 315 315 315 313 312
306 308 308 310 310 312 316 324 325 327 325 320 320 318 317 318 318 318 317 317 316 313 315 317 321 319 320 319 318 318 319 317 320 320 320 318 319 318 318 317 316 315 314 314 312
307 307 309 313 313 314 319 324 325 326 319 320 321 320 320 320 318 317 317 319 320 315 313 317 321 320 320 320 320 318 317 320 318 324 324 321 321 320 319 318 317 316 315 313 309
306 309 313 316 317 316 322 323 325 324 319 320 319 320 320 320 322 323 324 324 322 319 315 316 317 319 319 320 320 320 319 318 319 320 323 323 321 317 318 316 315 310 308 308 307
304 308 314 316 318 316 320 322 320 323 321 318 318 319 319 319 320 321 321 323 319 320 321 319 316 319 319 318 318 319 320 317 322 323 319 318 320 316 315 315 312 310 310 309 306
305 306 312 315 321 319 319 321 324 323 322 319 319 319 317 318 319 320 320 318 319 320 320 318 317 319 318 313 318 321 321 317 315 316 319 320 320 316 315 313 310 310 309 308 308
306 312 313 313 315 316 316 320 321 321 321 318 317 317 317 317 314 319 320 318 319 321 321 317 317 318 320 317 319 323 323 322 319 320 318 318 318 316 315 313 310 308 308 309 308
306 312 312 315 317 316 316 317 319 321 319 316 317 317 317 317 316 317 316 315 317 317 316 313 318 319 318 319 319 321 321 321 323 323 324 318 314 313 312 310 309 309 309 310 309
307 314 311 314 315 317 318 318 319 318 317 318 318 315 314 315 315 316 315 315 316 314 317 313 315 317 318 317 317 318 317 320 320 320 323 322 322 311 310 309 310 310 310 309 308
308 309 310 312 312 314 315 316 316 318 315 314 314 313 314 313 312 311 311 310 312 314 314 314 314 315 318 318 318 319 318 317 318 319 320 323 320 311 311 311 309 309 308 308 307

GFSSW_925_thetae_105.txt.gz
Theta_e
312 312 311 311 311 312 312 310 304 308 311 311 311 311 311 311 311 310 309 307 306 305 309 307 307 307 310 313 312 312 314 314 315 317 318 320 320 321 322 328 329 328 323 327 352
312 312 312 312 312 311 312 314 312 312 312 312 311 309 311 310 310 309 312 306 305 305 311 309 308 308 311 313 312 316 314 314 315 316 317 318 319 321 322 324 327 327 325 350 354
312 312 313 314 314 313 313 313 313 313 312 311 311 311 311 310 309 309 319 311 305 308 309 308 309 309 309 312 312 311 314 314 315 316 317 316 318 318 321 323 324 328 323 329 351
313 313 314 313 313 314 313 312 311 311 311 310 310 310 310 310 314 320 318 305 306 308 308 308 309 309 309 309 311 312 312 313 314 315 317 317 317 317 319 321 323 324 323 324 328
313 313 312 313 312 312 312 311 310 310 310 309 309 310 310 310 311 307 311 310 312 309 308 309 309 310 309 310 310 311 311 311 313 314 314 314 315 315 316 318 321 322 326 325 324
312 312 312 312 312 311 310 310 310 310 309 309 309 310 309 312 310 310 315 318 317 312 307 308 310 311 311 312 311 311 311 311 311 312 313 314 314 314 314 315 316 320 322 325 326
311 310 311 311 310 310 310 309 309 309 309 308 309 310 310 313 313 320 323 319 317 312 308 307 308 311 312 314 313 313 313 315 312 311 311 312 313 313 314 315 317 323 325 327 328
311 311 310 310 310 309 309 309 309 310 309 309 310 310 312 309 310 312 316 316 316 309 309 307 308 310 313 313 314 315 312 317 317 313 311 312 311 313 315 316 316 318 320 325 328
311 311 309 309 311 309 309 308 310 311 309 310 310 309 313 311 313 312 313 315 314 311 309 309 309 310 311 314 315 314 318 316 316 313 313 312 313 315 316 316 317 320 322 324 327
311 310 309 310 310 309 308 308 310 311 311 310 311 311 312 315 314 314 313 313 313 312 311 309 309 310 311 313 318 318 315 315 316 315 313 313 315 316 316 316 318 321 320 322 325
308 309 308 310 310 308 308 309 312 314 311 314 314 313 313 315 315 314 313 311 312 311 310 309 310 313 315 315 316 316 317 318 318 317 314 315 315 316 316 319 319 321 320 324 327
307 307 307 309 309 308 307 309 313 314 317 315 314 314 314 315 318 314 314 314 314 315 312 311 312 312 314 314 315 316 317 318 318 316 315 316 316 317 316 317 321 319 322 324 326
308 306 307 308 306 308 308 309 310 312 315 316 316 316 316 315 318 318 315 314 315 315 314 315 315 315 314 316 316 317 317 318 317 317 317 316 318 317 317 316 316 317 320 321 324
308 307 307 306 307 306 307 310 311 311 321 319 318 319 317 318 319 319 314 314 315 316 315 316 315 314 315 316 317 318 317 317 318 318 319 318 318 320 319 317 317 318 319 319 320
307 307 308 306 306 306 307 310 312 311 325 319 321 318 317 319 318 318 313 314 316 316 315 315 315 315 316 317 317 318 317 318 319 319 319 320 319 320 319 319 320 321 320 321 323
306 307 308 306 305 305 305 309 312 322 323 323 321 320 320 318 316 315 313 315 317 317 316 315 315 316 317 317 316 317 318 318 318 319 320 319 319 319 320 320 322 321 321 321 322
306 306 306 306 306 308 308 309 321 323 319 327 323 320 320 319 318 318 317 317 318 318 318 317 317 317 316 318 317 317 320 321 321 321 320 319 320 320 320 321 320 322 322 322 324
305 305 305 305 305 306 311 319 324 319 318 320 321 320 320 318 319 318 318 317 317 318 318 318 317 317 317 317 318 318 320 320 321 320 320 321 322 321 321 320 319 321 322 323 323
305 305 305 306 307 306 311 323 321 319 318 324 320 322 322 318 319 319 319 318 317 317 318 319 318 319 320 319 319 319 319 318 322 321 321 321 322 322 320 320 321 321 322 322 319
305 304 304 307 307 308 311 316 320 320 322 322 324 323 323 320 318 319 319 318 318 317 317 319 321 320 321 320 319 320 319 324 322 325 323 322 323 320 323 322 322 321 321 319 316
305 305 306 308 308 311 312 313 317 319 319 320 321 325 324 321 319 319 319 321 318 317 317 318 320 321 320 322 322 320 322 322 324 325 326 323 322 322 323 323 322 320 318 317 317
304 306 305 308 317 315 315 315 316 319 317 321 323 323 324 324 324 323 321 323 320 317 317 318 321 321 322 319 319 321 322 323 326 326 324 324 323 319 320 321 320 317 315 315 315
305 305 306 311 318 319 318 317 318 318 320 320 322 320 321 324 324 322 322 320 321 322 322 323 325 326 323 320 320 322 321 320 322 323 326 327 324 318 317 317 316 315 314 314 313
307 307 310 314 314 315 317 318 318 315 318 320 321 320 320 321 320 323 323 319 321 323 324 324 323 326 328 324 323 325 323 320 322 324 322 323 322 320 319 318 316 315 314 313 312
307 307 310 312 312 312 315 317 319 319 318 319 321 321 321 321 319 320 319 319 318 319 317 322 325 324 321 321 321 322 323 322 322 322 322 320 322 321 320 319 317 315 314 313 313
308 309 308 308 310 313 313 316 317 317 317 317 321 319 318 317 318 319 319 319 320 319 319 317 322 320 321 319 319 320 320 320 321 321 322 321 321 319 316 315 314 314 313 313 312
306 306 307 307 308 310 313 312 313 313 316 316 317 317 318 316 313 312 314 314 316 319 319 320 320 321 320 319 318 319 319 319 318 318 320 321 319 317 315 316 315 314 313 312 311

GFSSW_925_thetae_108.txt.gz
Theta_e
315 315 314 315 314 314 314 313 313 313 313 312 312 312 310 311 311 313 315 315 312 306 310 311 309 313 314 316 316 317 318 317 317 317 319 320 321 322 323 325 327 332 330 330 352
314 313 314 313 314 313 313 313 312 312 312 312 311 311 311 310 312 314 313 312 308 305 312 309 309 311 314 315 316 316 315 316 317 317 318 318 319 320 322 324 327 330 328 343 351
312 313 313 312 312 311 312 311 312 312 312 311 311 310 310 311 315 315 314 315 308 306 312 311 309 311 313 315 316 316 316 317 316 316 316 317 317 318 319 320 325 328 329 333 352
311 312 312 312 312 310 311 311 311 311 311 310 310 310 310 313 319 317 314 316 305 313 311 311 310 310 311 313 315 314 315 315 316 316 316 316 317 317 318 319 321 326 327 327 333
311 312 312 311 311 311 310 310 310 310 310 310 310 309 312 316 316 313 310 306 316 313 312 313 313 312 312 312 313 314 314 314 314 315 315 315 315 316 317 318 319 321 324 326 328
311 310 311 311 311 310 310 310 310 309 309 309 309 309 313 317 314 312 317 315 315 313 313 314 313 313 313 312 313 314 313 313 314 314 314 314 315 315 315 316 317 318 320 323 327
311 311 310 311 311 310 310 310 309 309 309 310 309 311 313 317 315 319 317 317 317 313 314 313 311 312 313 314 313 314 315 315 316 316 315 315 314 315 315 316 316 317 318 323 325
310 310 310 310 310 309 309 309 308 309 311 310 309 312 316 314 314 318 321 321 318 315 312 311 310 312 314 317 318 318 318 317 317 318 317 315 314 315 316 316 316 317 317 322 323
310 309 309 310 309 309 308 308 308 312 309 309 312 313 319 312 312 313 318 317 316 311 311 309 310 313 315 317 319 318 318 317 318 319 318 316 317 317 316 315 316 317 318 321 323
310 309 309 308 307 308 307 307 310 312 311 312 312 314 315 315 315 314 314 316 314 312 311 310 311 314 316 318 318 319 318 318 319 320 319 318 318 319 318 317 317 317 318 323 326
309 309 309 308 306 306 307 309 315 315 312 318 319 318 316 316 316 315 314 315 314 313 312 311 313 316 317 318 318 319 319 320 320 320 320 321 320 320 319 318 318 318 320 324 326
307 307 307 308 307 306 308 312 316 315 319 318 318 317 317 317 320 317 315 316 314 313 314 313 315 316 317 318 319 319 320 320 320 320 320 321 321 321 319 319 319 320 323 324 325
306 305 307 307 306 309 310 312 313 314 320 319 319 319 319 317 320 318 316 316 314 314 315 316 316 316 317 318 319 319 319 320 320 320 320 321 321 321 321 320 321 323 324 324 324
305 305 307 307 308 309 308 309 313 314 322 318 319 320 319 318 321 319 316 317 317 317 318 318 318 317 317 318 319 319 318 319 319 320 322 322 322 321 321 322 321 323 323 323 323
304 306 306 306 307 308 308 311 313 316 320 320 321 319 319 320 320 322 317 317 316 317 318 318 318 318 318 318 318 319 319 319 319 320 322 322 321 323 322 322 322 323 322 322 323
304 303 305 306 307 307 307 308 313 323 322 318 324 323 322 320 320 321 319 317 316 317 318 318 317 317 317 317 318 318 319 320 320 320 323 321 322 321 322 322 323 323 324 324 325
303 303 305 306 308 308 309 311 317 318 315 318 324 324 323 321 320 321 320 318 316 318 319 317 317 317 317 318 318 319 321 322 321 321 322 322 322 321 323 323 323 324 325 325 326
302 304 308 307 308 307 312 315 315 312 316 319 318 321 324 321 320 319 319 318 316 318 319 319 318 317 317 318 319 320 321 322 321 322 321 323 322 322 324 324 325 325 327 328 329
304 307 307 309 310 308 312 315 314 313 313 318 321 323 325 323 320 319 319 317 317 318 319 319 319 317 317 319 319 321 321 321 323 323 323 323 322 323 324 325 325 327 328 328 328
305 308 308 310 310 310 312 311 310 312 312 319 321 321 323 325 325 322 320 319 318 318 319 320 321 318 317 319 320 321 321 323 322 324 324 320 322 322 324 324 326 327 328 327 325
306 309 311 311 310 313 316 312 311 310 312 318 319 320 324 325 324 324 322 320 319 319 319 320 322 323 323 322 321 322 323 323 324 324 328 325 323 324 324 325 327 327 327 325 324
307 310 309 310 316 317 317 316 312 314 314 317 318 318 321 324 323 326 324 321 322 320 320 320 322 325 322 323 323 323 322 324 325 326 324 324 324 324 324 325 326 326 325 324 323
308 308 308 312 317 317 317 316 316 318 317 319 318 319 320 322 323 320 325 321 322 320 321 322 324 326 326 324 323 324 324 324 326 327 329 331 325 323 323 324 325 324 322 322 321
309 309 309 316 314 313 314 315 318 317 317 318 320 320 321 323 323 325 323 322 323 323 326 324 326 325 326 325 325 324 323 323 324 325 324 324 323 324 323 324 322 321 321 319 318
309 309 309 313 312 311 313 314 316 318 318 319 320 322 322 323 324 324 320 320 322 323 324 326 328 327 325 325 325 325 325 324 325 324 325 324 322 322 323 323 322 321 320 319 318
308 310 306 308 310 311 311 314 314 314 315 316 319 321 322 322 320 322 321 321 323 322 324 325 328 326 326 325 324 324 323 323 323 322 324 323 323 321 321 322 321 321 320 319 318
305 305 305 308 310 311 312 312 313 313 316 317 318 318 320 319 316 316 317 320 322 323 325 325 327 329 327 323 322 323 321 321 321 322 322 323 321 320 321 321 321 320 318 318 316

GFSSW_925_thetae_111.txt.gz
Theta_e
313 314 314 314 313 313 313 313 313 313 313 313 312 312 312 312 310 314 318 317 317 316 306 315 311 311 315 318 318 318 319 319 320 320 321 323 322 324 325 324 327 330 333 334 344
312 312 313 312 312 312 312 312 312 312 312 312 312 312 311 311 313 316 316 316 315 311 310 313 313 313 316 317 318 319 319 319 321 321 321 321 321 322 323 323 325 328 332 332 338
311 312 312 312 312 311 311 311 311 312 312 312 311 311 311 311 318 320 314 316 314 310 312 312 312 314 315 317 318 318 318 319 319 319 320 320 320 321 321 322 324 325 329 332 342
311 311 311 310 311 311 311 311 311 311 311 311 311 311 310 314 323 321 313 314 315 312 313 313 313 312 314 316 318 318 319 318 319 319 319 318 318 318 319 320 322 323 327 331 331
310 310 310 310 310 310 310 310 310 310 310 310 310 310 312 318 320 319 315 319 316 314 317 316 315 313 314 315 317 317 318 318 318 318 318 317 317 318 319 320 321 321 325 330 330
310 310 310 310 310 310 310 310 310 310 309 309 310 310 313 321 319 320 316 315 314 317 316 316 316 316 315 316 316 317 317 317 317 317 317 316 317 317 318 318 319 320 321 324 328
309 309 309 309 309 309 309 309 309 309 309 310 312 311 315 320 319 318 318 316 318 318 318 316 317 316 316 316 316 316 315 316 316 317 317 317 316 316 317 318 318 318 319 321 323
309 309 309 308 309 308 308 308 308 308 310 312 311 312 318 318 317 319 318 318 318 319 317 316 316 315 316 317 317 316 316 317 318 318 318 317 317 318 319 318 317 318 319 319 322
307 307 308 308 309 308 308 307 307 309 311 311 312 314 322 317 317 319 321 320 319 319 317 314 315 314 315 316 318 319 318 319 319 320 320 319 319 319 320 319 318 318 318 319 320
307 307 306 306 307 308 307 307 309 311 312 312 315 317 318 320 319 317 320 320 320 318 315 313 314 314 316 317 319 319 319 318 319 321 321 321 320 320 321 321 319 318 318 319 320
306 306 306 305 306 307 307 310 317 316 314 321 320 320 320 319 317 317 319 319 318 315 315 313 313 314 316 317 317 320 320 319 320 320 322 322 322 322 322 322 321 320 319 319 320
306 305 305 305 306 306 308 313 315 317 319 320 320 320 319 319 320 318 317 320 317 316 315 314 314 315 316 317 318 319 321 321 321 321 322 322 323 323 323 322 321 320 320 320 320
306 304 304 304 306 310 313 312 311 313 321 319 319 321 321 320 321 321 317 318 319 317 315 315 315 315 316 318 319 320 320 321 321 322 322 322 323 323 322 322 321 321 321 321 321
304 304 304 304 308 310 309 311 312 317 322 317 319 320 320 321 322 321 317 318 318 317 315 315 316 315 318 319 320 321 320 319 320 322 323 324 324 325 324 322 321 323 323 324 324
304 303 303 304 306 309 309 309 312 318 322 316 321 320 320 322 321 321 318 318 319 317 315 316 317 318 318 318 319 320 319 319 320 321 322 323 324 323 324 323 323 323 324 324 324
304 303 303 306 308 309 309 309 312 319 318 317 322 324 323 322 322 322 321 319 318 319 318 318 319 319 319 319 319 319 320 320 321 321 323 323 324 323 325 324 323 323 323 323 324
303 302 303 307 310 310 311 311 313 314 313 315 316 321 324 324 323 321 322 323 319 320 320 318 319 319 319 319 319 320 321 323 322 322 322 322 323 324 326 323 324 324 323 324 326
302 303 308 310 310 310 311 314 314 310 312 314 316 323 325 326 324 322 325 324 319 319 318 319 320 320 318 319 319 319 321 323 322 322 321 321 325 324 325 325 325 326 326 326 328
303 309 310 311 312 312 314 316 314 313 312 312 313 316 317 320 326 324 324 325 323 319 319 321 322 319 319 318 320 320 322 321 323 323 325 326 324 327 326 325 324 326 328 329 330
306 310 310 311 313 313 316 314 312 311 311 313 315 319 323 319 325 325 325 322 321 320 318 320 322 320 318 318 319 320 321 324 322 326 330 328 328 326 326 325 324 325 328 330 331
308 310 314 313 313 314 318 313 313 313 312 311 313 316 318 325 323 323 326 323 320 318 318 320 322 321 319 319 320 320 322 323 323 323 327 330 327 327 329 325 325 325 328 329 330
307 311 311 312 315 317 318 316 315 317 316 316 316 316 321 322 324 322 324 325 324 322 318 320 323 326 321 319 319 321 321 324 327 329 328 326 327 326 325 326 326 326 329 328 327
308 310 309 310 316 318 316 315 315 318 316 317 320 321 319 323 324 322 322 320 323 327 322 324 323 333 330 327 323 323 324 322 324 330 329 334 329 326 325 325 325 326 327 327 326
308 310 310 314 315 313 315 314 315 315 315 315 319 320 322 324 321 323 323 318 320 326 328 326 323 325 332 329 325 324 326 327 328 331 331 326 325 326 325 324 325 325 326 326 325
308 311 310 312 311 312 312 314 314 318 314 314 320 320 321 322 322 323 322 322 321 327 324 325 325 326 327 326 327 326 322 324 326 325 328 326 328 327 328 326 324 325 324 323 322
308 307 306 308 310 311 312 316 316 315 314 317 317 319 320 319 322 319 323 323 324 326 327 327 330 330 331 327 325 326 326 326 326 326 325 324 325 325 324 324 323 323 323 323 322
304 304 306 306 309 310 313 311 312 312 315 315 316 319 318 316 320 320 320 321 320 325 328 330 332 332 330 324 325 331 324 323 325 324 322 322 321 322 323 323 323 324 322 321 321

GFSSW_925_thetae_117.txt.gz
Theta_e
311 311 312 312 312 311 311 312 312 312 311 312 312 313 313 313 312 312 313 314 315 315 315 314 311 312 311 310 312 314 314 313 314 315 315 316 317 320 323 324 327 327 327 354 353
310 311 311 311 311 311 311 311 311 311 311 311 311 311 311 311 311 312 313 313 314 316 318 317 315 310 307 310 310 313 313 314 314 314 315 315 317 317 320 324 324 324 330 349 350
308 310 310 310 310 310 310 310 310 311 311 311 311 310 310 311 313 315 316 318 316 315 317 317 317 311 307 308 309 313 314 314 315 316 315 316 317 317 318 319 321 322 323 341 341
308 308 309 309 309 310 309 309 310 311 311 310 310 310 310 311 317 316 319 318 318 317 319 317 313 310 309 308 309 311 314 315 315 316 316 315 315 316 317 317 316 318 320 321 333
308 308 308 307 307 306 308 309 309 309 309 309 309 309 311 314 315 315 317 318 318 321 319 317 313 311 311 310 310 311 313 315 315 315 315 315 315 316 316 317 317 317 318 317 320
308 308 307 307 307 307 306 305 306 308 309 309 310 309 313 315 312 316 317 322 318 320 317 315 311 311 311 310 310 312 313 314 314 315 315 315 315 316 316 317 316 316 316 316 318
307 308 308 307 306 306 305 305 305 306 308 309 310 311 314 313 314 318 317 321 320 317 316 315 313 313 312 310 311 312 311 313 315 314 315 315 314 316 315 316 315 315 315 316 316
307 307 308 308 307 306 306 305 304 306 308 310 310 311 314 314 314 315 317 318 321 318 317 316 313 312 314 312 314 311 311 311 312 314 314 314 315 314 315 314 315 315 315 316 315
307 307 307 306 305 304 304 304 303 305 310 311 313 313 315 314 316 316 316 318 319 316 316 314 313 314 314 314 313 313 313 312 313 313 314 314 314 314 314 314 314 315 315 315 314
305 305 305 305 305 304 304 304 306 309 311 313 312 315 315 314 318 319 318 319 320 317 314 316 316 315 314 314 315 313 313 314 314 314 314 313 313 314 314 316 315 315 315 315 315
304 304 305 305 304 304 306 306 311 313 314 316 316 317 316 317 318 320 319 320 321 318 319 319 317 318 316 315 315 315 314 316 317 317 316 314 315 315 317 317 317 316 315 315 315
303 302 302 302 303 303 306 307 312 311 314 314 316 317 316 317 318 319 320 321 322 321 319 319 321 318 317 316 316 315 314 314 317 319 317 317 317 319 319 318 317 317 318 315 316
302 302 302 303 302 307 308 311 313 313 314 312 313 315 315 317 319 319 320 320 322 323 321 320 321 320 318 315 316 314 313 314 316 318 319 320 320 321 322 321 321 320 319 317 315
301 302 303 304 305 306 305 305 310 311 310 310 311 315 315 315 318 318 318 321 323 325 323 321 321 320 317 315 314 314 314 316 317 318 320 319 318 321 321 320 321 319 316 317 318
300 301 302 304 304 304 305 307 310 311 315 311 314 317 316 317 318 319 318 320 322 325 324 324 321 320 316 314 314 314 316 316 317 319 320 319 317 318 321 322 321 319 318 317 316
299 300 301 303 305 305 305 307 309 315 315 310 312 312 319 315 316 319 319 319 321 323 321 322 319 317 316 315 314 314 316 317 317 316 318 319 320 319 322 322 321 320 319 319 319
299 299 300 302 304 304 308 311 316 319 311 311 312 312 312 321 322 325 324 320 321 324 323 321 319 319 318 316 314 314 314 320 320 318 319 318 319 318 323 324 323 321 320 319 326
299 300 301 304 306 308 308 314 316 311 312 312 311 312 313 314 320 322 320 326 321 320 321 322 323 319 319 316 315 313 317 319 321 321 319 319 319 319 321 322 323 323 320 326 328
300 303 305 306 309 309 313 318 314 311 311 312 311 312 314 314 323 323 320 324 323 323 321 321 322 319 318 317 316 317 318 317 320 325 324 321 319 325 324 325 323 325 324 325 328
302 304 306 308 312 312 314 315 312 311 312 314 318 314 316 318 319 323 323 322 323 322 322 320 322 320 318 317 319 318 317 319 318 325 327 324 325 329 329 326 327 325 325 331 331
303 304 305 308 309 311 316 313 313 313 313 315 317 318 317 318 320 322 323 323 325 325 324 323 324 324 323 322 320 319 320 318 318 322 324 327 335 330 330 325 327 328 328 330 330
302 304 304 308 309 311 314 310 311 314 314 317 318 319 318 320 320 322 324 322 323 324 326 323 324 326 323 322 322 323 317 319 324 325 323 324 334 328 328 328 327 327 329 329 327
303 304 307 306 307 309 309 310 311 313 314 314 318 317 317 319 323 321 321 321 321 323 323 326 325 326 326 322 321 325 322 319 319 326 328 330 330 327 329 328 331 329 326 327 329
304 308 305 306 305 308 309 310 311 311 313 313 316 315 316 320 321 322 323 322 321 321 321 324 325 323 325 323 325 325 323 319 320 326 327 328 331 329 329 329 329 328 327 327 326
305 307 306 305 306 306 309 310 310 312 312 313 315 315 316 318 320 321 320 318 320 321 323 326 328 326 326 327 328 326 324 319 322 327 328 330 329 328 327 328 327 327 326 326 325
305 305 305 303 305 306 309 309 311 311 313 315 316 315 316 318 319 322 320 315 321 322 324 324 327 325 327 324 328 328 326 323 327 327 328 329 328 326 326 327 328 327 325 325 325
302 303 304 304 304 306 308 308 309 310 311 310 315 316 316 316 315 315 316 318 320 323 322 324 328 326 331 327 326 328 327 328 329 326 327 329 327 324 326 326 326 327 324 323 319

GFSSW_925_thetae_120.txt.gz
Theta_e
309 309 310 310 311 310 311 310 310 311 311 312 312 311 311 311 310 310 311 312 311 312 313 314 314 313 312 308 310 311 310 310 312 313 314 314 315 316 318 321 324 325 330 353 348
309 308 309 309 309 309 309 308 309 310 311 311 311 311 311 310 309 311 312 312 313 313 315 314 315 312 307 307 308 309 311 311 312 313 313 313 314 314 316 317 322 327 354 351 348
308 308 308 308 308 308 306 309 310 310 310 310 310 310 310 309 311 313 318 319 318 317 317 314 316 311 306 306 307 308 313 313 313 313 313 314 315 314 316 317 318 316 346 352 350
308 308 308 308 307 307 307 308 308 308 310 311 310 309 309 310 308 316 317 318 318 317 319 318 315 313 306 306 306 308 311 313 313 313 315 315 314 314 315 316 316 316 325 342 345
307 308 308 308 308 307 306 307 307 308 308 308 310 309 310 311 312 307 314 315 319 319 321 317 315 310 310 307 306 307 308 311 312 312 313 313 313 314 314 315 316 315 316 318 330
307 308 307 307 308 308 308 308 306 305 308 309 309 308 309 309 307 308 311 315 321 319 320 317 314 312 309 309 308 308 309 309 310 311 312 313 314 313 315 315 315 315 314 314 320
306 305 305 306 307 306 305 306 305 305 307 308 309 309 309 309 307 313 314 313 322 320 320 319 316 312 309 310 309 309 309 309 310 311 311 313 313 315 314 314 315 314 313 313 314
306 306 306 306 305 306 306 305 303 304 308 308 309 311 310 308 309 309 309 312 313 321 319 317 316 314 310 310 311 309 308 309 309 309 311 312 314 315 313 312 313 313 313 313 313
305 304 303 305 303 304 305 304 302 304 308 310 311 310 312 311 314 313 313 313 316 318 317 317 314 313 309 310 311 310 311 308 309 309 311 311 314 313 314 313 312 312 312 312 312
304 303 302 301 302 302 304 304 304 308 309 311 312 314 312 314 314 317 317 314 317 321 318 317 312 309 310 310 314 313 311 311 312 313 310 311 312 312 313 312 313 311 311 311 312
304 303 303 302 301 302 305 305 305 308 312 314 314 314 314 314 315 313 317 315 317 318 315 311 313 314 311 312 313 314 313 312 312 313 313 312 312 311 312 311 311 311 311 311 311
303 302 303 302 302 300 305 307 306 309 313 312 314 314 313 312 313 313 313 319 321 322 316 314 316 316 317 315 315 315 314 314 313 314 314 314 313 313 313 312 312 313 313 312 311
300 300 301 302 300 305 304 304 303 307 309 311 311 313 313 314 315 315 315 317 321 322 319 318 319 319 318 317 316 315 315 314 313 314 314 315 316 316 315 314 314 314 314 314 312
298 299 301 302 302 303 300 302 306 306 311 311 308 310 311 313 314 315 314 317 321 323 322 319 318 320 319 318 316 316 315 315 315 314 314 316 318 317 317 318 318 317 316 315 312
298 299 300 302 302 302 300 301 304 307 311 308 310 314 313 314 315 317 315 316 322 323 323 322 320 320 321 319 318 316 315 315 315 314 313 315 316 315 318 319 318 317 314 313 314
299 299 301 302 301 301 301 302 305 313 313 309 309 311 311 314 317 316 318 317 318 322 323 323 321 319 319 320 319 316 314 314 313 314 315 315 317 317 317 320 320 318 316 314 313
300 300 300 302 302 303 304 305 311 313 310 311 311 310 311 311 314 317 320 322 324 325 325 325 325 322 320 322 318 316 313 313 315 314 316 315 316 316 318 320 319 317 316 316 315
300 300 300 303 305 305 305 312 313 310 311 310 311 312 312 311 319 322 322 322 321 321 324 328 329 324 322 318 317 315 313 312 317 317 316 318 317 316 317 318 321 318 317 323 323
300 301 302 305 308 308 311 315 316 313 311 312 313 313 313 312 317 319 319 320 320 323 326 326 327 321 321 320 317 316 312 312 318 322 319 318 318 323 325 325 326 324 327 325 332
301 301 302 304 308 309 312 315 313 311 312 313 315 315 316 317 318 319 321 321 320 322 322 324 323 321 320 319 319 317 314 316 320 325 324 322 328 329 328 328 331 330 329 330 334
301 299 303 305 308 306 311 311 310 310 311 316 316 317 316 316 317 318 320 323 322 323 322 323 324 325 323 323 320 317 315 317 318 321 321 325 328 327 328 326 332 330 329 328 327
300 301 304 303 303 305 309 309 310 312 311 313 313 315 315 317 320 321 322 322 322 324 325 322 325 325 324 321 321 320 321 316 319 320 320 321 323 328 327 330 328 330 329 328 327
302 299 305 304 302 305 307 309 308 310 311 314 314 316 315 318 319 319 321 322 321 321 326 325 328 325 326 322 320 323 323 317 318 318 324 323 326 326 328 328 328 328 328 327 324
304 306 300 299 301 304 306 309 308 308 310 310 313 315 315 315 317 321 321 322 321 321 321 323 325 321 325 323 321 324 323 321 317 320 325 326 329 328 328 330 328 326 324 325 324
300 302 303 302 303 302 304 308 307 309 309 311 311 314 317 316 315 321 320 319 322 323 321 322 327 321 325 324 326 325 322 322 319 320 321 327 328 328 326 328 327 326 326 325 322
299 303 303 304 302 303 305 307 308 308 307 311 311 311 313 316 314 315 318 315 318 321 320 321 327 322 328 328 327 328 326 325 323 326 327 328 327 326 325 325 326 326 325 323 318
301 301 303 304 301 304 305 305 306 307 308 308 309 311 313 315 312 313 313 314 318 321 323 323 326 324 329 326 327 328 327 328 327 326 328 329 327 324 327 327 326 324 321 317 316

GFSSW_925_thetae_123.txt.gz
Theta_e
310 310 310 310 310 309 309 309 310 311 310 310 311 311 310 311 310 310 309 308 310 311 311 313 315 316 312 307 308 309 310 309 310 311 312 313 314 314 315 315 315 323 342 350 353
310 310 310 309 309 309 309 309 309 309 309 310 310 310 310 310 309 309 305 306 310 311 315 313 313 309 308 307 306 308 307 310 310 311 312 313 313 313 314 313 315 318 351 349 348
309 309 309 310 309 309 309 309 309 310 309 309 308 309 309 309 309 308 319 318 316 317 318 313 314 309 308 304 305 307 310 310 312 313 311 312 313 314 313 313 316 315 352 348 348
308 309 310 309 309 309 309 309 310 310 309 309 309 308 308 309 304 311 322 323 318 318 320 315 315 314 306 307 305 306 308 311 311 312 313 313 313 314 312 313 314 315 349 349 348
307 307 307 307 307 306 307 308 308 308 308 309 308 308 309 309 309 305 312 309 317 318 318 317 313 312 308 305 305 305 307 309 311 311 311 311 312 312 312 312 314 314 330 349 346
306 306 306 306 307 306 307 307 305 306 308 308 308 308 309 308 305 306 308 311 318 318 318 316 315 310 311 309 306 307 306 307 307 307 309 311 313 312 313 312 313 313 312 315 317
306 305 305 305 306 306 306 306 303 304 308 309 309 308 309 308 305 306 312 313 315 319 319 318 315 314 311 309 308 307 309 308 307 308 307 310 310 312 312 313 313 312 312 311 314
305 304 305 305 305 305 305 300 300 302 307 309 309 309 310 308 308 308 307 307 306 311 316 318 316 312 308 308 309 309 308 309 307 307 308 310 311 312 312 312 312 312 312 311 311
303 303 304 304 304 304 304 300 298 304 308 309 309 310 310 309 311 310 309 309 309 311 311 319 316 313 312 311 309 309 307 307 308 306 309 309 310 311 311 311 311 311 311 312 310
303 302 302 302 302 302 303 302 301 309 309 309 311 311 310 311 312 313 315 311 311 314 316 321 313 314 312 310 312 310 309 310 309 309 307 309 308 309 311 311 310 310 310 310 311
303 302 302 302 301 302 303 304 303 306 310 311 310 312 311 312 312 314 315 314 313 319 321 319 318 317 317 314 311 311 312 311 310 310 310 309 309 309 310 309 309 309 308 308 309
302 302 302 302 302 300 304 306 306 306 307 308 308 309 310 310 312 311 313 316 315 322 320 316 322 317 313 313 311 312 313 312 312 312 310 311 312 311 310 310 309 310 309 309 310
300 300 300 303 302 302 301 301 300 303 306 308 309 310 310 311 313 313 312 312 315 321 321 317 315 316 314 311 311 312 313 312 313 313 312 313 312 312 313 311 310 309 309 310 310
297 298 300 303 301 301 299 301 302 303 309 311 309 310 312 313 314 313 313 312 314 318 321 318 316 313 315 316 314 315 314 314 315 314 312 312 313 313 314 313 313 313 309 310 311
297 299 301 302 303 301 301 301 301 304 307 305 309 312 311 312 313 316 314 313 314 320 322 323 318 317 316 318 316 316 315 314 315 313 312 312 312 312 314 315 314 313 313 312 311
298 299 301 302 302 304 303 304 302 312 311 308 308 310 311 310 310 315 318 314 314 318 322 322 318 318 318 318 317 316 314 314 313 312 311 312 312 314 315 316 317 316 315 314 312
298 300 301 302 303 305 304 305 311 312 307 309 309 312 311 310 311 318 318 321 322 325 326 324 323 319 318 319 319 316 313 312 312 312 314 311 314 314 315 316 318 318 316 314 311
299 301 303 303 304 304 304 311 311 307 310 310 312 312 312 312 317 320 319 322 319 320 324 328 329 324 320 320 319 318 314 311 313 314 312 314 315 314 322 326 325 326 326 322 310
300 301 303 303 302 307 306 312 315 315 314 313 312 312 313 313 315 320 319 321 318 319 325 326 326 323 323 321 319 320 317 311 315 318 314 315 316 325 330 331 332 336 337 337 336
301 300 301 303 306 306 309 311 311 309 311 312 317 314 316 314 315 319 319 320 320 321 321 324 327 323 323 323 321 315 313 314 316 318 321 321 325 326 331 331 332 333 332 332 331
301 298 302 303 306 302 306 311 310 310 309 312 316 316 316 318 315 316 318 321 321 323 323 323 324 326 323 325 325 320 316 316 315 318 320 325 329 326 330 330 332 331 329 328 328
301 300 302 302 299 300 306 305 308 310 308 312 314 312 314 315 317 317 320 320 321 320 324 323 325 326 324 320 319 319 315 317 316 318 319 319 326 326 328 330 330 330 328 326 324
302 301 303 301 300 302 303 304 306 307 308 310 312 314 314 316 319 319 319 320 320 322 324 322 326 326 325 323 320 321 320 314 314 317 320 324 326 324 329 329 328 328 325 322 319
302 303 297 296 301 302 304 305 306 305 307 306 310 312 313 316 315 318 320 320 321 321 323 322 327 320 322 323 320 322 321 318 317 318 322 319 327 330 329 328 329 326 324 322 319
296 298 303 303 303 302 302 305 305 307 307 307 309 310 312 316 316 317 318 318 321 323 321 321 327 321 323 322 322 321 322 320 319 318 320 325 328 329 329 328 328 325 325 323 320
299 301 302 302 302 301 302 305 305 306 308 308 311 309 311 314 314 314 314 316 319 321 320 319 326 323 327 326 327 322 321 325 320 320 322 326 328 323 326 325 324 324 322 319 315
300 300 302 302 303 304 304 305 305 305 306 307 308 309 309 313 309 310 311 312 313 317 321 320 324 323 328 327 327 328 325 326 325 325 325 328 326 327 327 327 325 325 318 315 314